<?xml version="1.0" encoding="UTF-8" standalone="no" ?>
<gpx xmlns="http://www.topografix.com/GPX/1/1" xmlns:xsi="http://www.w3.org/2001/XMLSchema-instance" xsi:schemaLocation="http://www.topografix.com/GPX/1/1 http://www.topografix.com/GPX/1/1/gpx.xsd" version="1.1" creator="VisuGPX - https://www.visugpx.com">
  <metadata>
    <name>Une partie de la Rando Mercurey 2012</name>
    <desc><![CDATA[Superbe circuit très varié.]]></desc>
  </metadata>
  <trk>
    <name><![CDATA[Rando Mercurey 2012]]></name>
    <trkseg>
      <trkpt lat="46.82878" lon="4.73286">
        <ele>219.5</ele>
        <time>2012-03-24T13:45:26Z</time>
      </trkpt>
      <trkpt lat="46.83034" lon="4.73378">
        <ele>225.4</ele>
        <time>2012-03-24T13:45:26Z</time>
      </trkpt>
      <trkpt lat="46.83143" lon="4.73421">
        <ele>231.2</ele>
        <time>2012-03-24T13:45:26Z</time>
      </trkpt>
      <trkpt lat="46.83173" lon="4.73412">
        <ele>276</ele>
        <time>2012-03-24T13:45:26Z</time>
      </trkpt>
      <trkpt lat="46.83175" lon="4.73379">
        <ele>276</ele>
        <time>2012-03-24T13:45:30Z</time>
      </trkpt>
      <trkpt lat="46.83175" lon="4.73345">
        <ele>275</ele>
        <time>2012-03-24T13:45:34Z</time>
      </trkpt>
      <trkpt lat="46.83167" lon="4.73308">
        <ele>275</ele>
        <time>2012-03-24T13:45:38Z</time>
      </trkpt>
      <trkpt lat="46.83157" lon="4.73269">
        <ele>273.5</ele>
        <time>2012-03-24T13:45:42Z</time>
      </trkpt>
      <trkpt lat="46.83147" lon="4.73227">
        <ele>271.5</ele>
        <time>2012-03-24T13:45:46Z</time>
      </trkpt>
      <trkpt lat="46.83144" lon="4.73216">
        <ele>271</ele>
        <time>2012-03-24T13:45:47Z</time>
      </trkpt>
      <trkpt lat="46.83139" lon="4.73196">
        <ele>270.5</ele>
        <time>2012-03-24T13:45:49Z</time>
      </trkpt>
      <trkpt lat="46.83136" lon="4.73185">
        <ele>270.5</ele>
        <time>2012-03-24T13:45:50Z</time>
      </trkpt>
      <trkpt lat="46.83135" lon="4.73174">
        <ele>270</ele>
        <time>2012-03-24T13:45:51Z</time>
      </trkpt>
      <trkpt lat="46.8314" lon="4.73153">
        <ele>270.5</ele>
        <time>2012-03-24T13:45:53Z</time>
      </trkpt>
      <trkpt lat="46.83142" lon="4.73144">
        <ele>270.5</ele>
        <time>2012-03-24T13:45:54Z</time>
      </trkpt>
      <trkpt lat="46.83144" lon="4.73134">
        <ele>270.5</ele>
        <time>2012-03-24T13:45:55Z</time>
      </trkpt>
      <trkpt lat="46.83147" lon="4.73124">
        <ele>270.5</ele>
        <time>2012-03-24T13:45:56Z</time>
      </trkpt>
      <trkpt lat="46.83149" lon="4.73081">
        <ele>271.5</ele>
        <time>2012-03-24T13:46:01Z</time>
      </trkpt>
      <trkpt lat="46.83152" lon="4.73049">
        <ele>274.5</ele>
        <time>2012-03-24T13:46:07Z</time>
      </trkpt>
      <trkpt lat="46.83159" lon="4.73029">
        <ele>275.5</ele>
        <time>2012-03-24T13:46:11Z</time>
      </trkpt>
      <trkpt lat="46.83172" lon="4.73026">
        <ele>276</ele>
        <time>2012-03-24T13:46:15Z</time>
      </trkpt>
      <trkpt lat="46.83179" lon="4.7303">
        <ele>275.5</ele>
        <time>2012-03-24T13:46:17Z</time>
      </trkpt>
      <trkpt lat="46.83201" lon="4.73047">
        <ele>275</ele>
        <time>2012-03-24T13:46:23Z</time>
      </trkpt>
      <trkpt lat="46.83216" lon="4.73057">
        <ele>275</ele>
        <time>2012-03-24T13:46:27Z</time>
      </trkpt>
      <trkpt lat="46.83229" lon="4.73068">
        <ele>274.5</ele>
        <time>2012-03-24T13:46:31Z</time>
      </trkpt>
      <trkpt lat="46.83242" lon="4.73079">
        <ele>275</ele>
        <time>2012-03-24T13:46:35Z</time>
      </trkpt>
      <trkpt lat="46.83257" lon="4.7309">
        <ele>275</ele>
        <time>2012-03-24T13:46:39Z</time>
      </trkpt>
      <trkpt lat="46.83271" lon="4.731">
        <ele>275</ele>
        <time>2012-03-24T13:46:43Z</time>
      </trkpt>
      <trkpt lat="46.83286" lon="4.7311">
        <ele>275</ele>
        <time>2012-03-24T13:46:47Z</time>
      </trkpt>
      <trkpt lat="46.83292" lon="4.73114">
        <ele>275</ele>
        <time>2012-03-24T13:46:49Z</time>
      </trkpt>
      <trkpt lat="46.83307" lon="4.73122">
        <ele>275</ele>
        <time>2012-03-24T13:46:53Z</time>
      </trkpt>
      <trkpt lat="46.83321" lon="4.7313">
        <ele>275.5</ele>
        <time>2012-03-24T13:46:57Z</time>
      </trkpt>
      <trkpt lat="46.83335" lon="4.73139">
        <ele>275.5</ele>
        <time>2012-03-24T13:47:01Z</time>
      </trkpt>
      <trkpt lat="46.83355" lon="4.73152">
        <ele>275.5</ele>
        <time>2012-03-24T13:47:07Z</time>
      </trkpt>
      <trkpt lat="46.83368" lon="4.73161">
        <ele>275.5</ele>
        <time>2012-03-24T13:47:11Z</time>
      </trkpt>
      <trkpt lat="46.83382" lon="4.73169">
        <ele>275.5</ele>
        <time>2012-03-24T13:47:15Z</time>
      </trkpt>
      <trkpt lat="46.83395" lon="4.73176">
        <ele>275.5</ele>
        <time>2012-03-24T13:47:19Z</time>
      </trkpt>
      <trkpt lat="46.83401" lon="4.7318">
        <ele>275.5</ele>
        <time>2012-03-24T13:47:21Z</time>
      </trkpt>
      <trkpt lat="46.83409" lon="4.73202">
        <ele>276</ele>
        <time>2012-03-24T13:47:27Z</time>
      </trkpt>
      <trkpt lat="46.83407" lon="4.73223">
        <ele>276</ele>
        <time>2012-03-24T13:47:31Z</time>
      </trkpt>
      <trkpt lat="46.83406" lon="4.73234">
        <ele>277</ele>
        <time>2012-03-24T13:47:33Z</time>
      </trkpt>
      <trkpt lat="46.83405" lon="4.73256">
        <ele>277.5</ele>
        <time>2012-03-24T13:47:37Z</time>
      </trkpt>
      <trkpt lat="46.83403" lon="4.73276">
        <ele>278.5</ele>
        <time>2012-03-24T13:47:41Z</time>
      </trkpt>
      <trkpt lat="46.83402" lon="4.73295">
        <ele>279.5</ele>
        <time>2012-03-24T13:47:45Z</time>
      </trkpt>
      <trkpt lat="46.83402" lon="4.73304">
        <ele>280</ele>
        <time>2012-03-24T13:47:47Z</time>
      </trkpt>
      <trkpt lat="46.834" lon="4.73322">
        <ele>280.5</ele>
        <time>2012-03-24T13:47:51Z</time>
      </trkpt>
      <trkpt lat="46.83399" lon="4.73331">
        <ele>281</ele>
        <time>2012-03-24T13:47:53Z</time>
      </trkpt>
      <trkpt lat="46.83398" lon="4.73347">
        <ele>281.5</ele>
        <time>2012-03-24T13:47:57Z</time>
      </trkpt>
      <trkpt lat="46.83398" lon="4.73356">
        <ele>282</ele>
        <time>2012-03-24T13:47:59Z</time>
      </trkpt>
      <trkpt lat="46.83406" lon="4.7337">
        <ele>282</ele>
        <time>2012-03-24T13:48:03Z</time>
      </trkpt>
      <trkpt lat="46.83421" lon="4.73382">
        <ele>282.5</ele>
        <time>2012-03-24T13:48:09Z</time>
      </trkpt>
      <trkpt lat="46.83433" lon="4.73384">
        <ele>283</ele>
        <time>2012-03-24T13:48:13Z</time>
      </trkpt>
      <trkpt lat="46.83439" lon="4.73385">
        <ele>283</ele>
        <time>2012-03-24T13:48:15Z</time>
      </trkpt>
      <trkpt lat="46.8345" lon="4.73388">
        <ele>283</ele>
        <time>2012-03-24T13:48:19Z</time>
      </trkpt>
      <trkpt lat="46.83456" lon="4.73388">
        <ele>283</ele>
        <time>2012-03-24T13:48:21Z</time>
      </trkpt>
      <trkpt lat="46.83462" lon="4.73388">
        <ele>283.5</ele>
        <time>2012-03-24T13:48:23Z</time>
      </trkpt>
      <trkpt lat="46.83474" lon="4.73388">
        <ele>283.5</ele>
        <time>2012-03-24T13:48:27Z</time>
      </trkpt>
      <trkpt lat="46.83481" lon="4.73388">
        <ele>283.5</ele>
        <time>2012-03-24T13:48:29Z</time>
      </trkpt>
      <trkpt lat="46.83488" lon="4.73388">
        <ele>284</ele>
        <time>2012-03-24T13:48:31Z</time>
      </trkpt>
      <trkpt lat="46.83502" lon="4.73387">
        <ele>285</ele>
        <time>2012-03-24T13:48:35Z</time>
      </trkpt>
      <trkpt lat="46.83509" lon="4.73386">
        <ele>285</ele>
        <time>2012-03-24T13:48:37Z</time>
      </trkpt>
      <trkpt lat="46.83522" lon="4.73383">
        <ele>286</ele>
        <time>2012-03-24T13:48:41Z</time>
      </trkpt>
      <trkpt lat="46.83528" lon="4.73384">
        <ele>286.5</ele>
        <time>2012-03-24T13:48:43Z</time>
      </trkpt>
      <trkpt lat="46.83543" lon="4.73384">
        <ele>287</ele>
        <time>2012-03-24T13:48:47Z</time>
      </trkpt>
      <trkpt lat="46.8355" lon="4.73385">
        <ele>287</ele>
        <time>2012-03-24T13:48:49Z</time>
      </trkpt>
      <trkpt lat="46.83563" lon="4.73387">
        <ele>287</ele>
        <time>2012-03-24T13:48:53Z</time>
      </trkpt>
      <trkpt lat="46.83569" lon="4.73388">
        <ele>287</ele>
        <time>2012-03-24T13:48:55Z</time>
      </trkpt>
      <trkpt lat="46.83583" lon="4.7339">
        <ele>287.5</ele>
        <time>2012-03-24T13:48:59Z</time>
      </trkpt>
      <trkpt lat="46.83589" lon="4.73392">
        <ele>287.5</ele>
        <time>2012-03-24T13:49:01Z</time>
      </trkpt>
      <trkpt lat="46.83602" lon="4.73396">
        <ele>287</ele>
        <time>2012-03-24T13:49:05Z</time>
      </trkpt>
      <trkpt lat="46.83608" lon="4.73399">
        <ele>287.5</ele>
        <time>2012-03-24T13:49:07Z</time>
      </trkpt>
      <trkpt lat="46.8362" lon="4.73406">
        <ele>287.5</ele>
        <time>2012-03-24T13:49:11Z</time>
      </trkpt>
      <trkpt lat="46.83625" lon="4.7341">
        <ele>288</ele>
        <time>2012-03-24T13:49:13Z</time>
      </trkpt>
      <trkpt lat="46.83638" lon="4.73418">
        <ele>288</ele>
        <time>2012-03-24T13:49:17Z</time>
      </trkpt>
      <trkpt lat="46.83643" lon="4.73422">
        <ele>288</ele>
        <time>2012-03-24T13:49:19Z</time>
      </trkpt>
      <trkpt lat="46.83654" lon="4.7343">
        <ele>288.5</ele>
        <time>2012-03-24T13:49:23Z</time>
      </trkpt>
      <trkpt lat="46.8366" lon="4.73434">
        <ele>288.5</ele>
        <time>2012-03-24T13:49:25Z</time>
      </trkpt>
      <trkpt lat="46.8367" lon="4.73442">
        <ele>289</ele>
        <time>2012-03-24T13:49:29Z</time>
      </trkpt>
      <trkpt lat="46.83676" lon="4.73445">
        <ele>289.5</ele>
        <time>2012-03-24T13:49:31Z</time>
      </trkpt>
      <trkpt lat="46.83687" lon="4.73451">
        <ele>289.5</ele>
        <time>2012-03-24T13:49:35Z</time>
      </trkpt>
      <trkpt lat="46.83698" lon="4.73457">
        <ele>289.5</ele>
        <time>2012-03-24T13:49:39Z</time>
      </trkpt>
      <trkpt lat="46.8371" lon="4.73465">
        <ele>290</ele>
        <time>2012-03-24T13:49:43Z</time>
      </trkpt>
      <trkpt lat="46.83715" lon="4.73468">
        <ele>290.5</ele>
        <time>2012-03-24T13:49:45Z</time>
      </trkpt>
      <trkpt lat="46.83725" lon="4.73474">
        <ele>291</ele>
        <time>2012-03-24T13:49:49Z</time>
      </trkpt>
      <trkpt lat="46.8373" lon="4.73477">
        <ele>291.5</ele>
        <time>2012-03-24T13:49:51Z</time>
      </trkpt>
      <trkpt lat="46.8374" lon="4.73486">
        <ele>292</ele>
        <time>2012-03-24T13:49:55Z</time>
      </trkpt>
      <trkpt lat="46.83746" lon="4.7349">
        <ele>292</ele>
        <time>2012-03-24T13:49:57Z</time>
      </trkpt>
      <trkpt lat="46.83756" lon="4.735">
        <ele>292.5</ele>
        <time>2012-03-24T13:50:01Z</time>
      </trkpt>
      <trkpt lat="46.83762" lon="4.73504">
        <ele>292.5</ele>
        <time>2012-03-24T13:50:03Z</time>
      </trkpt>
      <trkpt lat="46.83773" lon="4.73514">
        <ele>292.5</ele>
        <time>2012-03-24T13:50:07Z</time>
      </trkpt>
      <trkpt lat="46.83778" lon="4.73519">
        <ele>292.5</ele>
        <time>2012-03-24T13:50:09Z</time>
      </trkpt>
      <trkpt lat="46.8379" lon="4.7353">
        <ele>292.5</ele>
        <time>2012-03-24T13:50:13Z</time>
      </trkpt>
      <trkpt lat="46.83795" lon="4.73535">
        <ele>293</ele>
        <time>2012-03-24T13:50:15Z</time>
      </trkpt>
      <trkpt lat="46.83806" lon="4.73547">
        <ele>294</ele>
        <time>2012-03-24T13:50:19Z</time>
      </trkpt>
      <trkpt lat="46.83812" lon="4.73554">
        <ele>294</ele>
        <time>2012-03-24T13:50:21Z</time>
      </trkpt>
      <trkpt lat="46.83824" lon="4.73568">
        <ele>294.5</ele>
        <time>2012-03-24T13:50:25Z</time>
      </trkpt>
      <trkpt lat="46.83831" lon="4.73575">
        <ele>294.5</ele>
        <time>2012-03-24T13:50:27Z</time>
      </trkpt>
      <trkpt lat="46.83844" lon="4.73589">
        <ele>294.5</ele>
        <time>2012-03-24T13:50:31Z</time>
      </trkpt>
      <trkpt lat="46.83859" lon="4.73603">
        <ele>294.5</ele>
        <time>2012-03-24T13:50:35Z</time>
      </trkpt>
      <trkpt lat="46.83873" lon="4.73614">
        <ele>294.5</ele>
        <time>2012-03-24T13:50:39Z</time>
      </trkpt>
      <trkpt lat="46.83882" lon="4.73616">
        <ele>295</ele>
        <time>2012-03-24T13:50:41Z</time>
      </trkpt>
      <trkpt lat="46.83898" lon="4.73619">
        <ele>295.5</ele>
        <time>2012-03-24T13:50:45Z</time>
      </trkpt>
      <trkpt lat="46.83913" lon="4.7362">
        <ele>295.5</ele>
        <time>2012-03-24T13:50:49Z</time>
      </trkpt>
      <trkpt lat="46.83926" lon="4.7362">
        <ele>297</ele>
        <time>2012-03-24T13:50:53Z</time>
      </trkpt>
      <trkpt lat="46.83943" lon="4.73622">
        <ele>298.5</ele>
        <time>2012-03-24T13:50:59Z</time>
      </trkpt>
      <trkpt lat="46.83957" lon="4.73625">
        <ele>299</ele>
        <time>2012-03-24T13:51:03Z</time>
      </trkpt>
      <trkpt lat="46.83964" lon="4.73625">
        <ele>299.5</ele>
        <time>2012-03-24T13:51:05Z</time>
      </trkpt>
      <trkpt lat="46.83984" lon="4.73621">
        <ele>301</ele>
        <time>2012-03-24T13:51:11Z</time>
      </trkpt>
      <trkpt lat="46.83996" lon="4.7362">
        <ele>302</ele>
        <time>2012-03-24T13:51:15Z</time>
      </trkpt>
      <trkpt lat="46.84003" lon="4.73619">
        <ele>302</ele>
        <time>2012-03-24T13:51:17Z</time>
      </trkpt>
      <trkpt lat="46.8402" lon="4.73614">
        <ele>302.5</ele>
        <time>2012-03-24T13:51:23Z</time>
      </trkpt>
      <trkpt lat="46.84037" lon="4.73616">
        <ele>303.5</ele>
        <time>2012-03-24T13:51:29Z</time>
      </trkpt>
      <trkpt lat="46.84042" lon="4.73617">
        <ele>303.5</ele>
        <time>2012-03-24T13:51:31Z</time>
      </trkpt>
      <trkpt lat="46.84052" lon="4.73619">
        <ele>303.5</ele>
        <time>2012-03-24T13:51:35Z</time>
      </trkpt>
      <trkpt lat="46.84057" lon="4.73619">
        <ele>304.5</ele>
        <time>2012-03-24T13:51:37Z</time>
      </trkpt>
      <trkpt lat="46.84067" lon="4.7362">
        <ele>304.5</ele>
        <time>2012-03-24T13:51:41Z</time>
      </trkpt>
      <trkpt lat="46.84072" lon="4.73622">
        <ele>305</ele>
        <time>2012-03-24T13:51:43Z</time>
      </trkpt>
      <trkpt lat="46.84077" lon="4.73622">
        <ele>305.5</ele>
        <time>2012-03-24T13:51:45Z</time>
      </trkpt>
      <trkpt lat="46.84087" lon="4.73621">
        <ele>306</ele>
        <time>2012-03-24T13:51:49Z</time>
      </trkpt>
      <trkpt lat="46.84091" lon="4.73621">
        <ele>306</ele>
        <time>2012-03-24T13:51:51Z</time>
      </trkpt>
      <trkpt lat="46.84096" lon="4.73621">
        <ele>306.5</ele>
        <time>2012-03-24T13:51:53Z</time>
      </trkpt>
      <trkpt lat="46.84105" lon="4.7362">
        <ele>306.5</ele>
        <time>2012-03-24T13:51:57Z</time>
      </trkpt>
      <trkpt lat="46.8411" lon="4.73619">
        <ele>306.5</ele>
        <time>2012-03-24T13:51:59Z</time>
      </trkpt>
      <trkpt lat="46.84115" lon="4.73619">
        <ele>307</ele>
        <time>2012-03-24T13:52:01Z</time>
      </trkpt>
      <trkpt lat="46.84125" lon="4.73617">
        <ele>307.5</ele>
        <time>2012-03-24T13:52:05Z</time>
      </trkpt>
      <trkpt lat="46.8413" lon="4.73617">
        <ele>308</ele>
        <time>2012-03-24T13:52:07Z</time>
      </trkpt>
      <trkpt lat="46.84134" lon="4.73616">
        <ele>308</ele>
        <time>2012-03-24T13:52:09Z</time>
      </trkpt>
      <trkpt lat="46.84143" lon="4.73613">
        <ele>309</ele>
        <time>2012-03-24T13:52:13Z</time>
      </trkpt>
      <trkpt lat="46.84148" lon="4.73612">
        <ele>309.5</ele>
        <time>2012-03-24T13:52:15Z</time>
      </trkpt>
      <trkpt lat="46.84153" lon="4.73612">
        <ele>310</ele>
        <time>2012-03-24T13:52:17Z</time>
      </trkpt>
      <trkpt lat="46.84166" lon="4.7361">
        <ele>311.5</ele>
        <time>2012-03-24T13:52:23Z</time>
      </trkpt>
      <trkpt lat="46.84171" lon="4.7361">
        <ele>312</ele>
        <time>2012-03-24T13:52:25Z</time>
      </trkpt>
      <trkpt lat="46.84179" lon="4.73608">
        <ele>312.5</ele>
        <time>2012-03-24T13:52:29Z</time>
      </trkpt>
      <trkpt lat="46.84186" lon="4.73608">
        <ele>313.5</ele>
        <time>2012-03-24T13:52:33Z</time>
      </trkpt>
      <trkpt lat="46.84198" lon="4.73608">
        <ele>314.5</ele>
        <time>2012-03-24T13:52:39Z</time>
      </trkpt>
      <trkpt lat="46.84205" lon="4.73611">
        <ele>315.5</ele>
        <time>2012-03-24T13:52:43Z</time>
      </trkpt>
      <trkpt lat="46.84218" lon="4.73598">
        <ele>316.5</ele>
        <time>2012-03-24T13:52:53Z</time>
      </trkpt>
      <trkpt lat="46.84223" lon="4.73591">
        <ele>317.5</ele>
        <time>2012-03-24T13:52:57Z</time>
      </trkpt>
      <trkpt lat="46.84227" lon="4.73582">
        <ele>318.5</ele>
        <time>2012-03-24T13:53:01Z</time>
      </trkpt>
      <trkpt lat="46.84233" lon="4.73571">
        <ele>320</ele>
        <time>2012-03-24T13:53:07Z</time>
      </trkpt>
      <trkpt lat="46.84235" lon="4.73567">
        <ele>320.5</ele>
        <time>2012-03-24T13:53:09Z</time>
      </trkpt>
      <trkpt lat="46.84242" lon="4.73559">
        <ele>321.5</ele>
        <time>2012-03-24T13:53:15Z</time>
      </trkpt>
      <trkpt lat="46.84246" lon="4.73553">
        <ele>323</ele>
        <time>2012-03-24T13:53:19Z</time>
      </trkpt>
      <trkpt lat="46.84248" lon="4.73549">
        <ele>323.5</ele>
        <time>2012-03-24T13:53:21Z</time>
      </trkpt>
      <trkpt lat="46.84255" lon="4.73541">
        <ele>325</ele>
        <time>2012-03-24T13:53:27Z</time>
      </trkpt>
      <trkpt lat="46.84257" lon="4.73539">
        <ele>326</ele>
        <time>2012-03-24T13:53:29Z</time>
      </trkpt>
      <trkpt lat="46.8426" lon="4.73532">
        <ele>326.5</ele>
        <time>2012-03-24T13:53:33Z</time>
      </trkpt>
      <trkpt lat="46.84267" lon="4.7352">
        <ele>327</ele>
        <time>2012-03-24T13:53:39Z</time>
      </trkpt>
      <trkpt lat="46.8427" lon="4.73512">
        <ele>327.5</ele>
        <time>2012-03-24T13:53:43Z</time>
      </trkpt>
      <trkpt lat="46.84274" lon="4.735">
        <ele>329</ele>
        <time>2012-03-24T13:53:49Z</time>
      </trkpt>
      <trkpt lat="46.84276" lon="4.73492">
        <ele>329.5</ele>
        <time>2012-03-24T13:53:53Z</time>
      </trkpt>
      <trkpt lat="46.84281" lon="4.73478">
        <ele>332.5</ele>
        <time>2012-03-24T13:54:01Z</time>
      </trkpt>
      <trkpt lat="46.84283" lon="4.73472">
        <ele>333.5</ele>
        <time>2012-03-24T13:54:05Z</time>
      </trkpt>
      <trkpt lat="46.84285" lon="4.73468">
        <ele>333.5</ele>
        <time>2012-03-24T13:54:07Z</time>
      </trkpt>
      <trkpt lat="46.8429" lon="4.73459">
        <ele>336</ele>
        <time>2012-03-24T13:54:13Z</time>
      </trkpt>
      <trkpt lat="46.84294" lon="4.73451">
        <ele>336.5</ele>
        <time>2012-03-24T13:54:17Z</time>
      </trkpt>
      <trkpt lat="46.84299" lon="4.73443">
        <ele>337</ele>
        <time>2012-03-24T13:54:21Z</time>
      </trkpt>
      <trkpt lat="46.84304" lon="4.73436">
        <ele>337.5</ele>
        <time>2012-03-24T13:54:25Z</time>
      </trkpt>
      <trkpt lat="46.84309" lon="4.73427">
        <ele>338.5</ele>
        <time>2012-03-24T13:54:29Z</time>
      </trkpt>
      <trkpt lat="46.84312" lon="4.73422">
        <ele>338</ele>
        <time>2012-03-24T13:54:31Z</time>
      </trkpt>
      <trkpt lat="46.84319" lon="4.7341">
        <ele>338.5</ele>
        <time>2012-03-24T13:54:37Z</time>
      </trkpt>
      <trkpt lat="46.84324" lon="4.73401">
        <ele>336</ele>
        <time>2012-03-24T13:54:41Z</time>
      </trkpt>
      <trkpt lat="46.84326" lon="4.7339">
        <ele>335.5</ele>
        <time>2012-03-24T13:54:47Z</time>
      </trkpt>
      <trkpt lat="46.84322" lon="4.73384">
        <ele>338</ele>
        <time>2012-03-24T13:54:51Z</time>
      </trkpt>
      <trkpt lat="46.84317" lon="4.73376">
        <ele>339.5</ele>
        <time>2012-03-24T13:54:55Z</time>
      </trkpt>
      <trkpt lat="46.84314" lon="4.73373">
        <ele>341</ele>
        <time>2012-03-24T13:54:59Z</time>
      </trkpt>
      <trkpt lat="46.84311" lon="4.73371">
        <ele>342.5</ele>
        <time>2012-03-24T13:55:01Z</time>
      </trkpt>
      <trkpt lat="46.84306" lon="4.73364">
        <ele>343.5</ele>
        <time>2012-03-24T13:55:05Z</time>
      </trkpt>
      <trkpt lat="46.843" lon="4.73355">
        <ele>345</ele>
        <time>2012-03-24T13:55:11Z</time>
      </trkpt>
      <trkpt lat="46.84298" lon="4.73347">
        <ele>345.5</ele>
        <time>2012-03-24T13:55:15Z</time>
      </trkpt>
      <trkpt lat="46.84296" lon="4.73342">
        <ele>346</ele>
        <time>2012-03-24T13:55:17Z</time>
      </trkpt>
      <trkpt lat="46.84291" lon="4.73328">
        <ele>346</ele>
        <time>2012-03-24T13:55:23Z</time>
      </trkpt>
      <trkpt lat="46.84286" lon="4.7332">
        <ele>347</ele>
        <time>2012-03-24T13:55:27Z</time>
      </trkpt>
      <trkpt lat="46.8428" lon="4.73308">
        <ele>347.5</ele>
        <time>2012-03-24T13:55:33Z</time>
      </trkpt>
      <trkpt lat="46.84273" lon="4.73302">
        <ele>349</ele>
        <time>2012-03-24T13:55:37Z</time>
      </trkpt>
      <trkpt lat="46.84268" lon="4.73287">
        <ele>349</ele>
        <time>2012-03-24T13:55:43Z</time>
      </trkpt>
      <trkpt lat="46.84268" lon="4.73279">
        <ele>349</ele>
        <time>2012-03-24T13:55:47Z</time>
      </trkpt>
      <trkpt lat="46.84273" lon="4.73266">
        <ele>348.5</ele>
        <time>2012-03-24T13:55:53Z</time>
      </trkpt>
      <trkpt lat="46.84277" lon="4.73256">
        <ele>348</ele>
        <time>2012-03-24T13:55:57Z</time>
      </trkpt>
      <trkpt lat="46.84284" lon="4.73242">
        <ele>348.5</ele>
        <time>2012-03-24T13:56:03Z</time>
      </trkpt>
      <trkpt lat="46.84294" lon="4.73227">
        <ele>349.5</ele>
        <time>2012-03-24T13:56:11Z</time>
      </trkpt>
      <trkpt lat="46.84305" lon="4.73211">
        <ele>351</ele>
        <time>2012-03-24T13:56:19Z</time>
      </trkpt>
      <trkpt lat="46.84313" lon="4.73197">
        <ele>351.5</ele>
        <time>2012-03-24T13:56:25Z</time>
      </trkpt>
      <trkpt lat="46.84314" lon="4.73191">
        <ele>351</ele>
        <time>2012-03-24T13:56:27Z</time>
      </trkpt>
      <trkpt lat="46.84321" lon="4.73178">
        <ele>351.5</ele>
        <time>2012-03-24T13:56:33Z</time>
      </trkpt>
      <trkpt lat="46.84329" lon="4.73167">
        <ele>350.5</ele>
        <time>2012-03-24T13:56:38Z</time>
      </trkpt>
      <trkpt lat="46.84332" lon="4.73162">
        <ele>350.5</ele>
        <time>2012-03-24T13:56:40Z</time>
      </trkpt>
      <trkpt lat="46.84335" lon="4.73158">
        <ele>351</ele>
        <time>2012-03-24T13:56:42Z</time>
      </trkpt>
      <trkpt lat="46.84338" lon="4.73154">
        <ele>351.5</ele>
        <time>2012-03-24T13:56:44Z</time>
      </trkpt>
      <trkpt lat="46.84346" lon="4.73137">
        <ele>350</ele>
        <time>2012-03-24T13:56:50Z</time>
      </trkpt>
      <trkpt lat="46.84355" lon="4.73117">
        <ele>352</ele>
        <time>2012-03-24T13:57:00Z</time>
      </trkpt>
      <trkpt lat="46.84362" lon="4.731">
        <ele>353.5</ele>
        <time>2012-03-24T13:57:08Z</time>
      </trkpt>
      <trkpt lat="46.84372" lon="4.73082">
        <ele>354.5</ele>
        <time>2012-03-24T13:57:16Z</time>
      </trkpt>
      <trkpt lat="46.84378" lon="4.73068">
        <ele>355</ele>
        <time>2012-03-24T13:57:22Z</time>
      </trkpt>
      <trkpt lat="46.8438" lon="4.73064">
        <ele>354.5</ele>
        <time>2012-03-24T13:57:24Z</time>
      </trkpt>
      <trkpt lat="46.84389" lon="4.73047">
        <ele>355.5</ele>
        <time>2012-03-24T13:57:32Z</time>
      </trkpt>
      <trkpt lat="46.84392" lon="4.73043">
        <ele>355</ele>
        <time>2012-03-24T13:57:34Z</time>
      </trkpt>
      <trkpt lat="46.84398" lon="4.73029">
        <ele>354.5</ele>
        <time>2012-03-24T13:57:40Z</time>
      </trkpt>
      <trkpt lat="46.84402" lon="4.7302">
        <ele>355.5</ele>
        <time>2012-03-24T13:57:44Z</time>
      </trkpt>
      <trkpt lat="46.8441" lon="4.73006">
        <ele>356</ele>
        <time>2012-03-24T13:57:50Z</time>
      </trkpt>
      <trkpt lat="46.84414" lon="4.72999">
        <ele>357.5</ele>
        <time>2012-03-24T13:57:54Z</time>
      </trkpt>
      <trkpt lat="46.84422" lon="4.72987">
        <ele>358.5</ele>
        <time>2012-03-24T13:58:00Z</time>
      </trkpt>
      <trkpt lat="46.84427" lon="4.72979">
        <ele>359</ele>
        <time>2012-03-24T13:58:04Z</time>
      </trkpt>
      <trkpt lat="46.84432" lon="4.72972">
        <ele>361</ele>
        <time>2012-03-24T13:58:08Z</time>
      </trkpt>
      <trkpt lat="46.84446" lon="4.72952">
        <ele>362.5</ele>
        <time>2012-03-24T13:58:18Z</time>
      </trkpt>
      <trkpt lat="46.84451" lon="4.72942">
        <ele>362.5</ele>
        <time>2012-03-24T13:58:22Z</time>
      </trkpt>
      <trkpt lat="46.84454" lon="4.72938">
        <ele>362.5</ele>
        <time>2012-03-24T13:58:24Z</time>
      </trkpt>
      <trkpt lat="46.84456" lon="4.72933">
        <ele>361.5</ele>
        <time>2012-03-24T13:58:26Z</time>
      </trkpt>
      <trkpt lat="46.84465" lon="4.72921">
        <ele>362.5</ele>
        <time>2012-03-24T13:58:32Z</time>
      </trkpt>
      <trkpt lat="46.84469" lon="4.72912">
        <ele>362.5</ele>
        <time>2012-03-24T13:58:36Z</time>
      </trkpt>
      <trkpt lat="46.84477" lon="4.72896">
        <ele>363</ele>
        <time>2012-03-24T13:58:44Z</time>
      </trkpt>
      <trkpt lat="46.84479" lon="4.72892">
        <ele>363</ele>
        <time>2012-03-24T13:58:46Z</time>
      </trkpt>
      <trkpt lat="46.84487" lon="4.72878">
        <ele>363.5</ele>
        <time>2012-03-24T13:58:51Z</time>
      </trkpt>
      <trkpt lat="46.84493" lon="4.72872">
        <ele>363.5</ele>
        <time>2012-03-24T13:58:55Z</time>
      </trkpt>
      <trkpt lat="46.84504" lon="4.72868">
        <ele>363.5</ele>
        <time>2012-03-24T13:59:01Z</time>
      </trkpt>
      <trkpt lat="46.84509" lon="4.72867">
        <ele>364</ele>
        <time>2012-03-24T13:59:03Z</time>
      </trkpt>
      <trkpt lat="46.84513" lon="4.72866">
        <ele>364.5</ele>
        <time>2012-03-24T13:59:05Z</time>
      </trkpt>
      <trkpt lat="46.84528" lon="4.72861">
        <ele>366.5</ele>
        <time>2012-03-24T13:59:13Z</time>
      </trkpt>
      <trkpt lat="46.84538" lon="4.72857">
        <ele>366.5</ele>
        <time>2012-03-24T13:59:18Z</time>
      </trkpt>
      <trkpt lat="46.84544" lon="4.72851">
        <ele>366.5</ele>
        <time>2012-03-24T13:59:22Z</time>
      </trkpt>
      <trkpt lat="46.84557" lon="4.72845">
        <ele>368.5</ele>
        <time>2012-03-24T13:59:30Z</time>
      </trkpt>
      <trkpt lat="46.84568" lon="4.72841">
        <ele>368.5</ele>
        <time>2012-03-24T13:59:36Z</time>
      </trkpt>
      <trkpt lat="46.8458" lon="4.72834">
        <ele>372</ele>
        <time>2012-03-24T13:59:44Z</time>
      </trkpt>
      <trkpt lat="46.84584" lon="4.72832">
        <ele>372</ele>
        <time>2012-03-24T13:59:47Z</time>
      </trkpt>
      <trkpt lat="46.8459" lon="4.72828">
        <ele>372</ele>
        <time>2012-03-24T13:59:51Z</time>
      </trkpt>
      <trkpt lat="46.84593" lon="4.72826">
        <ele>372</ele>
        <time>2012-03-24T13:59:53Z</time>
      </trkpt>
      <trkpt lat="46.84595" lon="4.72823">
        <ele>372.5</ele>
        <time>2012-03-24T13:59:54Z</time>
      </trkpt>
      <trkpt lat="46.84598" lon="4.72821">
        <ele>372.5</ele>
        <time>2012-03-24T13:59:56Z</time>
      </trkpt>
      <trkpt lat="46.84602" lon="4.72819">
        <ele>372.5</ele>
        <time>2012-03-24T13:59:58Z</time>
      </trkpt>
      <trkpt lat="46.84617" lon="4.72813">
        <ele>376</ele>
        <time>2012-03-24T14:00:09Z</time>
      </trkpt>
      <trkpt lat="46.84627" lon="4.7281">
        <ele>377</ele>
        <time>2012-03-24T14:00:15Z</time>
      </trkpt>
      <trkpt lat="46.84638" lon="4.72812">
        <ele>382</ele>
        <time>2012-03-24T14:00:20Z</time>
      </trkpt>
      <trkpt lat="46.84656" lon="4.72809">
        <ele>385</ele>
        <time>2012-03-24T14:00:30Z</time>
      </trkpt>
      <trkpt lat="46.84672" lon="4.72802">
        <ele>383.5</ele>
        <time>2012-03-24T14:00:38Z</time>
      </trkpt>
      <trkpt lat="46.84676" lon="4.72801">
        <ele>384.5</ele>
        <time>2012-03-24T14:00:40Z</time>
      </trkpt>
      <trkpt lat="46.84698" lon="4.72801">
        <ele>388.5</ele>
        <time>2012-03-24T14:00:50Z</time>
      </trkpt>
      <trkpt lat="46.84709" lon="4.72798">
        <ele>390.5</ele>
        <time>2012-03-24T14:00:56Z</time>
      </trkpt>
      <trkpt lat="46.84716" lon="4.72799">
        <ele>391.5</ele>
        <time>2012-03-24T14:00:58Z</time>
      </trkpt>
      <trkpt lat="46.84738" lon="4.72794">
        <ele>390.5</ele>
        <time>2012-03-24T14:01:02Z</time>
      </trkpt>
      <trkpt lat="46.84753" lon="4.72784">
        <ele>386.5</ele>
        <time>2012-03-24T14:01:04Z</time>
      </trkpt>
      <trkpt lat="46.84772" lon="4.72743">
        <ele>383.5</ele>
        <time>2012-03-24T14:01:08Z</time>
      </trkpt>
      <trkpt lat="46.84788" lon="4.72703">
        <ele>379</ele>
        <time>2012-03-24T14:01:12Z</time>
      </trkpt>
      <trkpt lat="46.84798" lon="4.72677">
        <ele>378</ele>
        <time>2012-03-24T14:01:15Z</time>
      </trkpt>
      <trkpt lat="46.84801" lon="4.72669">
        <ele>377.5</ele>
        <time>2012-03-24T14:01:16Z</time>
      </trkpt>
      <trkpt lat="46.84816" lon="4.72627">
        <ele>376.5</ele>
        <time>2012-03-24T14:01:21Z</time>
      </trkpt>
      <trkpt lat="46.84829" lon="4.72592">
        <ele>376</ele>
        <time>2012-03-24T14:01:25Z</time>
      </trkpt>
      <trkpt lat="46.84847" lon="4.72544">
        <ele>376</ele>
        <time>2012-03-24T14:01:31Z</time>
      </trkpt>
      <trkpt lat="46.84857" lon="4.72514">
        <ele>376.5</ele>
        <time>2012-03-24T14:01:35Z</time>
      </trkpt>
      <trkpt lat="46.84863" lon="4.72483">
        <ele>376.5</ele>
        <time>2012-03-24T14:01:39Z</time>
      </trkpt>
      <trkpt lat="46.84868" lon="4.72453">
        <ele>376</ele>
        <time>2012-03-24T14:01:43Z</time>
      </trkpt>
      <trkpt lat="46.84866" lon="4.72394">
        <ele>376.5</ele>
        <time>2012-03-24T14:01:51Z</time>
      </trkpt>
      <trkpt lat="46.84865" lon="4.72365">
        <ele>376.5</ele>
        <time>2012-03-24T14:01:55Z</time>
      </trkpt>
      <trkpt lat="46.84864" lon="4.72337">
        <ele>376.5</ele>
        <time>2012-03-24T14:01:59Z</time>
      </trkpt>
      <trkpt lat="46.84865" lon="4.7231">
        <ele>376.5</ele>
        <time>2012-03-24T14:02:03Z</time>
      </trkpt>
      <trkpt lat="46.84864" lon="4.72283">
        <ele>376.5</ele>
        <time>2012-03-24T14:02:07Z</time>
      </trkpt>
      <trkpt lat="46.84857" lon="4.72257">
        <ele>376.5</ele>
        <time>2012-03-24T14:02:11Z</time>
      </trkpt>
      <trkpt lat="46.84847" lon="4.72237">
        <ele>377.5</ele>
        <time>2012-03-24T14:02:15Z</time>
      </trkpt>
      <trkpt lat="46.84839" lon="4.72219">
        <ele>379</ele>
        <time>2012-03-24T14:02:19Z</time>
      </trkpt>
      <trkpt lat="46.84832" lon="4.72201">
        <ele>380</ele>
        <time>2012-03-24T14:02:23Z</time>
      </trkpt>
      <trkpt lat="46.84825" lon="4.7218">
        <ele>381</ele>
        <time>2012-03-24T14:02:27Z</time>
      </trkpt>
      <trkpt lat="46.84818" lon="4.72161">
        <ele>381</ele>
        <time>2012-03-24T14:02:31Z</time>
      </trkpt>
      <trkpt lat="46.8481" lon="4.72143">
        <ele>381.5</ele>
        <time>2012-03-24T14:02:35Z</time>
      </trkpt>
      <trkpt lat="46.84801" lon="4.72125">
        <ele>382</ele>
        <time>2012-03-24T14:02:39Z</time>
      </trkpt>
      <trkpt lat="46.84793" lon="4.72108">
        <ele>382.5</ele>
        <time>2012-03-24T14:02:43Z</time>
      </trkpt>
      <trkpt lat="46.84786" lon="4.72091">
        <ele>382.5</ele>
        <time>2012-03-24T14:02:47Z</time>
      </trkpt>
      <trkpt lat="46.84817" lon="4.72098">
        <ele>378</ele>
        <time>2012-03-24T14:02:55Z</time>
      </trkpt>
      <trkpt lat="46.84846" lon="4.72113">
        <ele>376</ele>
        <time>2012-03-24T14:03:00Z</time>
      </trkpt>
      <trkpt lat="46.84865" lon="4.72126">
        <ele>374.5</ele>
        <time>2012-03-24T14:03:05Z</time>
      </trkpt>
      <trkpt lat="46.84883" lon="4.72135">
        <ele>373.5</ele>
        <time>2012-03-24T14:03:08Z</time>
      </trkpt>
      <trkpt lat="46.84901" lon="4.72144">
        <ele>372</ele>
        <time>2012-03-24T14:03:13Z</time>
      </trkpt>
      <trkpt lat="46.8492" lon="4.72147">
        <ele>370.5</ele>
        <time>2012-03-24T14:03:17Z</time>
      </trkpt>
      <trkpt lat="46.8494" lon="4.7215">
        <ele>369.5</ele>
        <time>2012-03-24T14:03:21Z</time>
      </trkpt>
      <trkpt lat="46.84963" lon="4.72157">
        <ele>368.5</ele>
        <time>2012-03-24T14:03:24Z</time>
      </trkpt>
      <trkpt lat="46.84985" lon="4.72167">
        <ele>368</ele>
        <time>2012-03-24T14:03:29Z</time>
      </trkpt>
      <trkpt lat="46.85006" lon="4.72178">
        <ele>367.5</ele>
        <time>2012-03-24T14:03:32Z</time>
      </trkpt>
      <trkpt lat="46.85027" lon="4.72185">
        <ele>367</ele>
        <time>2012-03-24T14:03:36Z</time>
      </trkpt>
      <trkpt lat="46.8505" lon="4.72191">
        <ele>366.5</ele>
        <time>2012-03-24T14:03:41Z</time>
      </trkpt>
      <trkpt lat="46.85071" lon="4.72198">
        <ele>366</ele>
        <time>2012-03-24T14:03:45Z</time>
      </trkpt>
      <trkpt lat="46.85092" lon="4.72202">
        <ele>365</ele>
        <time>2012-03-24T14:03:48Z</time>
      </trkpt>
      <trkpt lat="46.85102" lon="4.72183">
        <ele>364</ele>
        <time>2012-03-24T14:03:53Z</time>
      </trkpt>
      <trkpt lat="46.85111" lon="4.72146">
        <ele>360.5</ele>
        <time>2012-03-24T14:04:01Z</time>
      </trkpt>
      <trkpt lat="46.85122" lon="4.72116">
        <ele>358.5</ele>
        <time>2012-03-24T14:04:04Z</time>
      </trkpt>
      <trkpt lat="46.85138" lon="4.7208">
        <ele>354.5</ele>
        <time>2012-03-24T14:04:08Z</time>
      </trkpt>
      <trkpt lat="46.85139" lon="4.72044">
        <ele>353.5</ele>
        <time>2012-03-24T14:04:12Z</time>
      </trkpt>
      <trkpt lat="46.8515" lon="4.72005">
        <ele>351.5</ele>
        <time>2012-03-24T14:04:17Z</time>
      </trkpt>
      <trkpt lat="46.85151" lon="4.71978">
        <ele>350.5</ele>
        <time>2012-03-24T14:04:20Z</time>
      </trkpt>
      <trkpt lat="46.85152" lon="4.71971">
        <ele>352.5</ele>
        <time>2012-03-24T14:04:36Z</time>
      </trkpt>
      <trkpt lat="46.85157" lon="4.71957">
        <ele>351</ele>
        <time>2012-03-24T14:04:40Z</time>
      </trkpt>
      <trkpt lat="46.85163" lon="4.71939">
        <ele>348.5</ele>
        <time>2012-03-24T14:04:45Z</time>
      </trkpt>
      <trkpt lat="46.85166" lon="4.71929">
        <ele>348</ele>
        <time>2012-03-24T14:04:47Z</time>
      </trkpt>
      <trkpt lat="46.8517" lon="4.71918">
        <ele>347</ele>
        <time>2012-03-24T14:04:49Z</time>
      </trkpt>
      <trkpt lat="46.85172" lon="4.71906">
        <ele>346</ele>
        <time>2012-03-24T14:04:50Z</time>
      </trkpt>
      <trkpt lat="46.85175" lon="4.71893">
        <ele>346</ele>
        <time>2012-03-24T14:04:52Z</time>
      </trkpt>
      <trkpt lat="46.8518" lon="4.7188">
        <ele>345.5</ele>
        <time>2012-03-24T14:04:54Z</time>
      </trkpt>
      <trkpt lat="46.85205" lon="4.71827">
        <ele>343</ele>
        <time>2012-03-24T14:05:03Z</time>
      </trkpt>
      <trkpt lat="46.85222" lon="4.71795">
        <ele>340</ele>
        <time>2012-03-24T14:05:07Z</time>
      </trkpt>
      <trkpt lat="46.85241" lon="4.71766">
        <ele>337.5</ele>
        <time>2012-03-24T14:05:10Z</time>
      </trkpt>
      <trkpt lat="46.85253" lon="4.71759">
        <ele>333.5</ele>
        <time>2012-03-24T14:05:14Z</time>
      </trkpt>
      <trkpt lat="46.85266" lon="4.71759">
        <ele>325.5</ele>
        <time>2012-03-24T14:05:20Z</time>
      </trkpt>
      <trkpt lat="46.85275" lon="4.71763">
        <ele>326</ele>
        <time>2012-03-24T14:05:24Z</time>
      </trkpt>
      <trkpt lat="46.8528" lon="4.71757">
        <ele>324.5</ele>
        <time>2012-03-24T14:05:28Z</time>
      </trkpt>
      <trkpt lat="46.85291" lon="4.71744">
        <ele>324</ele>
        <time>2012-03-24T14:05:34Z</time>
      </trkpt>
      <trkpt lat="46.85291" lon="4.71734">
        <ele>321.5</ele>
        <time>2012-03-24T14:05:36Z</time>
      </trkpt>
      <trkpt lat="46.85293" lon="4.71717">
        <ele>324</ele>
        <time>2012-03-24T14:05:40Z</time>
      </trkpt>
      <trkpt lat="46.85292" lon="4.71709">
        <ele>324.5</ele>
        <time>2012-03-24T14:05:42Z</time>
      </trkpt>
      <trkpt lat="46.85291" lon="4.71702">
        <ele>325.5</ele>
        <time>2012-03-24T14:05:44Z</time>
      </trkpt>
      <trkpt lat="46.8529" lon="4.71683">
        <ele>326.5</ele>
        <time>2012-03-24T14:05:48Z</time>
      </trkpt>
      <trkpt lat="46.85292" lon="4.71673">
        <ele>327.5</ele>
        <time>2012-03-24T14:05:50Z</time>
      </trkpt>
      <trkpt lat="46.85292" lon="4.71664">
        <ele>328</ele>
        <time>2012-03-24T14:05:52Z</time>
      </trkpt>
      <trkpt lat="46.85291" lon="4.71647">
        <ele>329.5</ele>
        <time>2012-03-24T14:05:56Z</time>
      </trkpt>
      <trkpt lat="46.8529" lon="4.71638">
        <ele>327.5</ele>
        <time>2012-03-24T14:05:58Z</time>
      </trkpt>
      <trkpt lat="46.85286" lon="4.716">
        <ele>325</ele>
        <time>2012-03-24T14:06:06Z</time>
      </trkpt>
      <trkpt lat="46.85286" lon="4.71588">
        <ele>324.5</ele>
        <time>2012-03-24T14:06:10Z</time>
      </trkpt>
      <trkpt lat="46.85294" lon="4.71581">
        <ele>322</ele>
        <time>2012-03-24T14:06:16Z</time>
      </trkpt>
      <trkpt lat="46.85305" lon="4.71571">
        <ele>320</ele>
        <time>2012-03-24T14:06:20Z</time>
      </trkpt>
      <trkpt lat="46.85315" lon="4.71566">
        <ele>318.5</ele>
        <time>2012-03-24T14:06:24Z</time>
      </trkpt>
      <trkpt lat="46.85319" lon="4.7156">
        <ele>318</ele>
        <time>2012-03-24T14:06:26Z</time>
      </trkpt>
      <trkpt lat="46.8532" lon="4.71552">
        <ele>314</ele>
        <time>2012-03-24T14:06:28Z</time>
      </trkpt>
      <trkpt lat="46.85324" lon="4.71528">
        <ele>313.5</ele>
        <time>2012-03-24T14:06:32Z</time>
      </trkpt>
      <trkpt lat="46.85326" lon="4.71516">
        <ele>314.5</ele>
        <time>2012-03-24T14:06:34Z</time>
      </trkpt>
      <trkpt lat="46.85327" lon="4.71504">
        <ele>315</ele>
        <time>2012-03-24T14:06:38Z</time>
      </trkpt>
      <trkpt lat="46.85325" lon="4.7148">
        <ele>318</ele>
        <time>2012-03-24T14:06:44Z</time>
      </trkpt>
      <trkpt lat="46.85325" lon="4.71463">
        <ele>316.5</ele>
        <time>2012-03-24T14:06:50Z</time>
      </trkpt>
      <trkpt lat="46.85327" lon="4.71455">
        <ele>316.5</ele>
        <time>2012-03-24T14:06:52Z</time>
      </trkpt>
      <trkpt lat="46.85332" lon="4.71432">
        <ele>315.5</ele>
        <time>2012-03-24T14:06:56Z</time>
      </trkpt>
      <trkpt lat="46.85334" lon="4.71415">
        <ele>314.5</ele>
        <time>2012-03-24T14:06:58Z</time>
      </trkpt>
      <trkpt lat="46.85336" lon="4.71395">
        <ele>314</ele>
        <time>2012-03-24T14:07:00Z</time>
      </trkpt>
      <trkpt lat="46.85348" lon="4.71356">
        <ele>311</ele>
        <time>2012-03-24T14:07:04Z</time>
      </trkpt>
      <trkpt lat="46.85392" lon="4.71324">
        <ele>310</ele>
        <time>2012-03-24T14:07:12Z</time>
      </trkpt>
      <trkpt lat="46.85404" lon="4.71331">
        <ele>313</ele>
        <time>2012-03-24T14:07:16Z</time>
      </trkpt>
      <trkpt lat="46.85413" lon="4.71341">
        <ele>312.5</ele>
        <time>2012-03-24T14:07:20Z</time>
      </trkpt>
      <trkpt lat="46.85418" lon="4.71348">
        <ele>312</ele>
        <time>2012-03-24T14:07:22Z</time>
      </trkpt>
      <trkpt lat="46.85423" lon="4.71357">
        <ele>311.5</ele>
        <time>2012-03-24T14:07:24Z</time>
      </trkpt>
      <trkpt lat="46.85433" lon="4.7138">
        <ele>311</ele>
        <time>2012-03-24T14:07:28Z</time>
      </trkpt>
      <trkpt lat="46.85437" lon="4.71392">
        <ele>311.5</ele>
        <time>2012-03-24T14:07:30Z</time>
      </trkpt>
      <trkpt lat="46.85446" lon="4.71417">
        <ele>310</ele>
        <time>2012-03-24T14:07:34Z</time>
      </trkpt>
      <trkpt lat="46.85459" lon="4.71441">
        <ele>309.5</ele>
        <time>2012-03-24T14:07:38Z</time>
      </trkpt>
      <trkpt lat="46.85475" lon="4.71449">
        <ele>309.5</ele>
        <time>2012-03-24T14:07:42Z</time>
      </trkpt>
      <trkpt lat="46.85487" lon="4.71435">
        <ele>312.5</ele>
        <time>2012-03-24T14:07:46Z</time>
      </trkpt>
      <trkpt lat="46.85493" lon="4.71419">
        <ele>315.5</ele>
        <time>2012-03-24T14:07:50Z</time>
      </trkpt>
      <trkpt lat="46.85503" lon="4.71408">
        <ele>317</ele>
        <time>2012-03-24T14:07:56Z</time>
      </trkpt>
      <trkpt lat="46.85517" lon="4.71414">
        <ele>317</ele>
        <time>2012-03-24T14:08:00Z</time>
      </trkpt>
      <trkpt lat="46.85524" lon="4.71418">
        <ele>317</ele>
        <time>2012-03-24T14:08:02Z</time>
      </trkpt>
      <trkpt lat="46.85531" lon="4.71424">
        <ele>316.5</ele>
        <time>2012-03-24T14:08:04Z</time>
      </trkpt>
      <trkpt lat="46.85544" lon="4.7144">
        <ele>316.5</ele>
        <time>2012-03-24T14:08:08Z</time>
      </trkpt>
      <trkpt lat="46.85549" lon="4.71448">
        <ele>316.5</ele>
        <time>2012-03-24T14:08:10Z</time>
      </trkpt>
      <trkpt lat="46.8556" lon="4.71465">
        <ele>316.5</ele>
        <time>2012-03-24T14:08:14Z</time>
      </trkpt>
      <trkpt lat="46.85569" lon="4.71481">
        <ele>316.5</ele>
        <time>2012-03-24T14:08:18Z</time>
      </trkpt>
      <trkpt lat="46.85579" lon="4.71496">
        <ele>316</ele>
        <time>2012-03-24T14:08:22Z</time>
      </trkpt>
      <trkpt lat="46.85596" lon="4.71508">
        <ele>315</ele>
        <time>2012-03-24T14:08:28Z</time>
      </trkpt>
      <trkpt lat="46.85608" lon="4.71489">
        <ele>316.5</ele>
        <time>2012-03-24T14:08:34Z</time>
      </trkpt>
      <trkpt lat="46.85615" lon="4.71476">
        <ele>317.5</ele>
        <time>2012-03-24T14:08:38Z</time>
      </trkpt>
      <trkpt lat="46.85619" lon="4.7147">
        <ele>318</ele>
        <time>2012-03-24T14:08:40Z</time>
      </trkpt>
      <trkpt lat="46.85628" lon="4.71457">
        <ele>319</ele>
        <time>2012-03-24T14:08:44Z</time>
      </trkpt>
      <trkpt lat="46.85632" lon="4.71452">
        <ele>319</ele>
        <time>2012-03-24T14:08:46Z</time>
      </trkpt>
      <trkpt lat="46.85636" lon="4.71446">
        <ele>319.5</ele>
        <time>2012-03-24T14:08:48Z</time>
      </trkpt>
      <trkpt lat="46.85644" lon="4.71435">
        <ele>320</ele>
        <time>2012-03-24T14:08:52Z</time>
      </trkpt>
      <trkpt lat="46.85648" lon="4.7143">
        <ele>320.5</ele>
        <time>2012-03-24T14:08:54Z</time>
      </trkpt>
      <trkpt lat="46.85656" lon="4.71421">
        <ele>322</ele>
        <time>2012-03-24T14:08:58Z</time>
      </trkpt>
      <trkpt lat="46.85659" lon="4.71416">
        <ele>322.5</ele>
        <time>2012-03-24T14:09:00Z</time>
      </trkpt>
      <trkpt lat="46.85666" lon="4.71405">
        <ele>323.5</ele>
        <time>2012-03-24T14:09:04Z</time>
      </trkpt>
      <trkpt lat="46.85673" lon="4.71398">
        <ele>324</ele>
        <time>2012-03-24T14:09:08Z</time>
      </trkpt>
      <trkpt lat="46.8568" lon="4.71391">
        <ele>325</ele>
        <time>2012-03-24T14:09:12Z</time>
      </trkpt>
      <trkpt lat="46.85684" lon="4.71387">
        <ele>325</ele>
        <time>2012-03-24T14:09:14Z</time>
      </trkpt>
      <trkpt lat="46.85688" lon="4.71383">
        <ele>325.5</ele>
        <time>2012-03-24T14:09:16Z</time>
      </trkpt>
      <trkpt lat="46.85694" lon="4.71376">
        <ele>326</ele>
        <time>2012-03-24T14:09:20Z</time>
      </trkpt>
      <trkpt lat="46.85697" lon="4.71372">
        <ele>326.5</ele>
        <time>2012-03-24T14:09:22Z</time>
      </trkpt>
      <trkpt lat="46.85701" lon="4.71368">
        <ele>327</ele>
        <time>2012-03-24T14:09:24Z</time>
      </trkpt>
      <trkpt lat="46.85707" lon="4.71361">
        <ele>328</ele>
        <time>2012-03-24T14:09:28Z</time>
      </trkpt>
      <trkpt lat="46.85709" lon="4.71358">
        <ele>328.5</ele>
        <time>2012-03-24T14:09:30Z</time>
      </trkpt>
      <trkpt lat="46.85712" lon="4.71355">
        <ele>329</ele>
        <time>2012-03-24T14:09:32Z</time>
      </trkpt>
      <trkpt lat="46.8572" lon="4.71345">
        <ele>330.5</ele>
        <time>2012-03-24T14:09:38Z</time>
      </trkpt>
      <trkpt lat="46.85723" lon="4.71341">
        <ele>331</ele>
        <time>2012-03-24T14:09:40Z</time>
      </trkpt>
      <trkpt lat="46.85725" lon="4.71338">
        <ele>331.5</ele>
        <time>2012-03-24T14:09:42Z</time>
      </trkpt>
      <trkpt lat="46.85739" lon="4.71325">
        <ele>333</ele>
        <time>2012-03-24T14:09:50Z</time>
      </trkpt>
      <trkpt lat="46.85742" lon="4.71322">
        <ele>333</ele>
        <time>2012-03-24T14:09:52Z</time>
      </trkpt>
      <trkpt lat="46.8575" lon="4.7131">
        <ele>334.5</ele>
        <time>2012-03-24T14:09:58Z</time>
      </trkpt>
      <trkpt lat="46.85754" lon="4.713">
        <ele>335</ele>
        <time>2012-03-24T14:10:02Z</time>
      </trkpt>
      <trkpt lat="46.85757" lon="4.71291">
        <ele>336</ele>
        <time>2012-03-24T14:10:06Z</time>
      </trkpt>
      <trkpt lat="46.85759" lon="4.71281">
        <ele>337.5</ele>
        <time>2012-03-24T14:10:10Z</time>
      </trkpt>
      <trkpt lat="46.85764" lon="4.71269">
        <ele>339</ele>
        <time>2012-03-24T14:10:16Z</time>
      </trkpt>
      <trkpt lat="46.85771" lon="4.7126">
        <ele>339.5</ele>
        <time>2012-03-24T14:10:20Z</time>
      </trkpt>
      <trkpt lat="46.85778" lon="4.71252">
        <ele>340</ele>
        <time>2012-03-24T14:10:24Z</time>
      </trkpt>
      <trkpt lat="46.85783" lon="4.71249">
        <ele>340</ele>
        <time>2012-03-24T14:10:26Z</time>
      </trkpt>
      <trkpt lat="46.85788" lon="4.71246">
        <ele>340.5</ele>
        <time>2012-03-24T14:10:28Z</time>
      </trkpt>
      <trkpt lat="46.85793" lon="4.71243">
        <ele>341</ele>
        <time>2012-03-24T14:10:30Z</time>
      </trkpt>
      <trkpt lat="46.85809" lon="4.71234">
        <ele>341</ele>
        <time>2012-03-24T14:10:36Z</time>
      </trkpt>
      <trkpt lat="46.85819" lon="4.71229">
        <ele>341.5</ele>
        <time>2012-03-24T14:10:40Z</time>
      </trkpt>
      <trkpt lat="46.85823" lon="4.71225">
        <ele>342</ele>
        <time>2012-03-24T14:10:42Z</time>
      </trkpt>
      <trkpt lat="46.85833" lon="4.71222">
        <ele>343.5</ele>
        <time>2012-03-24T14:10:46Z</time>
      </trkpt>
      <trkpt lat="46.85838" lon="4.71221">
        <ele>344</ele>
        <time>2012-03-24T14:10:48Z</time>
      </trkpt>
      <trkpt lat="46.85849" lon="4.71221">
        <ele>344</ele>
        <time>2012-03-24T14:10:52Z</time>
      </trkpt>
      <trkpt lat="46.85854" lon="4.71221">
        <ele>343.5</ele>
        <time>2012-03-24T14:10:54Z</time>
      </trkpt>
      <trkpt lat="46.85865" lon="4.71223">
        <ele>344</ele>
        <time>2012-03-24T14:10:58Z</time>
      </trkpt>
      <trkpt lat="46.8587" lon="4.71227">
        <ele>344.5</ele>
        <time>2012-03-24T14:11:00Z</time>
      </trkpt>
      <trkpt lat="46.85894" lon="4.71245">
        <ele>343.5</ele>
        <time>2012-03-24T14:11:06Z</time>
      </trkpt>
      <trkpt lat="46.85909" lon="4.71263">
        <ele>343.5</ele>
        <time>2012-03-24T14:11:10Z</time>
      </trkpt>
      <trkpt lat="46.85919" lon="4.71282">
        <ele>345</ele>
        <time>2012-03-24T14:11:14Z</time>
      </trkpt>
      <trkpt lat="46.85922" lon="4.713">
        <ele>346.5</ele>
        <time>2012-03-24T14:11:18Z</time>
      </trkpt>
      <trkpt lat="46.85921" lon="4.71309">
        <ele>347</ele>
        <time>2012-03-24T14:11:20Z</time>
      </trkpt>
      <trkpt lat="46.85919" lon="4.71321">
        <ele>347.5</ele>
        <time>2012-03-24T14:11:24Z</time>
      </trkpt>
      <trkpt lat="46.85921" lon="4.71328">
        <ele>347.5</ele>
        <time>2012-03-24T14:11:26Z</time>
      </trkpt>
      <trkpt lat="46.85921" lon="4.71347">
        <ele>348</ele>
        <time>2012-03-24T14:11:30Z</time>
      </trkpt>
      <trkpt lat="46.85919" lon="4.71355">
        <ele>348</ele>
        <time>2012-03-24T14:11:32Z</time>
      </trkpt>
      <trkpt lat="46.85918" lon="4.71364">
        <ele>348</ele>
        <time>2012-03-24T14:11:34Z</time>
      </trkpt>
      <trkpt lat="46.85918" lon="4.71378">
        <ele>348</ele>
        <time>2012-03-24T14:11:38Z</time>
      </trkpt>
      <trkpt lat="46.8592" lon="4.71385">
        <ele>348</ele>
        <time>2012-03-24T14:11:40Z</time>
      </trkpt>
      <trkpt lat="46.85924" lon="4.71395">
        <ele>348.5</ele>
        <time>2012-03-24T14:11:44Z</time>
      </trkpt>
      <trkpt lat="46.8593" lon="4.71403">
        <ele>349</ele>
        <time>2012-03-24T14:11:48Z</time>
      </trkpt>
      <trkpt lat="46.85939" lon="4.71404">
        <ele>350.5</ele>
        <time>2012-03-24T14:11:59Z</time>
      </trkpt>
      <trkpt lat="46.85952" lon="4.71401">
        <ele>353</ele>
        <time>2012-03-24T14:12:07Z</time>
      </trkpt>
      <trkpt lat="46.85959" lon="4.71399">
        <ele>354.5</ele>
        <time>2012-03-24T14:12:11Z</time>
      </trkpt>
      <trkpt lat="46.85962" lon="4.71399">
        <ele>354.5</ele>
        <time>2012-03-24T14:12:13Z</time>
      </trkpt>
      <trkpt lat="46.85972" lon="4.71396">
        <ele>356.5</ele>
        <time>2012-03-24T14:12:19Z</time>
      </trkpt>
      <trkpt lat="46.85978" lon="4.71395">
        <ele>357.5</ele>
        <time>2012-03-24T14:12:23Z</time>
      </trkpt>
      <trkpt lat="46.85988" lon="4.71391">
        <ele>359</ele>
        <time>2012-03-24T14:12:29Z</time>
      </trkpt>
      <trkpt lat="46.85991" lon="4.7139">
        <ele>359.5</ele>
        <time>2012-03-24T14:12:31Z</time>
      </trkpt>
      <trkpt lat="46.85997" lon="4.71388">
        <ele>360.5</ele>
        <time>2012-03-24T14:12:35Z</time>
      </trkpt>
      <trkpt lat="46.86003" lon="4.71387">
        <ele>361.5</ele>
        <time>2012-03-24T14:12:39Z</time>
      </trkpt>
      <trkpt lat="46.86009" lon="4.71384">
        <ele>362.5</ele>
        <time>2012-03-24T14:12:43Z</time>
      </trkpt>
      <trkpt lat="46.86012" lon="4.71383">
        <ele>363</ele>
        <time>2012-03-24T14:12:45Z</time>
      </trkpt>
      <trkpt lat="46.86022" lon="4.71378">
        <ele>363.5</ele>
        <time>2012-03-24T14:12:51Z</time>
      </trkpt>
      <trkpt lat="46.86028" lon="4.71377">
        <ele>364.5</ele>
        <time>2012-03-24T14:12:55Z</time>
      </trkpt>
      <trkpt lat="46.86044" lon="4.71374">
        <ele>366.5</ele>
        <time>2012-03-24T14:13:05Z</time>
      </trkpt>
      <trkpt lat="46.86053" lon="4.71378">
        <ele>367</ele>
        <time>2012-03-24T14:13:11Z</time>
      </trkpt>
      <trkpt lat="46.86059" lon="4.7138">
        <ele>367</ele>
        <time>2012-03-24T14:13:15Z</time>
      </trkpt>
      <trkpt lat="46.86069" lon="4.71382">
        <ele>369</ele>
        <time>2012-03-24T14:13:21Z</time>
      </trkpt>
      <trkpt lat="46.86075" lon="4.71382">
        <ele>370</ele>
        <time>2012-03-24T14:13:25Z</time>
      </trkpt>
      <trkpt lat="46.86087" lon="4.71386">
        <ele>371</ele>
        <time>2012-03-24T14:13:31Z</time>
      </trkpt>
      <trkpt lat="46.86093" lon="4.71394">
        <ele>371.5</ele>
        <time>2012-03-24T14:13:35Z</time>
      </trkpt>
      <trkpt lat="46.86099" lon="4.71402">
        <ele>372.5</ele>
        <time>2012-03-24T14:13:39Z</time>
      </trkpt>
      <trkpt lat="46.86105" lon="4.71408">
        <ele>374</ele>
        <time>2012-03-24T14:13:43Z</time>
      </trkpt>
      <trkpt lat="46.86108" lon="4.71411">
        <ele>374.5</ele>
        <time>2012-03-24T14:13:45Z</time>
      </trkpt>
      <trkpt lat="46.86114" lon="4.71418">
        <ele>375</ele>
        <time>2012-03-24T14:13:49Z</time>
      </trkpt>
      <trkpt lat="46.86118" lon="4.71421">
        <ele>375.5</ele>
        <time>2012-03-24T14:13:51Z</time>
      </trkpt>
      <trkpt lat="46.86121" lon="4.71425">
        <ele>376</ele>
        <time>2012-03-24T14:13:53Z</time>
      </trkpt>
      <trkpt lat="46.86124" lon="4.71428">
        <ele>376.5</ele>
        <time>2012-03-24T14:13:55Z</time>
      </trkpt>
      <trkpt lat="46.86134" lon="4.71437">
        <ele>377.5</ele>
        <time>2012-03-24T14:14:01Z</time>
      </trkpt>
      <trkpt lat="46.86141" lon="4.71443">
        <ele>378</ele>
        <time>2012-03-24T14:14:05Z</time>
      </trkpt>
      <trkpt lat="46.86152" lon="4.71453">
        <ele>379.5</ele>
        <time>2012-03-24T14:14:11Z</time>
      </trkpt>
      <trkpt lat="46.86167" lon="4.71467">
        <ele>381</ele>
        <time>2012-03-24T14:14:19Z</time>
      </trkpt>
      <trkpt lat="46.86175" lon="4.71474">
        <ele>381.5</ele>
        <time>2012-03-24T14:14:23Z</time>
      </trkpt>
      <trkpt lat="46.86179" lon="4.71478">
        <ele>382</ele>
        <time>2012-03-24T14:14:25Z</time>
      </trkpt>
      <trkpt lat="46.86183" lon="4.71481">
        <ele>382</ele>
        <time>2012-03-24T14:14:27Z</time>
      </trkpt>
      <trkpt lat="46.86191" lon="4.71487">
        <ele>382.5</ele>
        <time>2012-03-24T14:14:31Z</time>
      </trkpt>
      <trkpt lat="46.86195" lon="4.71491">
        <ele>383</ele>
        <time>2012-03-24T14:14:33Z</time>
      </trkpt>
      <trkpt lat="46.86199" lon="4.71494">
        <ele>383.5</ele>
        <time>2012-03-24T14:14:35Z</time>
      </trkpt>
      <trkpt lat="46.86208" lon="4.71499">
        <ele>384</ele>
        <time>2012-03-24T14:14:39Z</time>
      </trkpt>
      <trkpt lat="46.86213" lon="4.71503">
        <ele>384</ele>
        <time>2012-03-24T14:14:41Z</time>
      </trkpt>
      <trkpt lat="46.86217" lon="4.71506">
        <ele>384.5</ele>
        <time>2012-03-24T14:14:43Z</time>
      </trkpt>
      <trkpt lat="46.86231" lon="4.71515">
        <ele>385.5</ele>
        <time>2012-03-24T14:14:49Z</time>
      </trkpt>
      <trkpt lat="46.86235" lon="4.71518">
        <ele>386</ele>
        <time>2012-03-24T14:14:51Z</time>
      </trkpt>
      <trkpt lat="46.86244" lon="4.71524">
        <ele>386</ele>
        <time>2012-03-24T14:14:55Z</time>
      </trkpt>
      <trkpt lat="46.86254" lon="4.7153">
        <ele>386</ele>
        <time>2012-03-24T14:14:59Z</time>
      </trkpt>
      <trkpt lat="46.86264" lon="4.71534">
        <ele>386.5</ele>
        <time>2012-03-24T14:15:03Z</time>
      </trkpt>
      <trkpt lat="46.8627" lon="4.71537">
        <ele>386.5</ele>
        <time>2012-03-24T14:15:05Z</time>
      </trkpt>
      <trkpt lat="46.86275" lon="4.7154">
        <ele>387</ele>
        <time>2012-03-24T14:15:07Z</time>
      </trkpt>
      <trkpt lat="46.86285" lon="4.71546">
        <ele>387.5</ele>
        <time>2012-03-24T14:15:11Z</time>
      </trkpt>
      <trkpt lat="46.86291" lon="4.71548">
        <ele>387.5</ele>
        <time>2012-03-24T14:15:13Z</time>
      </trkpt>
      <trkpt lat="46.86302" lon="4.71553">
        <ele>388</ele>
        <time>2012-03-24T14:15:17Z</time>
      </trkpt>
      <trkpt lat="46.86309" lon="4.71555">
        <ele>388</ele>
        <time>2012-03-24T14:15:19Z</time>
      </trkpt>
      <trkpt lat="46.86321" lon="4.71557">
        <ele>387.5</ele>
        <time>2012-03-24T14:15:23Z</time>
      </trkpt>
      <trkpt lat="46.86328" lon="4.7156">
        <ele>387</ele>
        <time>2012-03-24T14:15:25Z</time>
      </trkpt>
      <trkpt lat="46.8634" lon="4.71567">
        <ele>387</ele>
        <time>2012-03-24T14:15:29Z</time>
      </trkpt>
      <trkpt lat="46.86346" lon="4.71571">
        <ele>387</ele>
        <time>2012-03-24T14:15:31Z</time>
      </trkpt>
      <trkpt lat="46.86357" lon="4.71579">
        <ele>387</ele>
        <time>2012-03-24T14:15:35Z</time>
      </trkpt>
      <trkpt lat="46.86363" lon="4.71584">
        <ele>387</ele>
        <time>2012-03-24T14:15:37Z</time>
      </trkpt>
      <trkpt lat="46.86375" lon="4.71592">
        <ele>387</ele>
        <time>2012-03-24T14:15:41Z</time>
      </trkpt>
      <trkpt lat="46.8638" lon="4.71595">
        <ele>387</ele>
        <time>2012-03-24T14:15:43Z</time>
      </trkpt>
      <trkpt lat="46.86398" lon="4.71606">
        <ele>387</ele>
        <time>2012-03-24T14:15:49Z</time>
      </trkpt>
      <trkpt lat="46.8641" lon="4.71613">
        <ele>387</ele>
        <time>2012-03-24T14:15:53Z</time>
      </trkpt>
      <trkpt lat="46.86416" lon="4.71616">
        <ele>387</ele>
        <time>2012-03-24T14:15:55Z</time>
      </trkpt>
      <trkpt lat="46.86427" lon="4.71623">
        <ele>387.5</ele>
        <time>2012-03-24T14:15:59Z</time>
      </trkpt>
      <trkpt lat="46.86433" lon="4.71627">
        <ele>387.5</ele>
        <time>2012-03-24T14:16:01Z</time>
      </trkpt>
      <trkpt lat="46.86443" lon="4.71632">
        <ele>388</ele>
        <time>2012-03-24T14:16:05Z</time>
      </trkpt>
      <trkpt lat="46.86449" lon="4.71635">
        <ele>388</ele>
        <time>2012-03-24T14:16:07Z</time>
      </trkpt>
      <trkpt lat="46.86459" lon="4.71641">
        <ele>389</ele>
        <time>2012-03-24T14:16:11Z</time>
      </trkpt>
      <trkpt lat="46.86465" lon="4.71644">
        <ele>389</ele>
        <time>2012-03-24T14:16:13Z</time>
      </trkpt>
      <trkpt lat="46.86475" lon="4.71651">
        <ele>389.5</ele>
        <time>2012-03-24T14:16:17Z</time>
      </trkpt>
      <trkpt lat="46.86481" lon="4.71654">
        <ele>390</ele>
        <time>2012-03-24T14:16:19Z</time>
      </trkpt>
      <trkpt lat="46.86492" lon="4.71661">
        <ele>390</ele>
        <time>2012-03-24T14:16:23Z</time>
      </trkpt>
      <trkpt lat="46.86497" lon="4.71664">
        <ele>390.5</ele>
        <time>2012-03-24T14:16:25Z</time>
      </trkpt>
      <trkpt lat="46.86509" lon="4.71671">
        <ele>390.5</ele>
        <time>2012-03-24T14:16:29Z</time>
      </trkpt>
      <trkpt lat="46.86514" lon="4.71673">
        <ele>391</ele>
        <time>2012-03-24T14:16:31Z</time>
      </trkpt>
      <trkpt lat="46.86508" lon="4.71698">
        <ele>388.5</ele>
        <time>2012-03-24T14:16:37Z</time>
      </trkpt>
      <trkpt lat="46.86495" lon="4.71726">
        <ele>386</ele>
        <time>2012-03-24T14:16:41Z</time>
      </trkpt>
      <trkpt lat="46.86487" lon="4.71741">
        <ele>384.5</ele>
        <time>2012-03-24T14:16:43Z</time>
      </trkpt>
      <trkpt lat="46.8647" lon="4.71777">
        <ele>382</ele>
        <time>2012-03-24T14:16:47Z</time>
      </trkpt>
      <trkpt lat="46.86452" lon="4.71815">
        <ele>378.5</ele>
        <time>2012-03-24T14:16:51Z</time>
      </trkpt>
      <trkpt lat="46.86442" lon="4.71836">
        <ele>377</ele>
        <time>2012-03-24T14:16:53Z</time>
      </trkpt>
      <trkpt lat="46.86437" lon="4.71847">
        <ele>377</ele>
        <time>2012-03-24T14:16:54Z</time>
      </trkpt>
      <trkpt lat="46.86432" lon="4.71857">
        <ele>376.5</ele>
        <time>2012-03-24T14:16:55Z</time>
      </trkpt>
      <trkpt lat="46.86428" lon="4.71867">
        <ele>376.5</ele>
        <time>2012-03-24T14:16:56Z</time>
      </trkpt>
      <trkpt lat="46.86418" lon="4.71884">
        <ele>376.5</ele>
        <time>2012-03-24T14:16:58Z</time>
      </trkpt>
      <trkpt lat="46.86414" lon="4.71892">
        <ele>377</ele>
        <time>2012-03-24T14:16:59Z</time>
      </trkpt>
      <trkpt lat="46.8641" lon="4.71899">
        <ele>377</ele>
        <time>2012-03-24T14:17:00Z</time>
      </trkpt>
      <trkpt lat="46.86407" lon="4.71905">
        <ele>377.5</ele>
        <time>2012-03-24T14:17:01Z</time>
      </trkpt>
      <trkpt lat="46.86395" lon="4.71931">
        <ele>379</ele>
        <time>2012-03-24T14:17:06Z</time>
      </trkpt>
      <trkpt lat="46.8639" lon="4.71949">
        <ele>379.5</ele>
        <time>2012-03-24T14:17:10Z</time>
      </trkpt>
      <trkpt lat="46.86401" lon="4.7196">
        <ele>380.5</ele>
        <time>2012-03-24T14:17:14Z</time>
      </trkpt>
      <trkpt lat="46.86408" lon="4.71965">
        <ele>380.5</ele>
        <time>2012-03-24T14:17:16Z</time>
      </trkpt>
      <trkpt lat="46.86422" lon="4.71976">
        <ele>381</ele>
        <time>2012-03-24T14:17:20Z</time>
      </trkpt>
      <trkpt lat="46.86443" lon="4.71991">
        <ele>382</ele>
        <time>2012-03-24T14:17:26Z</time>
      </trkpt>
      <trkpt lat="46.86457" lon="4.71999">
        <ele>383</ele>
        <time>2012-03-24T14:17:30Z</time>
      </trkpt>
      <trkpt lat="46.86471" lon="4.72006">
        <ele>383.5</ele>
        <time>2012-03-24T14:17:34Z</time>
      </trkpt>
      <trkpt lat="46.86485" lon="4.72013">
        <ele>384.5</ele>
        <time>2012-03-24T14:17:37Z</time>
      </trkpt>
      <trkpt lat="46.86492" lon="4.72018">
        <ele>385.5</ele>
        <time>2012-03-24T14:17:39Z</time>
      </trkpt>
      <trkpt lat="46.86506" lon="4.72026">
        <ele>386</ele>
        <time>2012-03-24T14:17:43Z</time>
      </trkpt>
      <trkpt lat="46.86513" lon="4.72032">
        <ele>386.5</ele>
        <time>2012-03-24T14:17:45Z</time>
      </trkpt>
      <trkpt lat="46.86525" lon="4.72043">
        <ele>387.5</ele>
        <time>2012-03-24T14:17:49Z</time>
      </trkpt>
      <trkpt lat="46.86538" lon="4.72051">
        <ele>388</ele>
        <time>2012-03-24T14:17:53Z</time>
      </trkpt>
      <trkpt lat="46.86544" lon="4.72054">
        <ele>388.5</ele>
        <time>2012-03-24T14:17:55Z</time>
      </trkpt>
      <trkpt lat="46.86556" lon="4.7206">
        <ele>389</ele>
        <time>2012-03-24T14:17:59Z</time>
      </trkpt>
      <trkpt lat="46.86562" lon="4.72062">
        <ele>389</ele>
        <time>2012-03-24T14:18:01Z</time>
      </trkpt>
      <trkpt lat="46.86573" lon="4.72066">
        <ele>389.5</ele>
        <time>2012-03-24T14:18:05Z</time>
      </trkpt>
      <trkpt lat="46.86579" lon="4.72067">
        <ele>390.5</ele>
        <time>2012-03-24T14:18:07Z</time>
      </trkpt>
      <trkpt lat="46.8659" lon="4.72068">
        <ele>391</ele>
        <time>2012-03-24T14:18:11Z</time>
      </trkpt>
      <trkpt lat="46.86595" lon="4.72069">
        <ele>391.5</ele>
        <time>2012-03-24T14:18:13Z</time>
      </trkpt>
      <trkpt lat="46.86606" lon="4.72071">
        <ele>392</ele>
        <time>2012-03-24T14:18:17Z</time>
      </trkpt>
      <trkpt lat="46.86626" lon="4.72074">
        <ele>393</ele>
        <time>2012-03-24T14:18:25Z</time>
      </trkpt>
      <trkpt lat="46.86637" lon="4.72075">
        <ele>394</ele>
        <time>2012-03-24T14:18:29Z</time>
      </trkpt>
      <trkpt lat="46.86646" lon="4.72075">
        <ele>395.5</ele>
        <time>2012-03-24T14:18:33Z</time>
      </trkpt>
      <trkpt lat="46.8666" lon="4.72074">
        <ele>397</ele>
        <time>2012-03-24T14:18:39Z</time>
      </trkpt>
      <trkpt lat="46.86665" lon="4.72073">
        <ele>397</ele>
        <time>2012-03-24T14:18:41Z</time>
      </trkpt>
      <trkpt lat="46.86674" lon="4.72074">
        <ele>398</ele>
        <time>2012-03-24T14:18:45Z</time>
      </trkpt>
      <trkpt lat="46.86678" lon="4.72074">
        <ele>398.5</ele>
        <time>2012-03-24T14:18:47Z</time>
      </trkpt>
      <trkpt lat="46.86684" lon="4.72074">
        <ele>399.5</ele>
        <time>2012-03-24T14:18:49Z</time>
      </trkpt>
      <trkpt lat="46.86694" lon="4.72075">
        <ele>399.5</ele>
        <time>2012-03-24T14:18:53Z</time>
      </trkpt>
      <trkpt lat="46.86698" lon="4.72076">
        <ele>400</ele>
        <time>2012-03-24T14:18:55Z</time>
      </trkpt>
      <trkpt lat="46.86703" lon="4.72077">
        <ele>400.5</ele>
        <time>2012-03-24T14:18:57Z</time>
      </trkpt>
      <trkpt lat="46.86723" lon="4.72077">
        <ele>402</ele>
        <time>2012-03-24T14:19:05Z</time>
      </trkpt>
      <trkpt lat="46.86733" lon="4.72078">
        <ele>402</ele>
        <time>2012-03-24T14:19:09Z</time>
      </trkpt>
      <trkpt lat="46.86739" lon="4.7208">
        <ele>402.5</ele>
        <time>2012-03-24T14:19:11Z</time>
      </trkpt>
      <trkpt lat="46.86744" lon="4.72081">
        <ele>402.5</ele>
        <time>2012-03-24T14:19:13Z</time>
      </trkpt>
      <trkpt lat="46.86753" lon="4.72083">
        <ele>402.5</ele>
        <time>2012-03-24T14:19:17Z</time>
      </trkpt>
      <trkpt lat="46.86758" lon="4.72086">
        <ele>402.5</ele>
        <time>2012-03-24T14:19:19Z</time>
      </trkpt>
      <trkpt lat="46.86778" lon="4.72096">
        <ele>403</ele>
        <time>2012-03-24T14:19:27Z</time>
      </trkpt>
      <trkpt lat="46.86787" lon="4.72101">
        <ele>403.5</ele>
        <time>2012-03-24T14:19:31Z</time>
      </trkpt>
      <trkpt lat="46.86797" lon="4.7211">
        <ele>404</ele>
        <time>2012-03-24T14:19:35Z</time>
      </trkpt>
      <trkpt lat="46.86807" lon="4.72118">
        <ele>404.5</ele>
        <time>2012-03-24T14:19:39Z</time>
      </trkpt>
      <trkpt lat="46.86813" lon="4.7212">
        <ele>404.5</ele>
        <time>2012-03-24T14:19:41Z</time>
      </trkpt>
      <trkpt lat="46.86823" lon="4.72124">
        <ele>405.5</ele>
        <time>2012-03-24T14:19:45Z</time>
      </trkpt>
      <trkpt lat="46.86829" lon="4.72126">
        <ele>406</ele>
        <time>2012-03-24T14:19:47Z</time>
      </trkpt>
      <trkpt lat="46.8684" lon="4.72129">
        <ele>406</ele>
        <time>2012-03-24T14:19:51Z</time>
      </trkpt>
      <trkpt lat="46.86846" lon="4.72132">
        <ele>406</ele>
        <time>2012-03-24T14:19:53Z</time>
      </trkpt>
      <trkpt lat="46.8686" lon="4.72137">
        <ele>406</ele>
        <time>2012-03-24T14:19:57Z</time>
      </trkpt>
      <trkpt lat="46.86868" lon="4.7214">
        <ele>406</ele>
        <time>2012-03-24T14:19:59Z</time>
      </trkpt>
      <trkpt lat="46.86884" lon="4.72148">
        <ele>406</ele>
        <time>2012-03-24T14:20:03Z</time>
      </trkpt>
      <trkpt lat="46.86902" lon="4.72159">
        <ele>405.5</ele>
        <time>2012-03-24T14:20:07Z</time>
      </trkpt>
      <trkpt lat="46.86908" lon="4.72166">
        <ele>405.5</ele>
        <time>2012-03-24T14:20:09Z</time>
      </trkpt>
      <trkpt lat="46.86922" lon="4.72178">
        <ele>405</ele>
        <time>2012-03-24T14:20:13Z</time>
      </trkpt>
      <trkpt lat="46.86939" lon="4.72192">
        <ele>404.5</ele>
        <time>2012-03-24T14:20:17Z</time>
      </trkpt>
      <trkpt lat="46.86956" lon="4.72206">
        <ele>403.5</ele>
        <time>2012-03-24T14:20:21Z</time>
      </trkpt>
      <trkpt lat="46.86975" lon="4.72222">
        <ele>402.5</ele>
        <time>2012-03-24T14:20:25Z</time>
      </trkpt>
      <trkpt lat="46.86995" lon="4.72243">
        <ele>400.5</ele>
        <time>2012-03-24T14:20:29Z</time>
      </trkpt>
      <trkpt lat="46.87015" lon="4.72267">
        <ele>398.5</ele>
        <time>2012-03-24T14:20:33Z</time>
      </trkpt>
      <trkpt lat="46.87038" lon="4.72284">
        <ele>397.5</ele>
        <time>2012-03-24T14:20:37Z</time>
      </trkpt>
      <trkpt lat="46.87065" lon="4.72293">
        <ele>394.5</ele>
        <time>2012-03-24T14:20:41Z</time>
      </trkpt>
      <trkpt lat="46.87096" lon="4.72313">
        <ele>390.5</ele>
        <time>2012-03-24T14:20:45Z</time>
      </trkpt>
      <trkpt lat="46.87113" lon="4.72325">
        <ele>388.5</ele>
        <time>2012-03-24T14:20:47Z</time>
      </trkpt>
      <trkpt lat="46.87121" lon="4.72328">
        <ele>387</ele>
        <time>2012-03-24T14:20:48Z</time>
      </trkpt>
      <trkpt lat="46.8714" lon="4.72326">
        <ele>384</ele>
        <time>2012-03-24T14:20:50Z</time>
      </trkpt>
      <trkpt lat="46.87159" lon="4.7232">
        <ele>381.5</ele>
        <time>2012-03-24T14:20:52Z</time>
      </trkpt>
      <trkpt lat="46.87168" lon="4.72318">
        <ele>380</ele>
        <time>2012-03-24T14:20:53Z</time>
      </trkpt>
      <trkpt lat="46.87176" lon="4.72317">
        <ele>378.5</ele>
        <time>2012-03-24T14:20:54Z</time>
      </trkpt>
      <trkpt lat="46.8719" lon="4.72314">
        <ele>376</ele>
        <time>2012-03-24T14:20:56Z</time>
      </trkpt>
      <trkpt lat="46.87195" lon="4.72314">
        <ele>375</ele>
        <time>2012-03-24T14:20:57Z</time>
      </trkpt>
      <trkpt lat="46.87199" lon="4.72313">
        <ele>374.5</ele>
        <time>2012-03-24T14:20:58Z</time>
      </trkpt>
      <trkpt lat="46.87208" lon="4.72315">
        <ele>374</ele>
        <time>2012-03-24T14:21:04Z</time>
      </trkpt>
      <trkpt lat="46.8721" lon="4.72327">
        <ele>375.5</ele>
        <time>2012-03-24T14:21:14Z</time>
      </trkpt>
      <trkpt lat="46.8721" lon="4.72333">
        <ele>375</ele>
        <time>2012-03-24T14:21:16Z</time>
      </trkpt>
      <trkpt lat="46.87213" lon="4.72348">
        <ele>374</ele>
        <time>2012-03-24T14:21:20Z</time>
      </trkpt>
      <trkpt lat="46.87214" lon="4.72354">
        <ele>374.5</ele>
        <time>2012-03-24T14:21:22Z</time>
      </trkpt>
      <trkpt lat="46.87217" lon="4.72363">
        <ele>374.5</ele>
        <time>2012-03-24T14:21:24Z</time>
      </trkpt>
      <trkpt lat="46.87217" lon="4.72376">
        <ele>373</ele>
        <time>2012-03-24T14:21:26Z</time>
      </trkpt>
      <trkpt lat="46.87214" lon="4.72392">
        <ele>371.5</ele>
        <time>2012-03-24T14:21:28Z</time>
      </trkpt>
      <trkpt lat="46.87209" lon="4.72409">
        <ele>370</ele>
        <time>2012-03-24T14:21:30Z</time>
      </trkpt>
      <trkpt lat="46.87206" lon="4.72422">
        <ele>368.5</ele>
        <time>2012-03-24T14:21:32Z</time>
      </trkpt>
      <trkpt lat="46.87216" lon="4.72433">
        <ele>366</ele>
        <time>2012-03-24T14:21:36Z</time>
      </trkpt>
      <trkpt lat="46.8722" lon="4.72444">
        <ele>365</ele>
        <time>2012-03-24T14:21:40Z</time>
      </trkpt>
      <trkpt lat="46.87214" lon="4.72456">
        <ele>367.5</ele>
        <time>2012-03-24T14:21:46Z</time>
      </trkpt>
      <trkpt lat="46.8721" lon="4.72462">
        <ele>366</ele>
        <time>2012-03-24T14:21:50Z</time>
      </trkpt>
      <trkpt lat="46.87203" lon="4.72473">
        <ele>360.5</ele>
        <time>2012-03-24T14:21:54Z</time>
      </trkpt>
      <trkpt lat="46.87199" lon="4.72481">
        <ele>359</ele>
        <time>2012-03-24T14:21:56Z</time>
      </trkpt>
      <trkpt lat="46.87197" lon="4.72496">
        <ele>361</ele>
        <time>2012-03-24T14:22:00Z</time>
      </trkpt>
      <trkpt lat="46.87197" lon="4.72506">
        <ele>360.5</ele>
        <time>2012-03-24T14:22:02Z</time>
      </trkpt>
      <trkpt lat="46.87199" lon="4.7253">
        <ele>361.5</ele>
        <time>2012-03-24T14:22:06Z</time>
      </trkpt>
      <trkpt lat="46.87201" lon="4.72543">
        <ele>361</ele>
        <time>2012-03-24T14:22:08Z</time>
      </trkpt>
      <trkpt lat="46.87201" lon="4.72554">
        <ele>362</ele>
        <time>2012-03-24T14:22:18Z</time>
      </trkpt>
      <trkpt lat="46.87208" lon="4.72597">
        <ele>361.5</ele>
        <time>2012-03-24T14:22:26Z</time>
      </trkpt>
      <trkpt lat="46.87212" lon="4.72617">
        <ele>360.5</ele>
        <time>2012-03-24T14:22:28Z</time>
      </trkpt>
      <trkpt lat="46.87215" lon="4.72639">
        <ele>357.5</ele>
        <time>2012-03-24T14:22:30Z</time>
      </trkpt>
      <trkpt lat="46.87216" lon="4.72663">
        <ele>359</ele>
        <time>2012-03-24T14:22:32Z</time>
      </trkpt>
      <trkpt lat="46.87227" lon="4.72709">
        <ele>356.5</ele>
        <time>2012-03-24T14:22:36Z</time>
      </trkpt>
      <trkpt lat="46.87225" lon="4.72754">
        <ele>352.5</ele>
        <time>2012-03-24T14:22:40Z</time>
      </trkpt>
      <trkpt lat="46.87224" lon="4.72774">
        <ele>349.5</ele>
        <time>2012-03-24T14:22:42Z</time>
      </trkpt>
      <trkpt lat="46.87222" lon="4.72784">
        <ele>348.5</ele>
        <time>2012-03-24T14:22:43Z</time>
      </trkpt>
      <trkpt lat="46.87217" lon="4.72791">
        <ele>348.5</ele>
        <time>2012-03-24T14:22:44Z</time>
      </trkpt>
      <trkpt lat="46.87212" lon="4.72797">
        <ele>346</ele>
        <time>2012-03-24T14:22:45Z</time>
      </trkpt>
      <trkpt lat="46.87205" lon="4.72814">
        <ele>343.5</ele>
        <time>2012-03-24T14:22:46Z</time>
      </trkpt>
      <trkpt lat="46.87202" lon="4.72821">
        <ele>342</ele>
        <time>2012-03-24T14:22:47Z</time>
      </trkpt>
      <trkpt lat="46.872" lon="4.72829">
        <ele>340</ele>
        <time>2012-03-24T14:22:48Z</time>
      </trkpt>
      <trkpt lat="46.87202" lon="4.7284">
        <ele>339</ele>
        <time>2012-03-24T14:22:49Z</time>
      </trkpt>
      <trkpt lat="46.87206" lon="4.72858">
        <ele>336.5</ele>
        <time>2012-03-24T14:22:51Z</time>
      </trkpt>
      <trkpt lat="46.8721" lon="4.72865">
        <ele>334.5</ele>
        <time>2012-03-24T14:22:52Z</time>
      </trkpt>
      <trkpt lat="46.87215" lon="4.72873">
        <ele>333</ele>
        <time>2012-03-24T14:22:53Z</time>
      </trkpt>
      <trkpt lat="46.8722" lon="4.72879">
        <ele>332</ele>
        <time>2012-03-24T14:22:54Z</time>
      </trkpt>
      <trkpt lat="46.87247" lon="4.72898">
        <ele>327</ele>
        <time>2012-03-24T14:22:59Z</time>
      </trkpt>
      <trkpt lat="46.87258" lon="4.72899">
        <ele>327.5</ele>
        <time>2012-03-24T14:23:03Z</time>
      </trkpt>
      <trkpt lat="46.87269" lon="4.72904">
        <ele>327.5</ele>
        <time>2012-03-24T14:23:07Z</time>
      </trkpt>
      <trkpt lat="46.87275" lon="4.72908">
        <ele>327.5</ele>
        <time>2012-03-24T14:23:09Z</time>
      </trkpt>
      <trkpt lat="46.87287" lon="4.72916">
        <ele>326.5</ele>
        <time>2012-03-24T14:23:13Z</time>
      </trkpt>
      <trkpt lat="46.87291" lon="4.72925">
        <ele>326</ele>
        <time>2012-03-24T14:23:15Z</time>
      </trkpt>
      <trkpt lat="46.87289" lon="4.72954">
        <ele>324.5</ele>
        <time>2012-03-24T14:23:19Z</time>
      </trkpt>
      <trkpt lat="46.87281" lon="4.72992">
        <ele>320</ele>
        <time>2012-03-24T14:23:23Z</time>
      </trkpt>
      <trkpt lat="46.87273" lon="4.7303">
        <ele>316.5</ele>
        <time>2012-03-24T14:23:27Z</time>
      </trkpt>
      <trkpt lat="46.87271" lon="4.73054">
        <ele>315.5</ele>
        <time>2012-03-24T14:23:31Z</time>
      </trkpt>
      <trkpt lat="46.87286" lon="4.73068">
        <ele>314</ele>
        <time>2012-03-24T14:23:35Z</time>
      </trkpt>
      <trkpt lat="46.87306" lon="4.73087">
        <ele>311.5</ele>
        <time>2012-03-24T14:23:39Z</time>
      </trkpt>
      <trkpt lat="46.87332" lon="4.73107">
        <ele>308</ele>
        <time>2012-03-24T14:23:43Z</time>
      </trkpt>
      <trkpt lat="46.87369" lon="4.73133">
        <ele>303</ele>
        <time>2012-03-24T14:23:51Z</time>
      </trkpt>
      <trkpt lat="46.8739" lon="4.73147">
        <ele>301</ele>
        <time>2012-03-24T14:23:55Z</time>
      </trkpt>
      <trkpt lat="46.87414" lon="4.73169">
        <ele>298.5</ele>
        <time>2012-03-24T14:23:59Z</time>
      </trkpt>
      <trkpt lat="46.87438" lon="4.73193">
        <ele>296</ele>
        <time>2012-03-24T14:24:03Z</time>
      </trkpt>
      <trkpt lat="46.87462" lon="4.73226">
        <ele>293</ele>
        <time>2012-03-24T14:24:07Z</time>
      </trkpt>
      <trkpt lat="46.87468" lon="4.73235">
        <ele>292</ele>
        <time>2012-03-24T14:24:08Z</time>
      </trkpt>
      <trkpt lat="46.87479" lon="4.73253">
        <ele>291</ele>
        <time>2012-03-24T14:24:10Z</time>
      </trkpt>
      <trkpt lat="46.87484" lon="4.73261">
        <ele>290</ele>
        <time>2012-03-24T14:24:11Z</time>
      </trkpt>
      <trkpt lat="46.8749" lon="4.7327">
        <ele>289.5</ele>
        <time>2012-03-24T14:24:12Z</time>
      </trkpt>
      <trkpt lat="46.87501" lon="4.73287">
        <ele>288.5</ele>
        <time>2012-03-24T14:24:14Z</time>
      </trkpt>
      <trkpt lat="46.87507" lon="4.73294">
        <ele>288</ele>
        <time>2012-03-24T14:24:15Z</time>
      </trkpt>
      <trkpt lat="46.87513" lon="4.73301">
        <ele>287.5</ele>
        <time>2012-03-24T14:24:16Z</time>
      </trkpt>
      <trkpt lat="46.87525" lon="4.73313">
        <ele>286.5</ele>
        <time>2012-03-24T14:24:18Z</time>
      </trkpt>
      <trkpt lat="46.8753" lon="4.73319">
        <ele>286</ele>
        <time>2012-03-24T14:24:19Z</time>
      </trkpt>
      <trkpt lat="46.87536" lon="4.73325">
        <ele>286</ele>
        <time>2012-03-24T14:24:20Z</time>
      </trkpt>
      <trkpt lat="46.87547" lon="4.73339">
        <ele>285</ele>
        <time>2012-03-24T14:24:22Z</time>
      </trkpt>
      <trkpt lat="46.87551" lon="4.73347">
        <ele>284.5</ele>
        <time>2012-03-24T14:24:23Z</time>
      </trkpt>
      <trkpt lat="46.87555" lon="4.73356">
        <ele>284</ele>
        <time>2012-03-24T14:24:24Z</time>
      </trkpt>
      <trkpt lat="46.87559" lon="4.73365">
        <ele>284</ele>
        <time>2012-03-24T14:24:25Z</time>
      </trkpt>
      <trkpt lat="46.87573" lon="4.73413">
        <ele>283.5</ele>
        <time>2012-03-24T14:24:30Z</time>
      </trkpt>
      <trkpt lat="46.87582" lon="4.73452">
        <ele>282.5</ele>
        <time>2012-03-24T14:24:34Z</time>
      </trkpt>
      <trkpt lat="46.87598" lon="4.73484">
        <ele>281.5</ele>
        <time>2012-03-24T14:24:38Z</time>
      </trkpt>
      <trkpt lat="46.87618" lon="4.73511">
        <ele>281</ele>
        <time>2012-03-24T14:24:42Z</time>
      </trkpt>
      <trkpt lat="46.87638" lon="4.73535">
        <ele>280.5</ele>
        <time>2012-03-24T14:24:46Z</time>
      </trkpt>
      <trkpt lat="46.87657" lon="4.73559">
        <ele>280.5</ele>
        <time>2012-03-24T14:24:50Z</time>
      </trkpt>
      <trkpt lat="46.87672" lon="4.73587">
        <ele>280</ele>
        <time>2012-03-24T14:24:54Z</time>
      </trkpt>
      <trkpt lat="46.87686" lon="4.73612">
        <ele>280.5</ele>
        <time>2012-03-24T14:24:58Z</time>
      </trkpt>
      <trkpt lat="46.87704" lon="4.7363">
        <ele>280.5</ele>
        <time>2012-03-24T14:25:02Z</time>
      </trkpt>
      <trkpt lat="46.8772" lon="4.73648">
        <ele>280</ele>
        <time>2012-03-24T14:25:06Z</time>
      </trkpt>
      <trkpt lat="46.8772" lon="4.73677">
        <ele>279</ele>
        <time>2012-03-24T14:25:10Z</time>
      </trkpt>
      <trkpt lat="46.87731" lon="4.73687">
        <ele>279</ele>
        <time>2012-03-24T14:25:14Z</time>
      </trkpt>
      <trkpt lat="46.87745" lon="4.73688">
        <ele>279.5</ele>
        <time>2012-03-24T14:25:18Z</time>
      </trkpt>
      <trkpt lat="46.87752" lon="4.73688">
        <ele>279.5</ele>
        <time>2012-03-24T14:25:20Z</time>
      </trkpt>
      <trkpt lat="46.87775" lon="4.73684">
        <ele>280.5</ele>
        <time>2012-03-24T14:25:26Z</time>
      </trkpt>
      <trkpt lat="46.8779" lon="4.73682">
        <ele>281</ele>
        <time>2012-03-24T14:25:30Z</time>
      </trkpt>
      <trkpt lat="46.87797" lon="4.73679">
        <ele>282</ele>
        <time>2012-03-24T14:25:32Z</time>
      </trkpt>
      <trkpt lat="46.8781" lon="4.73675">
        <ele>283</ele>
        <time>2012-03-24T14:25:36Z</time>
      </trkpt>
      <trkpt lat="46.87822" lon="4.73672">
        <ele>284</ele>
        <time>2012-03-24T14:25:40Z</time>
      </trkpt>
      <trkpt lat="46.87829" lon="4.73671">
        <ele>284.5</ele>
        <time>2012-03-24T14:25:42Z</time>
      </trkpt>
      <trkpt lat="46.87841" lon="4.73668">
        <ele>286.5</ele>
        <time>2012-03-24T14:25:46Z</time>
      </trkpt>
      <trkpt lat="46.87848" lon="4.73668">
        <ele>286</ele>
        <time>2012-03-24T14:25:48Z</time>
      </trkpt>
      <trkpt lat="46.87861" lon="4.73668">
        <ele>286.5</ele>
        <time>2012-03-24T14:25:52Z</time>
      </trkpt>
      <trkpt lat="46.87867" lon="4.73669">
        <ele>287</ele>
        <time>2012-03-24T14:25:54Z</time>
      </trkpt>
      <trkpt lat="46.87879" lon="4.73671">
        <ele>288</ele>
        <time>2012-03-24T14:25:58Z</time>
      </trkpt>
      <trkpt lat="46.87885" lon="4.73673">
        <ele>288.5</ele>
        <time>2012-03-24T14:26:00Z</time>
      </trkpt>
      <trkpt lat="46.87897" lon="4.73675">
        <ele>288.5</ele>
        <time>2012-03-24T14:26:04Z</time>
      </trkpt>
      <trkpt lat="46.87903" lon="4.73679">
        <ele>289</ele>
        <time>2012-03-24T14:26:06Z</time>
      </trkpt>
      <trkpt lat="46.87912" lon="4.73686">
        <ele>290</ele>
        <time>2012-03-24T14:26:10Z</time>
      </trkpt>
      <trkpt lat="46.87915" lon="4.73691">
        <ele>290</ele>
        <time>2012-03-24T14:26:12Z</time>
      </trkpt>
      <trkpt lat="46.87919" lon="4.73696">
        <ele>290.5</ele>
        <time>2012-03-24T14:26:14Z</time>
      </trkpt>
      <trkpt lat="46.87924" lon="4.73708">
        <ele>291</ele>
        <time>2012-03-24T14:26:18Z</time>
      </trkpt>
      <trkpt lat="46.87927" lon="4.73715">
        <ele>291.5</ele>
        <time>2012-03-24T14:26:20Z</time>
      </trkpt>
      <trkpt lat="46.8793" lon="4.73722">
        <ele>291</ele>
        <time>2012-03-24T14:26:22Z</time>
      </trkpt>
      <trkpt lat="46.87939" lon="4.73742">
        <ele>291.5</ele>
        <time>2012-03-24T14:26:28Z</time>
      </trkpt>
      <trkpt lat="46.87945" lon="4.73756">
        <ele>291.5</ele>
        <time>2012-03-24T14:26:32Z</time>
      </trkpt>
      <trkpt lat="46.8795" lon="4.73762">
        <ele>291.5</ele>
        <time>2012-03-24T14:26:34Z</time>
      </trkpt>
      <trkpt lat="46.87959" lon="4.73774">
        <ele>291.5</ele>
        <time>2012-03-24T14:26:38Z</time>
      </trkpt>
      <trkpt lat="46.87963" lon="4.73781">
        <ele>291.5</ele>
        <time>2012-03-24T14:26:40Z</time>
      </trkpt>
      <trkpt lat="46.87967" lon="4.73788">
        <ele>291.5</ele>
        <time>2012-03-24T14:26:42Z</time>
      </trkpt>
      <trkpt lat="46.87976" lon="4.73801">
        <ele>291.5</ele>
        <time>2012-03-24T14:26:46Z</time>
      </trkpt>
      <trkpt lat="46.87981" lon="4.73807">
        <ele>291.5</ele>
        <time>2012-03-24T14:26:48Z</time>
      </trkpt>
      <trkpt lat="46.87995" lon="4.73824">
        <ele>291.5</ele>
        <time>2012-03-24T14:26:54Z</time>
      </trkpt>
      <trkpt lat="46.88005" lon="4.73835">
        <ele>291.5</ele>
        <time>2012-03-24T14:26:58Z</time>
      </trkpt>
      <trkpt lat="46.8801" lon="4.73837">
        <ele>291.5</ele>
        <time>2012-03-24T14:27:00Z</time>
      </trkpt>
      <trkpt lat="46.88025" lon="4.73837">
        <ele>293.5</ele>
        <time>2012-03-24T14:27:06Z</time>
      </trkpt>
      <trkpt lat="46.88036" lon="4.73838">
        <ele>294</ele>
        <time>2012-03-24T14:27:10Z</time>
      </trkpt>
      <trkpt lat="46.88041" lon="4.73839">
        <ele>294.5</ele>
        <time>2012-03-24T14:27:12Z</time>
      </trkpt>
      <trkpt lat="46.88047" lon="4.7384">
        <ele>295</ele>
        <time>2012-03-24T14:27:14Z</time>
      </trkpt>
      <trkpt lat="46.88057" lon="4.73843">
        <ele>295</ele>
        <time>2012-03-24T14:27:18Z</time>
      </trkpt>
      <trkpt lat="46.88063" lon="4.73845">
        <ele>295.5</ele>
        <time>2012-03-24T14:27:20Z</time>
      </trkpt>
      <trkpt lat="46.88072" lon="4.7385">
        <ele>296</ele>
        <time>2012-03-24T14:27:24Z</time>
      </trkpt>
      <trkpt lat="46.88077" lon="4.73852">
        <ele>296.5</ele>
        <time>2012-03-24T14:27:26Z</time>
      </trkpt>
      <trkpt lat="46.88082" lon="4.73853">
        <ele>297</ele>
        <time>2012-03-24T14:27:28Z</time>
      </trkpt>
      <trkpt lat="46.88089" lon="4.73848">
        <ele>299.5</ele>
        <time>2012-03-24T14:27:34Z</time>
      </trkpt>
      <trkpt lat="46.88089" lon="4.73841">
        <ele>302</ele>
        <time>2012-03-24T14:27:38Z</time>
      </trkpt>
      <trkpt lat="46.88089" lon="4.73831">
        <ele>302.5</ele>
        <time>2012-03-24T14:27:42Z</time>
      </trkpt>
      <trkpt lat="46.88089" lon="4.73825">
        <ele>302.5</ele>
        <time>2012-03-24T14:27:44Z</time>
      </trkpt>
      <trkpt lat="46.8809" lon="4.73816">
        <ele>302.5</ele>
        <time>2012-03-24T14:27:48Z</time>
      </trkpt>
      <trkpt lat="46.88094" lon="4.73803">
        <ele>302.5</ele>
        <time>2012-03-24T14:27:54Z</time>
      </trkpt>
      <trkpt lat="46.88098" lon="4.73797">
        <ele>303</ele>
        <time>2012-03-24T14:27:58Z</time>
      </trkpt>
      <trkpt lat="46.88105" lon="4.7379">
        <ele>304</ele>
        <time>2012-03-24T14:28:04Z</time>
      </trkpt>
      <trkpt lat="46.88109" lon="4.73783">
        <ele>305.5</ele>
        <time>2012-03-24T14:28:08Z</time>
      </trkpt>
      <trkpt lat="46.88112" lon="4.7378">
        <ele>305.5</ele>
        <time>2012-03-24T14:28:10Z</time>
      </trkpt>
      <trkpt lat="46.88119" lon="4.73774">
        <ele>307.5</ele>
        <time>2012-03-24T14:28:16Z</time>
      </trkpt>
      <trkpt lat="46.88124" lon="4.73771">
        <ele>308.5</ele>
        <time>2012-03-24T14:28:20Z</time>
      </trkpt>
      <trkpt lat="46.88133" lon="4.73765">
        <ele>311</ele>
        <time>2012-03-24T14:28:26Z</time>
      </trkpt>
      <trkpt lat="46.88139" lon="4.73763">
        <ele>312.5</ele>
        <time>2012-03-24T14:28:30Z</time>
      </trkpt>
      <trkpt lat="46.88142" lon="4.73761">
        <ele>312.5</ele>
        <time>2012-03-24T14:28:32Z</time>
      </trkpt>
      <trkpt lat="46.88153" lon="4.73763">
        <ele>312.5</ele>
        <time>2012-03-24T14:28:38Z</time>
      </trkpt>
      <trkpt lat="46.88157" lon="4.73764">
        <ele>312.5</ele>
        <time>2012-03-24T14:28:40Z</time>
      </trkpt>
      <trkpt lat="46.88168" lon="4.73768">
        <ele>312</ele>
        <time>2012-03-24T14:28:46Z</time>
      </trkpt>
      <trkpt lat="46.88175" lon="4.73767">
        <ele>312.5</ele>
        <time>2012-03-24T14:28:50Z</time>
      </trkpt>
      <trkpt lat="46.88189" lon="4.73763">
        <ele>313.5</ele>
        <time>2012-03-24T14:29:00Z</time>
      </trkpt>
      <trkpt lat="46.88196" lon="4.73761">
        <ele>314.5</ele>
        <time>2012-03-24T14:29:06Z</time>
      </trkpt>
      <trkpt lat="46.88203" lon="4.73761">
        <ele>315.5</ele>
        <time>2012-03-24T14:29:10Z</time>
      </trkpt>
      <trkpt lat="46.8821" lon="4.73764">
        <ele>315.5</ele>
        <time>2012-03-24T14:29:14Z</time>
      </trkpt>
      <trkpt lat="46.88219" lon="4.73774">
        <ele>315</ele>
        <time>2012-03-24T14:29:20Z</time>
      </trkpt>
      <trkpt lat="46.88222" lon="4.73778">
        <ele>314.5</ele>
        <time>2012-03-24T14:29:22Z</time>
      </trkpt>
      <trkpt lat="46.88226" lon="4.73782">
        <ele>315</ele>
        <time>2012-03-24T14:29:24Z</time>
      </trkpt>
      <trkpt lat="46.88239" lon="4.73787">
        <ele>315.5</ele>
        <time>2012-03-24T14:29:30Z</time>
      </trkpt>
      <trkpt lat="46.88246" lon="4.73789">
        <ele>315.5</ele>
        <time>2012-03-24T14:29:34Z</time>
      </trkpt>
      <trkpt lat="46.88253" lon="4.73791">
        <ele>316</ele>
        <time>2012-03-24T14:29:38Z</time>
      </trkpt>
      <trkpt lat="46.88257" lon="4.73791">
        <ele>316.5</ele>
        <time>2012-03-24T14:29:40Z</time>
      </trkpt>
      <trkpt lat="46.88273" lon="4.7381">
        <ele>316</ele>
        <time>2012-03-24T14:29:47Z</time>
      </trkpt>
      <trkpt lat="46.88277" lon="4.73817">
        <ele>316</ele>
        <time>2012-03-24T14:29:49Z</time>
      </trkpt>
      <trkpt lat="46.88287" lon="4.73829">
        <ele>316.5</ele>
        <time>2012-03-24T14:29:53Z</time>
      </trkpt>
      <trkpt lat="46.88291" lon="4.73835">
        <ele>316.5</ele>
        <time>2012-03-24T14:29:55Z</time>
      </trkpt>
      <trkpt lat="46.88298" lon="4.73847">
        <ele>317</ele>
        <time>2012-03-24T14:29:59Z</time>
      </trkpt>
      <trkpt lat="46.88302" lon="4.73853">
        <ele>317</ele>
        <time>2012-03-24T14:30:01Z</time>
      </trkpt>
      <trkpt lat="46.88307" lon="4.73858">
        <ele>317.5</ele>
        <time>2012-03-24T14:30:03Z</time>
      </trkpt>
      <trkpt lat="46.88317" lon="4.73865">
        <ele>318</ele>
        <time>2012-03-24T14:30:07Z</time>
      </trkpt>
      <trkpt lat="46.88321" lon="4.73868">
        <ele>318.5</ele>
        <time>2012-03-24T14:30:09Z</time>
      </trkpt>
      <trkpt lat="46.88328" lon="4.73872">
        <ele>319</ele>
        <time>2012-03-24T14:30:13Z</time>
      </trkpt>
      <trkpt lat="46.88332" lon="4.73873">
        <ele>319.5</ele>
        <time>2012-03-24T14:30:15Z</time>
      </trkpt>
      <trkpt lat="46.88335" lon="4.73875">
        <ele>319.5</ele>
        <time>2012-03-24T14:30:16Z</time>
      </trkpt>
      <trkpt lat="46.88344" lon="4.73878">
        <ele>320.5</ele>
        <time>2012-03-24T14:30:20Z</time>
      </trkpt>
      <trkpt lat="46.88352" lon="4.73884">
        <ele>320.5</ele>
        <time>2012-03-24T14:30:24Z</time>
      </trkpt>
      <trkpt lat="46.88356" lon="4.73887">
        <ele>321</ele>
        <time>2012-03-24T14:30:26Z</time>
      </trkpt>
      <trkpt lat="46.88364" lon="4.73892">
        <ele>321.5</ele>
        <time>2012-03-24T14:30:30Z</time>
      </trkpt>
      <trkpt lat="46.88376" lon="4.73897">
        <ele>323</ele>
        <time>2012-03-24T14:30:36Z</time>
      </trkpt>
      <trkpt lat="46.88384" lon="4.73905">
        <ele>323</ele>
        <time>2012-03-24T14:30:40Z</time>
      </trkpt>
      <trkpt lat="46.88388" lon="4.7391">
        <ele>323</ele>
        <time>2012-03-24T14:30:42Z</time>
      </trkpt>
      <trkpt lat="46.88392" lon="4.73917">
        <ele>323</ele>
        <time>2012-03-24T14:30:44Z</time>
      </trkpt>
      <trkpt lat="46.88406" lon="4.73937">
        <ele>322</ele>
        <time>2012-03-24T14:30:50Z</time>
      </trkpt>
      <trkpt lat="46.88417" lon="4.73952">
        <ele>321.5</ele>
        <time>2012-03-24T14:30:54Z</time>
      </trkpt>
      <trkpt lat="46.88423" lon="4.73958">
        <ele>321.5</ele>
        <time>2012-03-24T14:30:56Z</time>
      </trkpt>
      <trkpt lat="46.88432" lon="4.73971">
        <ele>321</ele>
        <time>2012-03-24T14:31:00Z</time>
      </trkpt>
      <trkpt lat="46.88435" lon="4.73978">
        <ele>321</ele>
        <time>2012-03-24T14:31:02Z</time>
      </trkpt>
      <trkpt lat="46.88446" lon="4.7399">
        <ele>320.5</ele>
        <time>2012-03-24T14:31:06Z</time>
      </trkpt>
      <trkpt lat="46.88453" lon="4.73992">
        <ele>320</ele>
        <time>2012-03-24T14:31:08Z</time>
      </trkpt>
      <trkpt lat="46.88466" lon="4.73997">
        <ele>320.5</ele>
        <time>2012-03-24T14:31:12Z</time>
      </trkpt>
      <trkpt lat="46.88472" lon="4.73999">
        <ele>321</ele>
        <time>2012-03-24T14:31:14Z</time>
      </trkpt>
      <trkpt lat="46.88483" lon="4.74003">
        <ele>321.5</ele>
        <time>2012-03-24T14:31:18Z</time>
      </trkpt>
      <trkpt lat="46.88488" lon="4.74003">
        <ele>322</ele>
        <time>2012-03-24T14:31:20Z</time>
      </trkpt>
      <trkpt lat="46.88498" lon="4.74006">
        <ele>322.5</ele>
        <time>2012-03-24T14:31:24Z</time>
      </trkpt>
      <trkpt lat="46.88502" lon="4.7401">
        <ele>322.5</ele>
        <time>2012-03-24T14:31:26Z</time>
      </trkpt>
      <trkpt lat="46.88506" lon="4.74016">
        <ele>322.5</ele>
        <time>2012-03-24T14:31:28Z</time>
      </trkpt>
      <trkpt lat="46.88515" lon="4.74029">
        <ele>322</ele>
        <time>2012-03-24T14:31:32Z</time>
      </trkpt>
      <trkpt lat="46.88521" lon="4.74036">
        <ele>321.5</ele>
        <time>2012-03-24T14:31:34Z</time>
      </trkpt>
      <trkpt lat="46.88542" lon="4.74062">
        <ele>320.5</ele>
        <time>2012-03-24T14:31:40Z</time>
      </trkpt>
      <trkpt lat="46.88554" lon="4.74078">
        <ele>320</ele>
        <time>2012-03-24T14:31:44Z</time>
      </trkpt>
      <trkpt lat="46.88563" lon="4.74094">
        <ele>320</ele>
        <time>2012-03-24T14:31:48Z</time>
      </trkpt>
      <trkpt lat="46.88573" lon="4.7411">
        <ele>320</ele>
        <time>2012-03-24T14:31:52Z</time>
      </trkpt>
      <trkpt lat="46.88586" lon="4.74121">
        <ele>320</ele>
        <time>2012-03-24T14:31:56Z</time>
      </trkpt>
      <trkpt lat="46.88597" lon="4.74129">
        <ele>319.5</ele>
        <time>2012-03-24T14:32:00Z</time>
      </trkpt>
      <trkpt lat="46.88607" lon="4.74126">
        <ele>323</ele>
        <time>2012-03-24T14:32:06Z</time>
      </trkpt>
      <trkpt lat="46.88626" lon="4.74121">
        <ele>326.5</ele>
        <time>2012-03-24T14:32:14Z</time>
      </trkpt>
      <trkpt lat="46.88631" lon="4.74119">
        <ele>327</ele>
        <time>2012-03-24T14:32:16Z</time>
      </trkpt>
      <trkpt lat="46.8864" lon="4.74117">
        <ele>328</ele>
        <time>2012-03-24T14:32:20Z</time>
      </trkpt>
      <trkpt lat="46.88646" lon="4.74111">
        <ele>329</ele>
        <time>2012-03-24T14:32:24Z</time>
      </trkpt>
      <trkpt lat="46.88654" lon="4.741">
        <ele>329.5</ele>
        <time>2012-03-24T14:32:30Z</time>
      </trkpt>
      <trkpt lat="46.88656" lon="4.74096">
        <ele>330</ele>
        <time>2012-03-24T14:32:32Z</time>
      </trkpt>
      <trkpt lat="46.88659" lon="4.74092">
        <ele>330</ele>
        <time>2012-03-24T14:32:34Z</time>
      </trkpt>
      <trkpt lat="46.88664" lon="4.74085">
        <ele>330.5</ele>
        <time>2012-03-24T14:32:38Z</time>
      </trkpt>
      <trkpt lat="46.88666" lon="4.74082">
        <ele>330.5</ele>
        <time>2012-03-24T14:32:40Z</time>
      </trkpt>
      <trkpt lat="46.88672" lon="4.74064">
        <ele>331.5</ele>
        <time>2012-03-24T14:32:48Z</time>
      </trkpt>
      <trkpt lat="46.88675" lon="4.74053">
        <ele>332</ele>
        <time>2012-03-24T14:32:52Z</time>
      </trkpt>
      <trkpt lat="46.88678" lon="4.74042">
        <ele>332.5</ele>
        <time>2012-03-24T14:32:56Z</time>
      </trkpt>
      <trkpt lat="46.88679" lon="4.74037">
        <ele>332.5</ele>
        <time>2012-03-24T14:32:58Z</time>
      </trkpt>
      <trkpt lat="46.88682" lon="4.74027">
        <ele>333</ele>
        <time>2012-03-24T14:33:02Z</time>
      </trkpt>
      <trkpt lat="46.88684" lon="4.74017">
        <ele>334</ele>
        <time>2012-03-24T14:33:06Z</time>
      </trkpt>
      <trkpt lat="46.88686" lon="4.74008">
        <ele>335</ele>
        <time>2012-03-24T14:33:10Z</time>
      </trkpt>
      <trkpt lat="46.88686" lon="4.74004">
        <ele>335.5</ele>
        <time>2012-03-24T14:33:12Z</time>
      </trkpt>
      <trkpt lat="46.88688" lon="4.73996">
        <ele>337</ele>
        <time>2012-03-24T14:33:16Z</time>
      </trkpt>
      <trkpt lat="46.8869" lon="4.73988">
        <ele>338</ele>
        <time>2012-03-24T14:33:20Z</time>
      </trkpt>
      <trkpt lat="46.88692" lon="4.73983">
        <ele>338.5</ele>
        <time>2012-03-24T14:33:22Z</time>
      </trkpt>
      <trkpt lat="46.88693" lon="4.73979">
        <ele>339</ele>
        <time>2012-03-24T14:33:24Z</time>
      </trkpt>
      <trkpt lat="46.88699" lon="4.73966">
        <ele>340.5</ele>
        <time>2012-03-24T14:33:30Z</time>
      </trkpt>
      <trkpt lat="46.88705" lon="4.73961">
        <ele>341.5</ele>
        <time>2012-03-24T14:33:34Z</time>
      </trkpt>
      <trkpt lat="46.88713" lon="4.73951">
        <ele>343.5</ele>
        <time>2012-03-24T14:33:40Z</time>
      </trkpt>
      <trkpt lat="46.88727" lon="4.73936">
        <ele>345.5</ele>
        <time>2012-03-24T14:33:50Z</time>
      </trkpt>
      <trkpt lat="46.88735" lon="4.73928">
        <ele>347</ele>
        <time>2012-03-24T14:33:56Z</time>
      </trkpt>
      <trkpt lat="46.88738" lon="4.73925">
        <ele>348</ele>
        <time>2012-03-24T14:33:58Z</time>
      </trkpt>
      <trkpt lat="46.8874" lon="4.73923">
        <ele>348.5</ele>
        <time>2012-03-24T14:34:00Z</time>
      </trkpt>
      <trkpt lat="46.88748" lon="4.73915">
        <ele>350</ele>
        <time>2012-03-24T14:34:06Z</time>
      </trkpt>
      <trkpt lat="46.88754" lon="4.73909">
        <ele>350.5</ele>
        <time>2012-03-24T14:34:10Z</time>
      </trkpt>
      <trkpt lat="46.88757" lon="4.73905">
        <ele>351</ele>
        <time>2012-03-24T14:34:12Z</time>
      </trkpt>
      <trkpt lat="46.88772" lon="4.73893">
        <ele>352</ele>
        <time>2012-03-24T14:34:22Z</time>
      </trkpt>
      <trkpt lat="46.8878" lon="4.73889">
        <ele>352</ele>
        <time>2012-03-24T14:34:28Z</time>
      </trkpt>
      <trkpt lat="46.88785" lon="4.73887">
        <ele>352.5</ele>
        <time>2012-03-24T14:34:32Z</time>
      </trkpt>
      <trkpt lat="46.88794" lon="4.73884">
        <ele>353</ele>
        <time>2012-03-24T14:34:38Z</time>
      </trkpt>
      <trkpt lat="46.88799" lon="4.73882">
        <ele>353</ele>
        <time>2012-03-24T14:34:42Z</time>
      </trkpt>
      <trkpt lat="46.88808" lon="4.73878">
        <ele>354</ele>
        <time>2012-03-24T14:34:48Z</time>
      </trkpt>
      <trkpt lat="46.88814" lon="4.73876">
        <ele>354.5</ele>
        <time>2012-03-24T14:34:52Z</time>
      </trkpt>
      <trkpt lat="46.88818" lon="4.73876">
        <ele>355</ele>
        <time>2012-03-24T14:34:54Z</time>
      </trkpt>
      <trkpt lat="46.88821" lon="4.73875">
        <ele>355</ele>
        <time>2012-03-24T14:34:56Z</time>
      </trkpt>
      <trkpt lat="46.8883" lon="4.7387">
        <ele>355.5</ele>
        <time>2012-03-24T14:35:02Z</time>
      </trkpt>
      <trkpt lat="46.88835" lon="4.73866">
        <ele>356.5</ele>
        <time>2012-03-24T14:35:06Z</time>
      </trkpt>
      <trkpt lat="46.88839" lon="4.73863">
        <ele>356</ele>
        <time>2012-03-24T14:35:08Z</time>
      </trkpt>
      <trkpt lat="46.88845" lon="4.73859">
        <ele>356.5</ele>
        <time>2012-03-24T14:35:12Z</time>
      </trkpt>
      <trkpt lat="46.8885" lon="4.73853">
        <ele>357</ele>
        <time>2012-03-24T14:35:16Z</time>
      </trkpt>
      <trkpt lat="46.88853" lon="4.7385">
        <ele>357</ele>
        <time>2012-03-24T14:35:18Z</time>
      </trkpt>
      <trkpt lat="46.88855" lon="4.73847">
        <ele>357.5</ele>
        <time>2012-03-24T14:35:20Z</time>
      </trkpt>
      <trkpt lat="46.88863" lon="4.73837">
        <ele>358</ele>
        <time>2012-03-24T14:35:26Z</time>
      </trkpt>
      <trkpt lat="46.88868" lon="4.7383">
        <ele>359</ele>
        <time>2012-03-24T14:35:30Z</time>
      </trkpt>
      <trkpt lat="46.88871" lon="4.73826">
        <ele>359</ele>
        <time>2012-03-24T14:35:32Z</time>
      </trkpt>
      <trkpt lat="46.88879" lon="4.73815">
        <ele>360</ele>
        <time>2012-03-24T14:35:38Z</time>
      </trkpt>
      <trkpt lat="46.88885" lon="4.73803">
        <ele>360.5</ele>
        <time>2012-03-24T14:35:44Z</time>
      </trkpt>
      <trkpt lat="46.88888" lon="4.73794">
        <ele>361</ele>
        <time>2012-03-24T14:35:48Z</time>
      </trkpt>
      <trkpt lat="46.8889" lon="4.7379">
        <ele>361.5</ele>
        <time>2012-03-24T14:35:50Z</time>
      </trkpt>
      <trkpt lat="46.88892" lon="4.73786">
        <ele>361.5</ele>
        <time>2012-03-24T14:35:52Z</time>
      </trkpt>
      <trkpt lat="46.88893" lon="4.73781">
        <ele>362</ele>
        <time>2012-03-24T14:35:54Z</time>
      </trkpt>
      <trkpt lat="46.88896" lon="4.73772">
        <ele>362.5</ele>
        <time>2012-03-24T14:35:58Z</time>
      </trkpt>
      <trkpt lat="46.88897" lon="4.73768">
        <ele>362.5</ele>
        <time>2012-03-24T14:36:00Z</time>
      </trkpt>
      <trkpt lat="46.88901" lon="4.73758">
        <ele>363</ele>
        <time>2012-03-24T14:36:04Z</time>
      </trkpt>
      <trkpt lat="46.88904" lon="4.73749">
        <ele>363.5</ele>
        <time>2012-03-24T14:36:08Z</time>
      </trkpt>
      <trkpt lat="46.88907" lon="4.7374">
        <ele>364</ele>
        <time>2012-03-24T14:36:12Z</time>
      </trkpt>
      <trkpt lat="46.88908" lon="4.73735">
        <ele>364.5</ele>
        <time>2012-03-24T14:36:14Z</time>
      </trkpt>
      <trkpt lat="46.88911" lon="4.73725">
        <ele>364.5</ele>
        <time>2012-03-24T14:36:18Z</time>
      </trkpt>
      <trkpt lat="46.88912" lon="4.7372">
        <ele>365</ele>
        <time>2012-03-24T14:36:20Z</time>
      </trkpt>
      <trkpt lat="46.88916" lon="4.73699">
        <ele>366.5</ele>
        <time>2012-03-24T14:36:28Z</time>
      </trkpt>
      <trkpt lat="46.88917" lon="4.73694">
        <ele>366.5</ele>
        <time>2012-03-24T14:36:30Z</time>
      </trkpt>
      <trkpt lat="46.88919" lon="4.73688">
        <ele>367</ele>
        <time>2012-03-24T14:36:32Z</time>
      </trkpt>
      <trkpt lat="46.88921" lon="4.73677">
        <ele>367.5</ele>
        <time>2012-03-24T14:36:36Z</time>
      </trkpt>
      <trkpt lat="46.88923" lon="4.73665">
        <ele>368</ele>
        <time>2012-03-24T14:36:40Z</time>
      </trkpt>
      <trkpt lat="46.88924" lon="4.7366">
        <ele>368</ele>
        <time>2012-03-24T14:36:42Z</time>
      </trkpt>
      <trkpt lat="46.88926" lon="4.73641">
        <ele>369</ele>
        <time>2012-03-24T14:36:48Z</time>
      </trkpt>
      <trkpt lat="46.88926" lon="4.73621">
        <ele>369.5</ele>
        <time>2012-03-24T14:36:54Z</time>
      </trkpt>
      <trkpt lat="46.88927" lon="4.73603">
        <ele>369.5</ele>
        <time>2012-03-24T14:37:00Z</time>
      </trkpt>
      <trkpt lat="46.88928" lon="4.73585">
        <ele>369.5</ele>
        <time>2012-03-24T14:37:06Z</time>
      </trkpt>
      <trkpt lat="46.88929" lon="4.73579">
        <ele>370</ele>
        <time>2012-03-24T14:37:08Z</time>
      </trkpt>
      <trkpt lat="46.88935" lon="4.7356">
        <ele>369.5</ele>
        <time>2012-03-24T14:37:14Z</time>
      </trkpt>
      <trkpt lat="46.88937" lon="4.73553">
        <ele>369.5</ele>
        <time>2012-03-24T14:37:16Z</time>
      </trkpt>
      <trkpt lat="46.8894" lon="4.73536">
        <ele>369</ele>
        <time>2012-03-24T14:37:20Z</time>
      </trkpt>
      <trkpt lat="46.88941" lon="4.73529">
        <ele>369</ele>
        <time>2012-03-24T14:37:22Z</time>
      </trkpt>
      <trkpt lat="46.88941" lon="4.7352">
        <ele>369</ele>
        <time>2012-03-24T14:37:24Z</time>
      </trkpt>
      <trkpt lat="46.88944" lon="4.73503">
        <ele>369</ele>
        <time>2012-03-24T14:37:28Z</time>
      </trkpt>
      <trkpt lat="46.88951" lon="4.73478">
        <ele>369</ele>
        <time>2012-03-24T14:37:34Z</time>
      </trkpt>
      <trkpt lat="46.88955" lon="4.7347">
        <ele>368.5</ele>
        <time>2012-03-24T14:37:36Z</time>
      </trkpt>
      <trkpt lat="46.88964" lon="4.73453">
        <ele>368</ele>
        <time>2012-03-24T14:37:40Z</time>
      </trkpt>
      <trkpt lat="46.8897" lon="4.73443">
        <ele>368</ele>
        <time>2012-03-24T14:37:42Z</time>
      </trkpt>
      <trkpt lat="46.8898" lon="4.73425">
        <ele>367</ele>
        <time>2012-03-24T14:37:46Z</time>
      </trkpt>
      <trkpt lat="46.88992" lon="4.73428">
        <ele>366.5</ele>
        <time>2012-03-24T14:37:50Z</time>
      </trkpt>
      <trkpt lat="46.89008" lon="4.73436">
        <ele>365.5</ele>
        <time>2012-03-24T14:37:54Z</time>
      </trkpt>
      <trkpt lat="46.89019" lon="4.73441">
        <ele>364.5</ele>
        <time>2012-03-24T14:37:56Z</time>
      </trkpt>
      <trkpt lat="46.89045" lon="4.73449">
        <ele>362</ele>
        <time>2012-03-24T14:38:00Z</time>
      </trkpt>
      <trkpt lat="46.89072" lon="4.73457">
        <ele>359</ele>
        <time>2012-03-24T14:38:04Z</time>
      </trkpt>
      <trkpt lat="46.89086" lon="4.73481">
        <ele>357.5</ele>
        <time>2012-03-24T14:38:08Z</time>
      </trkpt>
      <trkpt lat="46.89096" lon="4.73508">
        <ele>357</ele>
        <time>2012-03-24T14:38:12Z</time>
      </trkpt>
      <trkpt lat="46.89107" lon="4.73532">
        <ele>356.5</ele>
        <time>2012-03-24T14:38:16Z</time>
      </trkpt>
      <trkpt lat="46.89119" lon="4.73558">
        <ele>356</ele>
        <time>2012-03-24T14:38:20Z</time>
      </trkpt>
      <trkpt lat="46.89135" lon="4.73579">
        <ele>355</ele>
        <time>2012-03-24T14:38:24Z</time>
      </trkpt>
      <trkpt lat="46.89149" lon="4.73603">
        <ele>354.5</ele>
        <time>2012-03-24T14:38:28Z</time>
      </trkpt>
      <trkpt lat="46.89164" lon="4.73627">
        <ele>353</ele>
        <time>2012-03-24T14:38:32Z</time>
      </trkpt>
      <trkpt lat="46.89179" lon="4.73655">
        <ele>351.5</ele>
        <time>2012-03-24T14:38:36Z</time>
      </trkpt>
      <trkpt lat="46.89189" lon="4.73689">
        <ele>350.5</ele>
        <time>2012-03-24T14:38:40Z</time>
      </trkpt>
      <trkpt lat="46.89194" lon="4.73722">
        <ele>350</ele>
        <time>2012-03-24T14:38:44Z</time>
      </trkpt>
      <trkpt lat="46.89196" lon="4.73752">
        <ele>351</ele>
        <time>2012-03-24T14:38:48Z</time>
      </trkpt>
      <trkpt lat="46.892" lon="4.73777">
        <ele>351.5</ele>
        <time>2012-03-24T14:38:52Z</time>
      </trkpt>
      <trkpt lat="46.89199" lon="4.738">
        <ele>351.5</ele>
        <time>2012-03-24T14:38:56Z</time>
      </trkpt>
      <trkpt lat="46.89201" lon="4.73822">
        <ele>352</ele>
        <time>2012-03-24T14:39:00Z</time>
      </trkpt>
      <trkpt lat="46.89204" lon="4.73842">
        <ele>352</ele>
        <time>2012-03-24T14:39:04Z</time>
      </trkpt>
      <trkpt lat="46.89208" lon="4.73857">
        <ele>352.5</ele>
        <time>2012-03-24T14:39:08Z</time>
      </trkpt>
      <trkpt lat="46.89208" lon="4.73857">
        <ele>352.5</ele>
        <time>2012-03-24T14:39:38Z</time>
      </trkpt>
      <trkpt lat="46.89208" lon="4.73857">
        <ele>352.5</ele>
        <time>2012-03-24T14:39:56Z</time>
      </trkpt>
      <trkpt lat="46.89212" lon="4.73868">
        <ele>354.5</ele>
        <time>2012-03-24T14:39:58Z</time>
      </trkpt>
      <trkpt lat="46.89216" lon="4.73878">
        <ele>354.5</ele>
        <time>2012-03-24T14:40:06Z</time>
      </trkpt>
      <trkpt lat="46.89223" lon="4.7389">
        <ele>354.5</ele>
        <time>2012-03-24T14:40:10Z</time>
      </trkpt>
      <trkpt lat="46.89229" lon="4.73896">
        <ele>354.5</ele>
        <time>2012-03-24T14:40:12Z</time>
      </trkpt>
      <trkpt lat="46.89235" lon="4.739">
        <ele>354.5</ele>
        <time>2012-03-24T14:40:14Z</time>
      </trkpt>
      <trkpt lat="46.89242" lon="4.73902">
        <ele>354.5</ele>
        <time>2012-03-24T14:40:16Z</time>
      </trkpt>
      <trkpt lat="46.89257" lon="4.73907">
        <ele>353.5</ele>
        <time>2012-03-24T14:40:20Z</time>
      </trkpt>
      <trkpt lat="46.89265" lon="4.73911">
        <ele>353.5</ele>
        <time>2012-03-24T14:40:22Z</time>
      </trkpt>
      <trkpt lat="46.89283" lon="4.73917">
        <ele>353</ele>
        <time>2012-03-24T14:40:26Z</time>
      </trkpt>
      <trkpt lat="46.893" lon="4.73929">
        <ele>352.5</ele>
        <time>2012-03-24T14:40:30Z</time>
      </trkpt>
      <trkpt lat="46.89319" lon="4.73939">
        <ele>352</ele>
        <time>2012-03-24T14:40:34Z</time>
      </trkpt>
      <trkpt lat="46.89338" lon="4.73946">
        <ele>351</ele>
        <time>2012-03-24T14:40:38Z</time>
      </trkpt>
      <trkpt lat="46.89358" lon="4.73953">
        <ele>350.5</ele>
        <time>2012-03-24T14:40:42Z</time>
      </trkpt>
      <trkpt lat="46.89382" lon="4.73965">
        <ele>349</ele>
        <time>2012-03-24T14:40:46Z</time>
      </trkpt>
      <trkpt lat="46.89406" lon="4.73978">
        <ele>347.5</ele>
        <time>2012-03-24T14:40:50Z</time>
      </trkpt>
      <trkpt lat="46.89431" lon="4.73994">
        <ele>345.5</ele>
        <time>2012-03-24T14:40:54Z</time>
      </trkpt>
      <trkpt lat="46.89459" lon="4.74002">
        <ele>343.5</ele>
        <time>2012-03-24T14:40:58Z</time>
      </trkpt>
      <trkpt lat="46.89485" lon="4.74027">
        <ele>341</ele>
        <time>2012-03-24T14:41:02Z</time>
      </trkpt>
      <trkpt lat="46.89497" lon="4.74042">
        <ele>340</ele>
        <time>2012-03-24T14:41:04Z</time>
      </trkpt>
      <trkpt lat="46.89504" lon="4.74047">
        <ele>339.5</ele>
        <time>2012-03-24T14:41:05Z</time>
      </trkpt>
      <trkpt lat="46.89511" lon="4.74053">
        <ele>338.5</ele>
        <time>2012-03-24T14:41:06Z</time>
      </trkpt>
      <trkpt lat="46.89525" lon="4.74066">
        <ele>337</ele>
        <time>2012-03-24T14:41:08Z</time>
      </trkpt>
      <trkpt lat="46.89533" lon="4.74073">
        <ele>336.5</ele>
        <time>2012-03-24T14:41:09Z</time>
      </trkpt>
      <trkpt lat="46.89541" lon="4.74078">
        <ele>336</ele>
        <time>2012-03-24T14:41:10Z</time>
      </trkpt>
      <trkpt lat="46.89556" lon="4.74091">
        <ele>335</ele>
        <time>2012-03-24T14:41:12Z</time>
      </trkpt>
      <trkpt lat="46.89564" lon="4.74098">
        <ele>334</ele>
        <time>2012-03-24T14:41:13Z</time>
      </trkpt>
      <trkpt lat="46.89571" lon="4.74106">
        <ele>333.5</ele>
        <time>2012-03-24T14:41:14Z</time>
      </trkpt>
      <trkpt lat="46.89589" lon="4.74116">
        <ele>332</ele>
        <time>2012-03-24T14:41:16Z</time>
      </trkpt>
      <trkpt lat="46.89598" lon="4.74119">
        <ele>331</ele>
        <time>2012-03-24T14:41:17Z</time>
      </trkpt>
      <trkpt lat="46.89608" lon="4.74121">
        <ele>330.5</ele>
        <time>2012-03-24T14:41:18Z</time>
      </trkpt>
      <trkpt lat="46.89626" lon="4.7413">
        <ele>329</ele>
        <time>2012-03-24T14:41:20Z</time>
      </trkpt>
      <trkpt lat="46.89635" lon="4.74136">
        <ele>328</ele>
        <time>2012-03-24T14:41:21Z</time>
      </trkpt>
      <trkpt lat="46.89643" lon="4.74142">
        <ele>327</ele>
        <time>2012-03-24T14:41:22Z</time>
      </trkpt>
      <trkpt lat="46.89653" lon="4.74146">
        <ele>326</ele>
        <time>2012-03-24T14:41:23Z</time>
      </trkpt>
      <trkpt lat="46.89672" lon="4.74155">
        <ele>324</ele>
        <time>2012-03-24T14:41:25Z</time>
      </trkpt>
      <trkpt lat="46.89681" lon="4.7416">
        <ele>323</ele>
        <time>2012-03-24T14:41:26Z</time>
      </trkpt>
      <trkpt lat="46.89692" lon="4.74165">
        <ele>322</ele>
        <time>2012-03-24T14:41:27Z</time>
      </trkpt>
      <trkpt lat="46.89712" lon="4.74175">
        <ele>320</ele>
        <time>2012-03-24T14:41:29Z</time>
      </trkpt>
      <trkpt lat="46.89723" lon="4.74181">
        <ele>319</ele>
        <time>2012-03-24T14:41:30Z</time>
      </trkpt>
      <trkpt lat="46.89733" lon="4.74187">
        <ele>318</ele>
        <time>2012-03-24T14:41:31Z</time>
      </trkpt>
      <trkpt lat="46.89754" lon="4.74203">
        <ele>317.5</ele>
        <time>2012-03-24T14:41:33Z</time>
      </trkpt>
      <trkpt lat="46.89764" lon="4.74211">
        <ele>316.5</ele>
        <time>2012-03-24T14:41:34Z</time>
      </trkpt>
      <trkpt lat="46.89774" lon="4.74219">
        <ele>314.5</ele>
        <time>2012-03-24T14:41:35Z</time>
      </trkpt>
      <trkpt lat="46.89792" lon="4.74232">
        <ele>313.5</ele>
        <time>2012-03-24T14:41:37Z</time>
      </trkpt>
      <trkpt lat="46.89799" lon="4.74238">
        <ele>313.5</ele>
        <time>2012-03-24T14:41:38Z</time>
      </trkpt>
      <trkpt lat="46.89807" lon="4.74244">
        <ele>313</ele>
        <time>2012-03-24T14:41:39Z</time>
      </trkpt>
      <trkpt lat="46.89815" lon="4.74249">
        <ele>313</ele>
        <time>2012-03-24T14:41:40Z</time>
      </trkpt>
      <trkpt lat="46.89834" lon="4.74249">
        <ele>313.5</ele>
        <time>2012-03-24T14:41:42Z</time>
      </trkpt>
      <trkpt lat="46.89844" lon="4.74249">
        <ele>311.5</ele>
        <time>2012-03-24T14:41:43Z</time>
      </trkpt>
      <trkpt lat="46.89853" lon="4.74251">
        <ele>310</ele>
        <time>2012-03-24T14:41:44Z</time>
      </trkpt>
      <trkpt lat="46.89861" lon="4.74253">
        <ele>308.5</ele>
        <time>2012-03-24T14:41:45Z</time>
      </trkpt>
      <trkpt lat="46.89878" lon="4.74256">
        <ele>305.5</ele>
        <time>2012-03-24T14:41:47Z</time>
      </trkpt>
      <trkpt lat="46.89887" lon="4.74258">
        <ele>304</ele>
        <time>2012-03-24T14:41:48Z</time>
      </trkpt>
      <trkpt lat="46.89895" lon="4.74261">
        <ele>302.5</ele>
        <time>2012-03-24T14:41:49Z</time>
      </trkpt>
      <trkpt lat="46.8991" lon="4.74273">
        <ele>300</ele>
        <time>2012-03-24T14:41:51Z</time>
      </trkpt>
      <trkpt lat="46.89918" lon="4.74281">
        <ele>299</ele>
        <time>2012-03-24T14:41:52Z</time>
      </trkpt>
      <trkpt lat="46.89926" lon="4.74288">
        <ele>297.5</ele>
        <time>2012-03-24T14:41:53Z</time>
      </trkpt>
      <trkpt lat="46.8996" lon="4.74317">
        <ele>292.5</ele>
        <time>2012-03-24T14:41:55Z</time>
      </trkpt>
      <trkpt lat="46.89968" lon="4.74323">
        <ele>291.5</ele>
        <time>2012-03-24T14:41:56Z</time>
      </trkpt>
      <trkpt lat="46.89974" lon="4.74328">
        <ele>290.5</ele>
        <time>2012-03-24T14:41:57Z</time>
      </trkpt>
      <trkpt lat="46.89986" lon="4.74337">
        <ele>289</ele>
        <time>2012-03-24T14:41:59Z</time>
      </trkpt>
      <trkpt lat="46.89991" lon="4.74341">
        <ele>288.5</ele>
        <time>2012-03-24T14:42:00Z</time>
      </trkpt>
      <trkpt lat="46.89995" lon="4.74344">
        <ele>287.5</ele>
        <time>2012-03-24T14:42:01Z</time>
      </trkpt>
      <trkpt lat="46.89999" lon="4.74345">
        <ele>287</ele>
        <time>2012-03-24T14:42:02Z</time>
      </trkpt>
      <trkpt lat="46.90009" lon="4.74356">
        <ele>285</ele>
        <time>2012-03-24T14:42:07Z</time>
      </trkpt>
      <trkpt lat="46.90014" lon="4.7436">
        <ele>284.5</ele>
        <time>2012-03-24T14:42:11Z</time>
      </trkpt>
      <trkpt lat="46.90014" lon="4.7436">
        <ele>284.5</ele>
        <time>2012-03-24T14:42:37Z</time>
      </trkpt>
      <trkpt lat="46.90014" lon="4.7436">
        <ele>284.5</ele>
        <time>2012-03-24T14:42:56Z</time>
      </trkpt>
      <trkpt lat="46.9002" lon="4.74353">
        <ele>284</ele>
        <time>2012-03-24T14:42:59Z</time>
      </trkpt>
      <trkpt lat="46.90024" lon="4.74345">
        <ele>283.5</ele>
        <time>2012-03-24T14:43:01Z</time>
      </trkpt>
      <trkpt lat="46.90037" lon="4.74325">
        <ele>281.5</ele>
        <time>2012-03-24T14:43:05Z</time>
      </trkpt>
      <trkpt lat="46.90046" lon="4.74313">
        <ele>280</ele>
        <time>2012-03-24T14:43:07Z</time>
      </trkpt>
      <trkpt lat="46.90069" lon="4.74287">
        <ele>277.5</ele>
        <time>2012-03-24T14:43:11Z</time>
      </trkpt>
      <trkpt lat="46.90097" lon="4.74258">
        <ele>275</ele>
        <time>2012-03-24T14:43:15Z</time>
      </trkpt>
      <trkpt lat="46.90112" lon="4.74245">
        <ele>274</ele>
        <time>2012-03-24T14:43:17Z</time>
      </trkpt>
      <trkpt lat="46.9012" lon="4.74238">
        <ele>273</ele>
        <time>2012-03-24T14:43:18Z</time>
      </trkpt>
      <trkpt lat="46.90143" lon="4.74218">
        <ele>271.5</ele>
        <time>2012-03-24T14:43:21Z</time>
      </trkpt>
      <trkpt lat="46.90151" lon="4.74211">
        <ele>271.5</ele>
        <time>2012-03-24T14:43:22Z</time>
      </trkpt>
      <trkpt lat="46.90158" lon="4.74204">
        <ele>271</ele>
        <time>2012-03-24T14:43:23Z</time>
      </trkpt>
      <trkpt lat="46.90172" lon="4.7419">
        <ele>270.5</ele>
        <time>2012-03-24T14:43:25Z</time>
      </trkpt>
      <trkpt lat="46.90179" lon="4.74183">
        <ele>270.5</ele>
        <time>2012-03-24T14:43:26Z</time>
      </trkpt>
      <trkpt lat="46.90186" lon="4.74176">
        <ele>270.5</ele>
        <time>2012-03-24T14:43:27Z</time>
      </trkpt>
      <trkpt lat="46.90199" lon="4.74163">
        <ele>270.5</ele>
        <time>2012-03-24T14:43:29Z</time>
      </trkpt>
      <trkpt lat="46.90205" lon="4.74156">
        <ele>270.5</ele>
        <time>2012-03-24T14:43:30Z</time>
      </trkpt>
      <trkpt lat="46.90211" lon="4.74151">
        <ele>271</ele>
        <time>2012-03-24T14:43:31Z</time>
      </trkpt>
      <trkpt lat="46.90221" lon="4.74139">
        <ele>271</ele>
        <time>2012-03-24T14:43:33Z</time>
      </trkpt>
      <trkpt lat="46.90225" lon="4.74133">
        <ele>271.5</ele>
        <time>2012-03-24T14:43:34Z</time>
      </trkpt>
      <trkpt lat="46.90229" lon="4.74127">
        <ele>272</ele>
        <time>2012-03-24T14:43:35Z</time>
      </trkpt>
      <trkpt lat="46.90248" lon="4.74103">
        <ele>273.5</ele>
        <time>2012-03-24T14:43:40Z</time>
      </trkpt>
      <trkpt lat="46.9026" lon="4.74087">
        <ele>274.5</ele>
        <time>2012-03-24T14:43:44Z</time>
      </trkpt>
      <trkpt lat="46.90271" lon="4.74074">
        <ele>275.5</ele>
        <time>2012-03-24T14:43:48Z</time>
      </trkpt>
      <trkpt lat="46.90285" lon="4.74055">
        <ele>277</ele>
        <time>2012-03-24T14:43:54Z</time>
      </trkpt>
      <trkpt lat="46.90294" lon="4.74045">
        <ele>277.5</ele>
        <time>2012-03-24T14:43:58Z</time>
      </trkpt>
      <trkpt lat="46.90308" lon="4.74029">
        <ele>279</ele>
        <time>2012-03-24T14:44:04Z</time>
      </trkpt>
      <trkpt lat="46.90313" lon="4.74023">
        <ele>279.5</ele>
        <time>2012-03-24T14:44:06Z</time>
      </trkpt>
      <trkpt lat="46.90326" lon="4.7401">
        <ele>280.5</ele>
        <time>2012-03-24T14:44:12Z</time>
      </trkpt>
      <trkpt lat="46.90339" lon="4.73997">
        <ele>281.5</ele>
        <time>2012-03-24T14:44:18Z</time>
      </trkpt>
      <trkpt lat="46.90349" lon="4.73999">
        <ele>282</ele>
        <time>2012-03-24T14:44:22Z</time>
      </trkpt>
      <trkpt lat="46.90353" lon="4.74005">
        <ele>282</ele>
        <time>2012-03-24T14:44:24Z</time>
      </trkpt>
      <trkpt lat="46.90357" lon="4.74012">
        <ele>281.5</ele>
        <time>2012-03-24T14:44:26Z</time>
      </trkpt>
      <trkpt lat="46.90365" lon="4.74028">
        <ele>281</ele>
        <time>2012-03-24T14:44:30Z</time>
      </trkpt>
      <trkpt lat="46.9037" lon="4.74036">
        <ele>281</ele>
        <time>2012-03-24T14:44:32Z</time>
      </trkpt>
      <trkpt lat="46.90375" lon="4.74045">
        <ele>281</ele>
        <time>2012-03-24T14:44:34Z</time>
      </trkpt>
      <trkpt lat="46.90386" lon="4.74061">
        <ele>280.5</ele>
        <time>2012-03-24T14:44:38Z</time>
      </trkpt>
      <trkpt lat="46.90397" lon="4.74078">
        <ele>279.5</ele>
        <time>2012-03-24T14:44:42Z</time>
      </trkpt>
      <trkpt lat="46.90412" lon="4.74097">
        <ele>279</ele>
        <time>2012-03-24T14:44:46Z</time>
      </trkpt>
      <trkpt lat="46.90419" lon="4.74107">
        <ele>278.5</ele>
        <time>2012-03-24T14:44:48Z</time>
      </trkpt>
      <trkpt lat="46.90434" lon="4.74128">
        <ele>277.5</ele>
        <time>2012-03-24T14:44:52Z</time>
      </trkpt>
      <trkpt lat="46.90451" lon="4.74148">
        <ele>276.5</ele>
        <time>2012-03-24T14:44:56Z</time>
      </trkpt>
      <trkpt lat="46.90469" lon="4.74171">
        <ele>275</ele>
        <time>2012-03-24T14:45:00Z</time>
      </trkpt>
      <trkpt lat="46.90485" lon="4.74201">
        <ele>273.5</ele>
        <time>2012-03-24T14:45:04Z</time>
      </trkpt>
      <trkpt lat="46.90498" lon="4.74236">
        <ele>272</ele>
        <time>2012-03-24T14:45:08Z</time>
      </trkpt>
      <trkpt lat="46.9051" lon="4.74271">
        <ele>271.5</ele>
        <time>2012-03-24T14:45:12Z</time>
      </trkpt>
      <trkpt lat="46.9052" lon="4.74308">
        <ele>271</ele>
        <time>2012-03-24T14:45:16Z</time>
      </trkpt>
      <trkpt lat="46.90529" lon="4.74343">
        <ele>270.5</ele>
        <time>2012-03-24T14:45:20Z</time>
      </trkpt>
      <trkpt lat="46.9054" lon="4.74377">
        <ele>270.5</ele>
        <time>2012-03-24T14:45:24Z</time>
      </trkpt>
      <trkpt lat="46.90554" lon="4.74405">
        <ele>270.5</ele>
        <time>2012-03-24T14:45:28Z</time>
      </trkpt>
      <trkpt lat="46.90571" lon="4.74428">
        <ele>270.5</ele>
        <time>2012-03-24T14:45:32Z</time>
      </trkpt>
      <trkpt lat="46.90584" lon="4.74454">
        <ele>270.5</ele>
        <time>2012-03-24T14:45:36Z</time>
      </trkpt>
      <trkpt lat="46.90596" lon="4.74479">
        <ele>270.5</ele>
        <time>2012-03-24T14:45:40Z</time>
      </trkpt>
      <trkpt lat="46.90604" lon="4.74506">
        <ele>270.5</ele>
        <time>2012-03-24T14:45:44Z</time>
      </trkpt>
      <trkpt lat="46.90608" lon="4.74535">
        <ele>270.5</ele>
        <time>2012-03-24T14:45:48Z</time>
      </trkpt>
      <trkpt lat="46.90613" lon="4.7456">
        <ele>270.5</ele>
        <time>2012-03-24T14:45:52Z</time>
      </trkpt>
      <trkpt lat="46.90624" lon="4.74578">
        <ele>271.5</ele>
        <time>2012-03-24T14:45:56Z</time>
      </trkpt>
      <trkpt lat="46.90635" lon="4.74591">
        <ele>272.5</ele>
        <time>2012-03-24T14:46:00Z</time>
      </trkpt>
      <trkpt lat="46.9064" lon="4.74597">
        <ele>272.5</ele>
        <time>2012-03-24T14:46:02Z</time>
      </trkpt>
      <trkpt lat="46.90652" lon="4.74609">
        <ele>273.5</ele>
        <time>2012-03-24T14:46:06Z</time>
      </trkpt>
      <trkpt lat="46.90657" lon="4.74615">
        <ele>274</ele>
        <time>2012-03-24T14:46:08Z</time>
      </trkpt>
      <trkpt lat="46.90665" lon="4.7463">
        <ele>274.5</ele>
        <time>2012-03-24T14:46:12Z</time>
      </trkpt>
      <trkpt lat="46.9067" lon="4.74637">
        <ele>274</ele>
        <time>2012-03-24T14:46:14Z</time>
      </trkpt>
      <trkpt lat="46.90695" lon="4.74621">
        <ele>269.5</ele>
        <time>2012-03-24T14:46:20Z</time>
      </trkpt>
      <trkpt lat="46.90717" lon="4.74597">
        <ele>269.5</ele>
        <time>2012-03-24T14:46:24Z</time>
      </trkpt>
      <trkpt lat="46.90737" lon="4.74576">
        <ele>269.5</ele>
        <time>2012-03-24T14:46:28Z</time>
      </trkpt>
      <trkpt lat="46.90758" lon="4.74557">
        <ele>270</ele>
        <time>2012-03-24T14:46:32Z</time>
      </trkpt>
      <trkpt lat="46.90777" lon="4.74539">
        <ele>270</ele>
        <time>2012-03-24T14:46:36Z</time>
      </trkpt>
      <trkpt lat="46.90796" lon="4.74515">
        <ele>270</ele>
        <time>2012-03-24T14:46:40Z</time>
      </trkpt>
      <trkpt lat="46.90814" lon="4.74488">
        <ele>270.5</ele>
        <time>2012-03-24T14:46:44Z</time>
      </trkpt>
      <trkpt lat="46.90828" lon="4.74457">
        <ele>270</ele>
        <time>2012-03-24T14:46:48Z</time>
      </trkpt>
      <trkpt lat="46.90844" lon="4.74427">
        <ele>269.5</ele>
        <time>2012-03-24T14:46:52Z</time>
      </trkpt>
      <trkpt lat="46.90862" lon="4.74403">
        <ele>269.5</ele>
        <time>2012-03-24T14:46:56Z</time>
      </trkpt>
      <trkpt lat="46.90882" lon="4.74383">
        <ele>271</ele>
        <time>2012-03-24T14:47:00Z</time>
      </trkpt>
      <trkpt lat="46.90904" lon="4.74368">
        <ele>272.5</ele>
        <time>2012-03-24T14:47:04Z</time>
      </trkpt>
      <trkpt lat="46.90928" lon="4.7436">
        <ele>272.5</ele>
        <time>2012-03-24T14:47:08Z</time>
      </trkpt>
      <trkpt lat="46.90953" lon="4.74351">
        <ele>272</ele>
        <time>2012-03-24T14:47:12Z</time>
      </trkpt>
      <trkpt lat="46.90976" lon="4.74343">
        <ele>271.5</ele>
        <time>2012-03-24T14:47:16Z</time>
      </trkpt>
      <trkpt lat="46.90996" lon="4.7433">
        <ele>271.5</ele>
        <time>2012-03-24T14:47:20Z</time>
      </trkpt>
      <trkpt lat="46.91016" lon="4.74312">
        <ele>272.5</ele>
        <time>2012-03-24T14:47:24Z</time>
      </trkpt>
      <trkpt lat="46.91034" lon="4.7429">
        <ele>274</ele>
        <time>2012-03-24T14:47:28Z</time>
      </trkpt>
      <trkpt lat="46.91053" lon="4.74269">
        <ele>274.5</ele>
        <time>2012-03-24T14:47:32Z</time>
      </trkpt>
      <trkpt lat="46.91068" lon="4.74244">
        <ele>274.5</ele>
        <time>2012-03-24T14:47:36Z</time>
      </trkpt>
      <trkpt lat="46.91082" lon="4.74215">
        <ele>274.5</ele>
        <time>2012-03-24T14:47:40Z</time>
      </trkpt>
      <trkpt lat="46.91095" lon="4.74186">
        <ele>273.5</ele>
        <time>2012-03-24T14:47:44Z</time>
      </trkpt>
      <trkpt lat="46.91103" lon="4.74153">
        <ele>273</ele>
        <time>2012-03-24T14:47:48Z</time>
      </trkpt>
      <trkpt lat="46.91104" lon="4.74119">
        <ele>273.5</ele>
        <time>2012-03-24T14:47:52Z</time>
      </trkpt>
      <trkpt lat="46.911" lon="4.74085">
        <ele>272.5</ele>
        <time>2012-03-24T14:47:56Z</time>
      </trkpt>
      <trkpt lat="46.91093" lon="4.74052">
        <ele>272.5</ele>
        <time>2012-03-24T14:48:00Z</time>
      </trkpt>
      <trkpt lat="46.91085" lon="4.74019">
        <ele>272</ele>
        <time>2012-03-24T14:48:04Z</time>
      </trkpt>
      <trkpt lat="46.91076" lon="4.73986">
        <ele>272</ele>
        <time>2012-03-24T14:48:08Z</time>
      </trkpt>
      <trkpt lat="46.91068" lon="4.73955">
        <ele>271.5</ele>
        <time>2012-03-24T14:48:12Z</time>
      </trkpt>
      <trkpt lat="46.91058" lon="4.73923">
        <ele>271</ele>
        <time>2012-03-24T14:48:16Z</time>
      </trkpt>
      <trkpt lat="46.91049" lon="4.73892">
        <ele>270.5</ele>
        <time>2012-03-24T14:48:20Z</time>
      </trkpt>
      <trkpt lat="46.91041" lon="4.7386">
        <ele>270.5</ele>
        <time>2012-03-24T14:48:24Z</time>
      </trkpt>
      <trkpt lat="46.91033" lon="4.73826">
        <ele>270</ele>
        <time>2012-03-24T14:48:28Z</time>
      </trkpt>
      <trkpt lat="46.91028" lon="4.73792">
        <ele>270</ele>
        <time>2012-03-24T14:48:32Z</time>
      </trkpt>
      <trkpt lat="46.91026" lon="4.73758">
        <ele>271.5</ele>
        <time>2012-03-24T14:48:36Z</time>
      </trkpt>
      <trkpt lat="46.91024" lon="4.73723">
        <ele>271.5</ele>
        <time>2012-03-24T14:48:40Z</time>
      </trkpt>
      <trkpt lat="46.91024" lon="4.73689">
        <ele>271.5</ele>
        <time>2012-03-24T14:48:44Z</time>
      </trkpt>
      <trkpt lat="46.9102" lon="4.73657">
        <ele>271</ele>
        <time>2012-03-24T14:48:48Z</time>
      </trkpt>
      <trkpt lat="46.91015" lon="4.73624">
        <ele>270.5</ele>
        <time>2012-03-24T14:48:52Z</time>
      </trkpt>
      <trkpt lat="46.91009" lon="4.73593">
        <ele>269</ele>
        <time>2012-03-24T14:48:56Z</time>
      </trkpt>
      <trkpt lat="46.91001" lon="4.7356">
        <ele>269</ele>
        <time>2012-03-24T14:49:00Z</time>
      </trkpt>
      <trkpt lat="46.90995" lon="4.73527">
        <ele>269.5</ele>
        <time>2012-03-24T14:49:04Z</time>
      </trkpt>
      <trkpt lat="46.90989" lon="4.73494">
        <ele>269.5</ele>
        <time>2012-03-24T14:49:08Z</time>
      </trkpt>
      <trkpt lat="46.90983" lon="4.7346">
        <ele>269.5</ele>
        <time>2012-03-24T14:49:12Z</time>
      </trkpt>
      <trkpt lat="46.90976" lon="4.73426">
        <ele>269.5</ele>
        <time>2012-03-24T14:49:16Z</time>
      </trkpt>
      <trkpt lat="46.90968" lon="4.73393">
        <ele>269</ele>
        <time>2012-03-24T14:49:20Z</time>
      </trkpt>
      <trkpt lat="46.90955" lon="4.73362">
        <ele>269</ele>
        <time>2012-03-24T14:49:24Z</time>
      </trkpt>
      <trkpt lat="46.90937" lon="4.73338">
        <ele>269</ele>
        <time>2012-03-24T14:49:28Z</time>
      </trkpt>
      <trkpt lat="46.90915" lon="4.7332">
        <ele>269.5</ele>
        <time>2012-03-24T14:49:32Z</time>
      </trkpt>
      <trkpt lat="46.90889" lon="4.73308">
        <ele>271</ele>
        <time>2012-03-24T14:49:36Z</time>
      </trkpt>
      <trkpt lat="46.90873" lon="4.73285">
        <ele>271.5</ele>
        <time>2012-03-24T14:49:40Z</time>
      </trkpt>
      <trkpt lat="46.90874" lon="4.73269">
        <ele>269</ele>
        <time>2012-03-24T14:49:44Z</time>
      </trkpt>
      <trkpt lat="46.90894" lon="4.73263">
        <ele>266</ele>
        <time>2012-03-24T14:49:48Z</time>
      </trkpt>
      <trkpt lat="46.90907" lon="4.73256">
        <ele>266</ele>
        <time>2012-03-24T14:49:50Z</time>
      </trkpt>
      <trkpt lat="46.90933" lon="4.73244">
        <ele>264.5</ele>
        <time>2012-03-24T14:49:54Z</time>
      </trkpt>
      <trkpt lat="46.90962" lon="4.73233">
        <ele>262.5</ele>
        <time>2012-03-24T14:49:58Z</time>
      </trkpt>
      <trkpt lat="46.90991" lon="4.73216">
        <ele>261</ele>
        <time>2012-03-24T14:50:02Z</time>
      </trkpt>
      <trkpt lat="46.90998" lon="4.73208">
        <ele>261</ele>
        <time>2012-03-24T14:50:04Z</time>
      </trkpt>
      <trkpt lat="46.91" lon="4.73206">
        <ele>261</ele>
        <time>2012-03-24T14:50:05Z</time>
      </trkpt>
      <trkpt lat="46.91002" lon="4.73184">
        <ele>261</ele>
        <time>2012-03-24T14:50:13Z</time>
      </trkpt>
      <trkpt lat="46.90989" lon="4.73158">
        <ele>261</ele>
        <time>2012-03-24T14:50:19Z</time>
      </trkpt>
      <trkpt lat="46.90984" lon="4.73148">
        <ele>260.5</ele>
        <time>2012-03-24T14:50:21Z</time>
      </trkpt>
      <trkpt lat="46.90978" lon="4.73139">
        <ele>260.5</ele>
        <time>2012-03-24T14:50:23Z</time>
      </trkpt>
      <trkpt lat="46.90966" lon="4.73118">
        <ele>261</ele>
        <time>2012-03-24T14:50:27Z</time>
      </trkpt>
      <trkpt lat="46.90954" lon="4.73095">
        <ele>260.5</ele>
        <time>2012-03-24T14:50:31Z</time>
      </trkpt>
      <trkpt lat="46.90943" lon="4.73072">
        <ele>261</ele>
        <time>2012-03-24T14:50:35Z</time>
      </trkpt>
      <trkpt lat="46.90933" lon="4.73048">
        <ele>261</ele>
        <time>2012-03-24T14:50:39Z</time>
      </trkpt>
      <trkpt lat="46.90923" lon="4.73024">
        <ele>260.5</ele>
        <time>2012-03-24T14:50:43Z</time>
      </trkpt>
      <trkpt lat="46.90916" lon="4.72997">
        <ele>260.5</ele>
        <time>2012-03-24T14:50:47Z</time>
      </trkpt>
      <trkpt lat="46.9091" lon="4.72969">
        <ele>260</ele>
        <time>2012-03-24T14:50:51Z</time>
      </trkpt>
      <trkpt lat="46.90903" lon="4.72939">
        <ele>260</ele>
        <time>2012-03-24T14:50:55Z</time>
      </trkpt>
      <trkpt lat="46.90899" lon="4.72908">
        <ele>259.5</ele>
        <time>2012-03-24T14:50:59Z</time>
      </trkpt>
      <trkpt lat="46.90897" lon="4.72876">
        <ele>259.5</ele>
        <time>2012-03-24T14:51:03Z</time>
      </trkpt>
      <trkpt lat="46.90897" lon="4.72844">
        <ele>259</ele>
        <time>2012-03-24T14:51:07Z</time>
      </trkpt>
      <trkpt lat="46.90896" lon="4.72812">
        <ele>259</ele>
        <time>2012-03-24T14:51:11Z</time>
      </trkpt>
      <trkpt lat="46.90896" lon="4.72781">
        <ele>259.5</ele>
        <time>2012-03-24T14:51:15Z</time>
      </trkpt>
      <trkpt lat="46.90892" lon="4.72748">
        <ele>259</ele>
        <time>2012-03-24T14:51:19Z</time>
      </trkpt>
      <trkpt lat="46.90885" lon="4.72718">
        <ele>259</ele>
        <time>2012-03-24T14:51:23Z</time>
      </trkpt>
      <trkpt lat="46.90878" lon="4.72686">
        <ele>258.5</ele>
        <time>2012-03-24T14:51:27Z</time>
      </trkpt>
      <trkpt lat="46.90872" lon="4.72656">
        <ele>258.5</ele>
        <time>2012-03-24T14:51:31Z</time>
      </trkpt>
      <trkpt lat="46.90869" lon="4.72626">
        <ele>258.5</ele>
        <time>2012-03-24T14:51:35Z</time>
      </trkpt>
      <trkpt lat="46.90868" lon="4.72594">
        <ele>258</ele>
        <time>2012-03-24T14:51:39Z</time>
      </trkpt>
      <trkpt lat="46.90867" lon="4.72561">
        <ele>258</ele>
        <time>2012-03-24T14:51:43Z</time>
      </trkpt>
      <trkpt lat="46.90866" lon="4.72529">
        <ele>258.5</ele>
        <time>2012-03-24T14:51:47Z</time>
      </trkpt>
      <trkpt lat="46.90866" lon="4.72498">
        <ele>258.5</ele>
        <time>2012-03-24T14:51:51Z</time>
      </trkpt>
      <trkpt lat="46.90865" lon="4.72468">
        <ele>259.5</ele>
        <time>2012-03-24T14:51:55Z</time>
      </trkpt>
      <trkpt lat="46.90863" lon="4.72437">
        <ele>260</ele>
        <time>2012-03-24T14:51:59Z</time>
      </trkpt>
      <trkpt lat="46.90859" lon="4.72407">
        <ele>259</ele>
        <time>2012-03-24T14:52:03Z</time>
      </trkpt>
      <trkpt lat="46.90852" lon="4.72375">
        <ele>258</ele>
        <time>2012-03-24T14:52:07Z</time>
      </trkpt>
      <trkpt lat="46.90843" lon="4.72344">
        <ele>259</ele>
        <time>2012-03-24T14:52:11Z</time>
      </trkpt>
      <trkpt lat="46.90836" lon="4.72313">
        <ele>259</ele>
        <time>2012-03-24T14:52:15Z</time>
      </trkpt>
      <trkpt lat="46.90828" lon="4.72283">
        <ele>258.5</ele>
        <time>2012-03-24T14:52:19Z</time>
      </trkpt>
      <trkpt lat="46.90817" lon="4.72252">
        <ele>257.5</ele>
        <time>2012-03-24T14:52:23Z</time>
      </trkpt>
      <trkpt lat="46.90807" lon="4.72221">
        <ele>257</ele>
        <time>2012-03-24T14:52:27Z</time>
      </trkpt>
      <trkpt lat="46.90803" lon="4.72203">
        <ele>257</ele>
        <time>2012-03-24T14:52:31Z</time>
      </trkpt>
      <trkpt lat="46.90817" lon="4.72188">
        <ele>257</ele>
        <time>2012-03-24T14:52:37Z</time>
      </trkpt>
      <trkpt lat="46.9083" lon="4.72176">
        <ele>257.5</ele>
        <time>2012-03-24T14:52:41Z</time>
      </trkpt>
      <trkpt lat="46.90836" lon="4.7217">
        <ele>257.5</ele>
        <time>2012-03-24T14:52:43Z</time>
      </trkpt>
      <trkpt lat="46.90848" lon="4.72158">
        <ele>258</ele>
        <time>2012-03-24T14:52:47Z</time>
      </trkpt>
      <trkpt lat="46.90861" lon="4.72146">
        <ele>258.5</ele>
        <time>2012-03-24T14:52:51Z</time>
      </trkpt>
      <trkpt lat="46.90876" lon="4.72142">
        <ele>258.5</ele>
        <time>2012-03-24T14:52:55Z</time>
      </trkpt>
      <trkpt lat="46.90889" lon="4.72154">
        <ele>258.5</ele>
        <time>2012-03-24T14:52:59Z</time>
      </trkpt>
      <trkpt lat="46.90901" lon="4.72169">
        <ele>259</ele>
        <time>2012-03-24T14:53:03Z</time>
      </trkpt>
      <trkpt lat="46.90914" lon="4.72183">
        <ele>258.5</ele>
        <time>2012-03-24T14:53:07Z</time>
      </trkpt>
      <trkpt lat="46.90925" lon="4.722">
        <ele>259</ele>
        <time>2012-03-24T14:53:11Z</time>
      </trkpt>
      <trkpt lat="46.90934" lon="4.72212">
        <ele>259</ele>
        <time>2012-03-24T14:53:15Z</time>
      </trkpt>
      <trkpt lat="46.90948" lon="4.72203">
        <ele>259</ele>
        <time>2012-03-24T14:53:19Z</time>
      </trkpt>
      <trkpt lat="46.90956" lon="4.72198">
        <ele>259</ele>
        <time>2012-03-24T14:53:21Z</time>
      </trkpt>
      <trkpt lat="46.90973" lon="4.72193">
        <ele>259</ele>
        <time>2012-03-24T14:53:25Z</time>
      </trkpt>
      <trkpt lat="46.90988" lon="4.72187">
        <ele>259</ele>
        <time>2012-03-24T14:53:29Z</time>
      </trkpt>
      <trkpt lat="46.90999" lon="4.722">
        <ele>257</ele>
        <time>2012-03-24T14:53:33Z</time>
      </trkpt>
      <trkpt lat="46.9101" lon="4.72196">
        <ele>257.5</ele>
        <time>2012-03-24T14:53:37Z</time>
      </trkpt>
      <trkpt lat="46.91018" lon="4.72189">
        <ele>257</ele>
        <time>2012-03-24T14:53:39Z</time>
      </trkpt>
      <trkpt lat="46.91031" lon="4.72176">
        <ele>257.5</ele>
        <time>2012-03-24T14:53:43Z</time>
      </trkpt>
      <trkpt lat="46.91045" lon="4.72163">
        <ele>260</ele>
        <time>2012-03-24T14:53:47Z</time>
      </trkpt>
      <trkpt lat="46.91053" lon="4.72151">
        <ele>261</ele>
        <time>2012-03-24T14:53:51Z</time>
      </trkpt>
      <trkpt lat="46.91058" lon="4.72155">
        <ele>261</ele>
        <time>2012-03-24T14:53:53Z</time>
      </trkpt>
      <trkpt lat="46.91071" lon="4.72165">
        <ele>261</ele>
        <time>2012-03-24T14:53:57Z</time>
      </trkpt>
      <trkpt lat="46.91078" lon="4.7217">
        <ele>260.5</ele>
        <time>2012-03-24T14:53:59Z</time>
      </trkpt>
      <trkpt lat="46.91094" lon="4.72179">
        <ele>260</ele>
        <time>2012-03-24T14:54:03Z</time>
      </trkpt>
      <trkpt lat="46.91112" lon="4.72189">
        <ele>259.5</ele>
        <time>2012-03-24T14:54:07Z</time>
      </trkpt>
      <trkpt lat="46.9113" lon="4.72201">
        <ele>259</ele>
        <time>2012-03-24T14:54:11Z</time>
      </trkpt>
      <trkpt lat="46.91146" lon="4.72213">
        <ele>259.5</ele>
        <time>2012-03-24T14:54:15Z</time>
      </trkpt>
      <trkpt lat="46.91146" lon="4.72213">
        <ele>259.5</ele>
        <time>2012-03-24T14:54:31Z</time>
      </trkpt>
      <trkpt lat="46.9114" lon="4.72212">
        <ele>261</ele>
        <time>2012-03-24T14:54:33Z</time>
      </trkpt>
      <trkpt lat="46.91135" lon="4.72211">
        <ele>262</ele>
        <time>2012-03-24T14:54:41Z</time>
      </trkpt>
      <trkpt lat="46.91126" lon="4.72202">
        <ele>262.5</ele>
        <time>2012-03-24T14:54:45Z</time>
      </trkpt>
      <trkpt lat="46.9112" lon="4.72197">
        <ele>262.5</ele>
        <time>2012-03-24T14:54:47Z</time>
      </trkpt>
      <trkpt lat="46.91112" lon="4.72192">
        <ele>262.5</ele>
        <time>2012-03-24T14:54:49Z</time>
      </trkpt>
      <trkpt lat="46.91104" lon="4.72184">
        <ele>262</ele>
        <time>2012-03-24T14:54:51Z</time>
      </trkpt>
      <trkpt lat="46.91096" lon="4.72178">
        <ele>262</ele>
        <time>2012-03-24T14:54:53Z</time>
      </trkpt>
      <trkpt lat="46.91088" lon="4.72172">
        <ele>261.5</ele>
        <time>2012-03-24T14:54:55Z</time>
      </trkpt>
      <trkpt lat="46.91073" lon="4.7216">
        <ele>261.5</ele>
        <time>2012-03-24T14:54:59Z</time>
      </trkpt>
      <trkpt lat="46.91059" lon="4.72152">
        <ele>261.5</ele>
        <time>2012-03-24T14:55:03Z</time>
      </trkpt>
      <trkpt lat="46.91044" lon="4.7214">
        <ele>261</ele>
        <time>2012-03-24T14:55:07Z</time>
      </trkpt>
      <trkpt lat="46.91021" lon="4.7212">
        <ele>261.5</ele>
        <time>2012-03-24T14:55:13Z</time>
      </trkpt>
      <trkpt lat="46.91005" lon="4.72106">
        <ele>262</ele>
        <time>2012-03-24T14:55:17Z</time>
      </trkpt>
      <trkpt lat="46.90991" lon="4.72092">
        <ele>261.5</ele>
        <time>2012-03-24T14:55:21Z</time>
      </trkpt>
      <trkpt lat="46.90976" lon="4.72074">
        <ele>261.5</ele>
        <time>2012-03-24T14:55:25Z</time>
      </trkpt>
      <trkpt lat="46.90959" lon="4.72064">
        <ele>261.5</ele>
        <time>2012-03-24T14:55:29Z</time>
      </trkpt>
      <trkpt lat="46.90942" lon="4.72053">
        <ele>261.5</ele>
        <time>2012-03-24T14:55:33Z</time>
      </trkpt>
      <trkpt lat="46.90925" lon="4.72043">
        <ele>260.5</ele>
        <time>2012-03-24T14:55:37Z</time>
      </trkpt>
      <trkpt lat="46.90906" lon="4.72031">
        <ele>260.5</ele>
        <time>2012-03-24T14:55:41Z</time>
      </trkpt>
      <trkpt lat="46.90887" lon="4.72019">
        <ele>260</ele>
        <time>2012-03-24T14:55:45Z</time>
      </trkpt>
      <trkpt lat="46.90869" lon="4.72015">
        <ele>257.5</ele>
        <time>2012-03-24T14:55:49Z</time>
      </trkpt>
      <trkpt lat="46.90854" lon="4.72027">
        <ele>258</ele>
        <time>2012-03-24T14:55:53Z</time>
      </trkpt>
      <trkpt lat="46.9084" lon="4.7204">
        <ele>258</ele>
        <time>2012-03-24T14:55:57Z</time>
      </trkpt>
      <trkpt lat="46.90834" lon="4.72048">
        <ele>258.5</ele>
        <time>2012-03-24T14:55:59Z</time>
      </trkpt>
      <trkpt lat="46.9081" lon="4.72067">
        <ele>255.5</ele>
        <time>2012-03-24T14:56:05Z</time>
      </trkpt>
      <trkpt lat="46.90795" lon="4.72075">
        <ele>255.5</ele>
        <time>2012-03-24T14:56:09Z</time>
      </trkpt>
      <trkpt lat="46.90786" lon="4.72079">
        <ele>254</ele>
        <time>2012-03-24T14:56:13Z</time>
      </trkpt>
      <trkpt lat="46.90775" lon="4.72092">
        <ele>253</ele>
        <time>2012-03-24T14:56:17Z</time>
      </trkpt>
      <trkpt lat="46.90769" lon="4.72097">
        <ele>253</ele>
        <time>2012-03-24T14:56:19Z</time>
      </trkpt>
      <trkpt lat="46.90762" lon="4.72103">
        <ele>253</ele>
        <time>2012-03-24T14:56:21Z</time>
      </trkpt>
      <trkpt lat="46.90751" lon="4.72116">
        <ele>253.5</ele>
        <time>2012-03-24T14:56:25Z</time>
      </trkpt>
      <trkpt lat="46.90737" lon="4.72127">
        <ele>255</ele>
        <time>2012-03-24T14:56:29Z</time>
      </trkpt>
      <trkpt lat="46.90728" lon="4.72131">
        <ele>251.5</ele>
        <time>2012-03-24T14:56:31Z</time>
      </trkpt>
      <trkpt lat="46.9072" lon="4.72146">
        <ele>252.5</ele>
        <time>2012-03-24T14:56:35Z</time>
      </trkpt>
      <trkpt lat="46.90707" lon="4.72154">
        <ele>254</ele>
        <time>2012-03-24T14:56:39Z</time>
      </trkpt>
      <trkpt lat="46.90703" lon="4.72158">
        <ele>254.5</ele>
        <time>2012-03-24T14:56:41Z</time>
      </trkpt>
      <trkpt lat="46.9069" lon="4.72166">
        <ele>256.5</ele>
        <time>2012-03-24T14:56:47Z</time>
      </trkpt>
      <trkpt lat="46.90683" lon="4.72166">
        <ele>257.5</ele>
        <time>2012-03-24T14:56:51Z</time>
      </trkpt>
      <trkpt lat="46.90675" lon="4.72158">
        <ele>259.5</ele>
        <time>2012-03-24T14:56:55Z</time>
      </trkpt>
      <trkpt lat="46.90662" lon="4.72141">
        <ele>261</ele>
        <time>2012-03-24T14:57:03Z</time>
      </trkpt>
      <trkpt lat="46.90658" lon="4.72137">
        <ele>262</ele>
        <time>2012-03-24T14:57:05Z</time>
      </trkpt>
      <trkpt lat="46.9065" lon="4.72115">
        <ele>265.5</ele>
        <time>2012-03-24T14:57:13Z</time>
      </trkpt>
      <trkpt lat="46.90645" lon="4.72095">
        <ele>267.5</ele>
        <time>2012-03-24T14:57:19Z</time>
      </trkpt>
      <trkpt lat="46.90644" lon="4.72087">
        <ele>268.5</ele>
        <time>2012-03-24T14:57:21Z</time>
      </trkpt>
      <trkpt lat="46.90636" lon="4.72076">
        <ele>270.5</ele>
        <time>2012-03-24T14:57:25Z</time>
      </trkpt>
      <trkpt lat="46.90632" lon="4.72073">
        <ele>271.5</ele>
        <time>2012-03-24T14:57:27Z</time>
      </trkpt>
      <trkpt lat="46.90626" lon="4.72073">
        <ele>271.5</ele>
        <time>2012-03-24T14:57:29Z</time>
      </trkpt>
      <trkpt lat="46.90615" lon="4.72083">
        <ele>271</ele>
        <time>2012-03-24T14:57:33Z</time>
      </trkpt>
      <trkpt lat="46.90612" lon="4.72093">
        <ele>271</ele>
        <time>2012-03-24T14:57:35Z</time>
      </trkpt>
      <trkpt lat="46.90611" lon="4.72119">
        <ele>270.5</ele>
        <time>2012-03-24T14:57:39Z</time>
      </trkpt>
      <trkpt lat="46.90608" lon="4.72147">
        <ele>269.5</ele>
        <time>2012-03-24T14:57:43Z</time>
      </trkpt>
      <trkpt lat="46.90604" lon="4.72177">
        <ele>268.5</ele>
        <time>2012-03-24T14:57:47Z</time>
      </trkpt>
      <trkpt lat="46.90602" lon="4.72207">
        <ele>267.5</ele>
        <time>2012-03-24T14:57:51Z</time>
      </trkpt>
      <trkpt lat="46.90599" lon="4.72237">
        <ele>268</ele>
        <time>2012-03-24T14:57:55Z</time>
      </trkpt>
      <trkpt lat="46.90598" lon="4.72264">
        <ele>268</ele>
        <time>2012-03-24T14:57:59Z</time>
      </trkpt>
      <trkpt lat="46.90601" lon="4.7229">
        <ele>267.5</ele>
        <time>2012-03-24T14:58:03Z</time>
      </trkpt>
      <trkpt lat="46.90601" lon="4.72313">
        <ele>268</ele>
        <time>2012-03-24T14:58:07Z</time>
      </trkpt>
      <trkpt lat="46.906" lon="4.72323">
        <ele>268.5</ele>
        <time>2012-03-24T14:58:09Z</time>
      </trkpt>
      <trkpt lat="46.90599" lon="4.72339">
        <ele>269</ele>
        <time>2012-03-24T14:58:13Z</time>
      </trkpt>
      <trkpt lat="46.90597" lon="4.72347">
        <ele>269</ele>
        <time>2012-03-24T14:58:15Z</time>
      </trkpt>
      <trkpt lat="46.90592" lon="4.72357">
        <ele>270.5</ele>
        <time>2012-03-24T14:58:19Z</time>
      </trkpt>
      <trkpt lat="46.90588" lon="4.72361">
        <ele>271.5</ele>
        <time>2012-03-24T14:58:21Z</time>
      </trkpt>
      <trkpt lat="46.90584" lon="4.72364">
        <ele>272.5</ele>
        <time>2012-03-24T14:58:23Z</time>
      </trkpt>
      <trkpt lat="46.90571" lon="4.72375">
        <ele>275</ele>
        <time>2012-03-24T14:58:29Z</time>
      </trkpt>
      <trkpt lat="46.90567" lon="4.72378">
        <ele>275.5</ele>
        <time>2012-03-24T14:58:31Z</time>
      </trkpt>
      <trkpt lat="46.90559" lon="4.72382">
        <ele>277</ele>
        <time>2012-03-24T14:58:35Z</time>
      </trkpt>
      <trkpt lat="46.90552" lon="4.72386">
        <ele>279</ele>
        <time>2012-03-24T14:58:39Z</time>
      </trkpt>
      <trkpt lat="46.90545" lon="4.72392">
        <ele>280</ele>
        <time>2012-03-24T14:58:43Z</time>
      </trkpt>
      <trkpt lat="46.9054" lon="4.72401">
        <ele>281.5</ele>
        <time>2012-03-24T14:58:47Z</time>
      </trkpt>
      <trkpt lat="46.90537" lon="4.72405">
        <ele>282</ele>
        <time>2012-03-24T14:58:49Z</time>
      </trkpt>
      <trkpt lat="46.90533" lon="4.72422">
        <ele>283.5</ele>
        <time>2012-03-24T14:58:55Z</time>
      </trkpt>
      <trkpt lat="46.90531" lon="4.72432">
        <ele>285</ele>
        <time>2012-03-24T14:58:59Z</time>
      </trkpt>
      <trkpt lat="46.90532" lon="4.7245">
        <ele>286</ele>
        <time>2012-03-24T14:59:05Z</time>
      </trkpt>
      <trkpt lat="46.90532" lon="4.72462">
        <ele>287</ele>
        <time>2012-03-24T14:59:09Z</time>
      </trkpt>
      <trkpt lat="46.90532" lon="4.7248">
        <ele>288</ele>
        <time>2012-03-24T14:59:15Z</time>
      </trkpt>
      <trkpt lat="46.90531" lon="4.72487">
        <ele>288.5</ele>
        <time>2012-03-24T14:59:17Z</time>
      </trkpt>
      <trkpt lat="46.90528" lon="4.725">
        <ele>289</ele>
        <time>2012-03-24T14:59:21Z</time>
      </trkpt>
      <trkpt lat="46.90525" lon="4.72516">
        <ele>290</ele>
        <time>2012-03-24T14:59:27Z</time>
      </trkpt>
      <trkpt lat="46.90521" lon="4.72533">
        <ele>291</ele>
        <time>2012-03-24T14:59:33Z</time>
      </trkpt>
      <trkpt lat="46.9052" lon="4.72538">
        <ele>291</ele>
        <time>2012-03-24T14:59:35Z</time>
      </trkpt>
      <trkpt lat="46.90513" lon="4.72553">
        <ele>292.5</ele>
        <time>2012-03-24T14:59:41Z</time>
      </trkpt>
      <trkpt lat="46.90509" lon="4.72563">
        <ele>293</ele>
        <time>2012-03-24T14:59:45Z</time>
      </trkpt>
      <trkpt lat="46.90503" lon="4.7258">
        <ele>293</ele>
        <time>2012-03-24T14:59:51Z</time>
      </trkpt>
      <trkpt lat="46.90501" lon="4.72587">
        <ele>293.5</ele>
        <time>2012-03-24T14:59:53Z</time>
      </trkpt>
      <trkpt lat="46.90497" lon="4.72601">
        <ele>293.5</ele>
        <time>2012-03-24T14:59:57Z</time>
      </trkpt>
      <trkpt lat="46.90495" lon="4.72608">
        <ele>293.5</ele>
        <time>2012-03-24T14:59:59Z</time>
      </trkpt>
      <trkpt lat="46.90493" lon="4.72615">
        <ele>294</ele>
        <time>2012-03-24T15:00:01Z</time>
      </trkpt>
      <trkpt lat="46.90487" lon="4.72629">
        <ele>294</ele>
        <time>2012-03-24T15:00:05Z</time>
      </trkpt>
      <trkpt lat="46.90484" lon="4.72636">
        <ele>294</ele>
        <time>2012-03-24T15:00:07Z</time>
      </trkpt>
      <trkpt lat="46.90477" lon="4.72648">
        <ele>294.5</ele>
        <time>2012-03-24T15:00:11Z</time>
      </trkpt>
      <trkpt lat="46.90474" lon="4.72654">
        <ele>295</ele>
        <time>2012-03-24T15:00:13Z</time>
      </trkpt>
      <trkpt lat="46.90467" lon="4.72663">
        <ele>295</ele>
        <time>2012-03-24T15:00:17Z</time>
      </trkpt>
      <trkpt lat="46.90464" lon="4.72668">
        <ele>295.5</ele>
        <time>2012-03-24T15:00:19Z</time>
      </trkpt>
      <trkpt lat="46.90461" lon="4.72673">
        <ele>295.5</ele>
        <time>2012-03-24T15:00:21Z</time>
      </trkpt>
      <trkpt lat="46.90455" lon="4.72681">
        <ele>296</ele>
        <time>2012-03-24T15:00:25Z</time>
      </trkpt>
      <trkpt lat="46.90449" lon="4.72686">
        <ele>296.5</ele>
        <time>2012-03-24T15:00:29Z</time>
      </trkpt>
      <trkpt lat="46.90435" lon="4.72696">
        <ele>298.5</ele>
        <time>2012-03-24T15:00:39Z</time>
      </trkpt>
      <trkpt lat="46.90425" lon="4.72703">
        <ele>300</ele>
        <time>2012-03-24T15:00:45Z</time>
      </trkpt>
      <trkpt lat="46.90422" lon="4.72705">
        <ele>300.5</ele>
        <time>2012-03-24T15:00:47Z</time>
      </trkpt>
      <trkpt lat="46.9042" lon="4.72707">
        <ele>301</ele>
        <time>2012-03-24T15:00:49Z</time>
      </trkpt>
      <trkpt lat="46.90412" lon="4.72711">
        <ele>302</ele>
        <time>2012-03-24T15:00:55Z</time>
      </trkpt>
      <trkpt lat="46.90407" lon="4.72715">
        <ele>303</ele>
        <time>2012-03-24T15:00:59Z</time>
      </trkpt>
      <trkpt lat="46.90404" lon="4.72719">
        <ele>303.5</ele>
        <time>2012-03-24T15:01:03Z</time>
      </trkpt>
      <trkpt lat="46.90401" lon="4.72723">
        <ele>303.5</ele>
        <time>2012-03-24T15:01:07Z</time>
      </trkpt>
      <trkpt lat="46.90395" lon="4.72719">
        <ele>304.5</ele>
        <time>2012-03-24T15:01:17Z</time>
      </trkpt>
      <trkpt lat="46.90393" lon="4.72711">
        <ele>306</ele>
        <time>2012-03-24T15:01:21Z</time>
      </trkpt>
      <trkpt lat="46.90389" lon="4.72704">
        <ele>307.5</ele>
        <time>2012-03-24T15:01:25Z</time>
      </trkpt>
      <trkpt lat="46.90387" lon="4.72701">
        <ele>308</ele>
        <time>2012-03-24T15:01:27Z</time>
      </trkpt>
      <trkpt lat="46.90385" lon="4.72693">
        <ele>309</ele>
        <time>2012-03-24T15:01:31Z</time>
      </trkpt>
      <trkpt lat="46.90383" lon="4.72689">
        <ele>309.5</ele>
        <time>2012-03-24T15:01:33Z</time>
      </trkpt>
      <trkpt lat="46.90377" lon="4.72686">
        <ele>310.5</ele>
        <time>2012-03-24T15:01:39Z</time>
      </trkpt>
      <trkpt lat="46.90377" lon="4.72686">
        <ele>310.5</ele>
        <time>2012-03-24T15:01:55Z</time>
      </trkpt>
      <trkpt lat="46.90377" lon="4.72686">
        <ele>310.5</ele>
        <time>2012-03-24T15:02:53Z</time>
      </trkpt>
      <trkpt lat="46.90357" lon="4.72669">
        <ele>322.5</ele>
        <time>2012-03-24T15:02:57Z</time>
      </trkpt>
      <trkpt lat="46.90354" lon="4.72662">
        <ele>325</ele>
        <time>2012-03-24T15:03:09Z</time>
      </trkpt>
      <trkpt lat="46.9035" lon="4.72655">
        <ele>326</ele>
        <time>2012-03-24T15:03:19Z</time>
      </trkpt>
      <trkpt lat="46.90345" lon="4.72657">
        <ele>328</ele>
        <time>2012-03-24T15:03:31Z</time>
      </trkpt>
      <trkpt lat="46.90341" lon="4.72652">
        <ele>331</ele>
        <time>2012-03-24T15:03:41Z</time>
      </trkpt>
      <trkpt lat="46.90339" lon="4.72649">
        <ele>332.5</ele>
        <time>2012-03-24T15:03:45Z</time>
      </trkpt>
      <trkpt lat="46.90338" lon="4.72641">
        <ele>334</ele>
        <time>2012-03-24T15:03:51Z</time>
      </trkpt>
      <trkpt lat="46.90335" lon="4.72635">
        <ele>335</ele>
        <time>2012-03-24T15:03:57Z</time>
      </trkpt>
      <trkpt lat="46.90332" lon="4.7263">
        <ele>335</ele>
        <time>2012-03-24T15:04:07Z</time>
      </trkpt>
      <trkpt lat="46.90329" lon="4.72615">
        <ele>334.5</ele>
        <time>2012-03-24T15:04:17Z</time>
      </trkpt>
      <trkpt lat="46.90326" lon="4.72607">
        <ele>335</ele>
        <time>2012-03-24T15:04:21Z</time>
      </trkpt>
      <trkpt lat="46.90317" lon="4.72591">
        <ele>336.5</ele>
        <time>2012-03-24T15:04:31Z</time>
      </trkpt>
      <trkpt lat="46.90312" lon="4.72584">
        <ele>336.5</ele>
        <time>2012-03-24T15:04:35Z</time>
      </trkpt>
      <trkpt lat="46.90308" lon="4.72572">
        <ele>336.5</ele>
        <time>2012-03-24T15:04:41Z</time>
      </trkpt>
      <trkpt lat="46.90306" lon="4.72567">
        <ele>336.5</ele>
        <time>2012-03-24T15:04:43Z</time>
      </trkpt>
      <trkpt lat="46.90303" lon="4.7256">
        <ele>336</ele>
        <time>2012-03-24T15:04:47Z</time>
      </trkpt>
      <trkpt lat="46.90297" lon="4.72548">
        <ele>336.5</ele>
        <time>2012-03-24T15:04:53Z</time>
      </trkpt>
      <trkpt lat="46.90295" lon="4.72545">
        <ele>337</ele>
        <time>2012-03-24T15:04:55Z</time>
      </trkpt>
      <trkpt lat="46.90293" lon="4.72541">
        <ele>337.5</ele>
        <time>2012-03-24T15:04:57Z</time>
      </trkpt>
      <trkpt lat="46.90292" lon="4.72538">
        <ele>338</ele>
        <time>2012-03-24T15:04:59Z</time>
      </trkpt>
      <trkpt lat="46.90283" lon="4.72522">
        <ele>340</ele>
        <time>2012-03-24T15:05:09Z</time>
      </trkpt>
      <trkpt lat="46.90281" lon="4.72518">
        <ele>340</ele>
        <time>2012-03-24T15:05:11Z</time>
      </trkpt>
      <trkpt lat="46.90278" lon="4.72512">
        <ele>340.5</ele>
        <time>2012-03-24T15:05:15Z</time>
      </trkpt>
      <trkpt lat="46.90276" lon="4.72509">
        <ele>340.5</ele>
        <time>2012-03-24T15:05:17Z</time>
      </trkpt>
      <trkpt lat="46.90274" lon="4.72505">
        <ele>341</ele>
        <time>2012-03-24T15:05:19Z</time>
      </trkpt>
      <trkpt lat="46.9027" lon="4.72498">
        <ele>342</ele>
        <time>2012-03-24T15:05:23Z</time>
      </trkpt>
      <trkpt lat="46.90265" lon="4.72487">
        <ele>342</ele>
        <time>2012-03-24T15:05:29Z</time>
      </trkpt>
      <trkpt lat="46.90263" lon="4.72483">
        <ele>342.5</ele>
        <time>2012-03-24T15:05:31Z</time>
      </trkpt>
      <trkpt lat="46.90257" lon="4.72476">
        <ele>343.5</ele>
        <time>2012-03-24T15:05:35Z</time>
      </trkpt>
      <trkpt lat="46.9025" lon="4.72466">
        <ele>344.5</ele>
        <time>2012-03-24T15:05:41Z</time>
      </trkpt>
      <trkpt lat="46.90245" lon="4.72458">
        <ele>345.5</ele>
        <time>2012-03-24T15:05:45Z</time>
      </trkpt>
      <trkpt lat="46.90238" lon="4.72447">
        <ele>346.5</ele>
        <time>2012-03-24T15:05:51Z</time>
      </trkpt>
      <trkpt lat="46.90232" lon="4.72441">
        <ele>348</ele>
        <time>2012-03-24T15:05:55Z</time>
      </trkpt>
      <trkpt lat="46.90218" lon="4.72428">
        <ele>350.5</ele>
        <time>2012-03-24T15:06:05Z</time>
      </trkpt>
      <trkpt lat="46.90212" lon="4.72423">
        <ele>351</ele>
        <time>2012-03-24T15:06:09Z</time>
      </trkpt>
      <trkpt lat="46.90208" lon="4.72418">
        <ele>351.5</ele>
        <time>2012-03-24T15:06:13Z</time>
      </trkpt>
      <trkpt lat="46.90206" lon="4.72415">
        <ele>352</ele>
        <time>2012-03-24T15:06:15Z</time>
      </trkpt>
      <trkpt lat="46.90192" lon="4.72403">
        <ele>353.5</ele>
        <time>2012-03-24T15:06:25Z</time>
      </trkpt>
      <trkpt lat="46.90189" lon="4.724">
        <ele>353.5</ele>
        <time>2012-03-24T15:06:27Z</time>
      </trkpt>
      <trkpt lat="46.90183" lon="4.72394">
        <ele>353.5</ele>
        <time>2012-03-24T15:06:31Z</time>
      </trkpt>
      <trkpt lat="46.90178" lon="4.72385">
        <ele>354</ele>
        <time>2012-03-24T15:06:35Z</time>
      </trkpt>
      <trkpt lat="46.90169" lon="4.72373">
        <ele>354.5</ele>
        <time>2012-03-24T15:06:41Z</time>
      </trkpt>
      <trkpt lat="46.90163" lon="4.72371">
        <ele>355.5</ele>
        <time>2012-03-24T15:06:45Z</time>
      </trkpt>
      <trkpt lat="46.90157" lon="4.72369">
        <ele>357</ele>
        <time>2012-03-24T15:06:49Z</time>
      </trkpt>
      <trkpt lat="46.90154" lon="4.72368">
        <ele>357.5</ele>
        <time>2012-03-24T15:06:51Z</time>
      </trkpt>
      <trkpt lat="46.90151" lon="4.72367">
        <ele>358</ele>
        <time>2012-03-24T15:06:53Z</time>
      </trkpt>
      <trkpt lat="46.90141" lon="4.72364">
        <ele>360</ele>
        <time>2012-03-24T15:06:59Z</time>
      </trkpt>
      <trkpt lat="46.90131" lon="4.7236">
        <ele>361.5</ele>
        <time>2012-03-24T15:07:05Z</time>
      </trkpt>
      <trkpt lat="46.90123" lon="4.72351">
        <ele>362</ele>
        <time>2012-03-24T15:07:11Z</time>
      </trkpt>
      <trkpt lat="46.90117" lon="4.72346">
        <ele>362.5</ele>
        <time>2012-03-24T15:07:15Z</time>
      </trkpt>
      <trkpt lat="46.90108" lon="4.7234">
        <ele>363</ele>
        <time>2012-03-24T15:07:21Z</time>
      </trkpt>
      <trkpt lat="46.90102" lon="4.72335">
        <ele>363.5</ele>
        <time>2012-03-24T15:07:25Z</time>
      </trkpt>
      <trkpt lat="46.90094" lon="4.72328">
        <ele>364.5</ele>
        <time>2012-03-24T15:07:31Z</time>
      </trkpt>
      <trkpt lat="46.90091" lon="4.72326">
        <ele>364.5</ele>
        <time>2012-03-24T15:07:33Z</time>
      </trkpt>
      <trkpt lat="46.90085" lon="4.7232">
        <ele>365</ele>
        <time>2012-03-24T15:07:37Z</time>
      </trkpt>
      <trkpt lat="46.90077" lon="4.72314">
        <ele>366</ele>
        <time>2012-03-24T15:07:41Z</time>
      </trkpt>
      <trkpt lat="46.90073" lon="4.72309">
        <ele>367</ele>
        <time>2012-03-24T15:07:45Z</time>
      </trkpt>
      <trkpt lat="46.90062" lon="4.72298">
        <ele>367.5</ele>
        <time>2012-03-24T15:07:51Z</time>
      </trkpt>
      <trkpt lat="46.90058" lon="4.72294">
        <ele>367.5</ele>
        <time>2012-03-24T15:07:53Z</time>
      </trkpt>
      <trkpt lat="46.90054" lon="4.72293">
        <ele>368</ele>
        <time>2012-03-24T15:07:55Z</time>
      </trkpt>
      <trkpt lat="46.90044" lon="4.72286">
        <ele>369</ele>
        <time>2012-03-24T15:08:01Z</time>
      </trkpt>
      <trkpt lat="46.9004" lon="4.72284">
        <ele>369.5</ele>
        <time>2012-03-24T15:08:03Z</time>
      </trkpt>
      <trkpt lat="46.90028" lon="4.72277">
        <ele>371</ele>
        <time>2012-03-24T15:08:09Z</time>
      </trkpt>
      <trkpt lat="46.9002" lon="4.72274">
        <ele>371.5</ele>
        <time>2012-03-24T15:08:13Z</time>
      </trkpt>
      <trkpt lat="46.90009" lon="4.72265">
        <ele>372.5</ele>
        <time>2012-03-24T15:08:19Z</time>
      </trkpt>
      <trkpt lat="46.90005" lon="4.72263">
        <ele>372.5</ele>
        <time>2012-03-24T15:08:21Z</time>
      </trkpt>
      <trkpt lat="46.89988" lon="4.72253">
        <ele>374</ele>
        <time>2012-03-24T15:08:29Z</time>
      </trkpt>
      <trkpt lat="46.89975" lon="4.7225">
        <ele>374</ele>
        <time>2012-03-24T15:08:35Z</time>
      </trkpt>
      <trkpt lat="46.8997" lon="4.7225">
        <ele>374.5</ele>
        <time>2012-03-24T15:08:37Z</time>
      </trkpt>
      <trkpt lat="46.89958" lon="4.72239">
        <ele>375</ele>
        <time>2012-03-24T15:08:43Z</time>
      </trkpt>
      <trkpt lat="46.89945" lon="4.72237">
        <ele>375.5</ele>
        <time>2012-03-24T15:08:49Z</time>
      </trkpt>
      <trkpt lat="46.8994" lon="4.72235">
        <ele>375.5</ele>
        <time>2012-03-24T15:08:51Z</time>
      </trkpt>
      <trkpt lat="46.89931" lon="4.72228">
        <ele>376</ele>
        <time>2012-03-24T15:08:55Z</time>
      </trkpt>
      <trkpt lat="46.89925" lon="4.72225">
        <ele>376</ele>
        <time>2012-03-24T15:08:57Z</time>
      </trkpt>
      <trkpt lat="46.8992" lon="4.72222">
        <ele>376.5</ele>
        <time>2012-03-24T15:08:59Z</time>
      </trkpt>
      <trkpt lat="46.89909" lon="4.72218">
        <ele>376.5</ele>
        <time>2012-03-24T15:09:03Z</time>
      </trkpt>
      <trkpt lat="46.89905" lon="4.72214">
        <ele>377</ele>
        <time>2012-03-24T15:09:05Z</time>
      </trkpt>
      <trkpt lat="46.89895" lon="4.72207">
        <ele>377.5</ele>
        <time>2012-03-24T15:09:09Z</time>
      </trkpt>
      <trkpt lat="46.8989" lon="4.72206">
        <ele>378</ele>
        <time>2012-03-24T15:09:11Z</time>
      </trkpt>
      <trkpt lat="46.8988" lon="4.72201">
        <ele>378</ele>
        <time>2012-03-24T15:09:15Z</time>
      </trkpt>
      <trkpt lat="46.89875" lon="4.72196">
        <ele>378</ele>
        <time>2012-03-24T15:09:17Z</time>
      </trkpt>
      <trkpt lat="46.89868" lon="4.72195">
        <ele>378</ele>
        <time>2012-03-24T15:09:21Z</time>
      </trkpt>
      <trkpt lat="46.89866" lon="4.72194">
        <ele>378</ele>
        <time>2012-03-24T15:09:23Z</time>
      </trkpt>
      <trkpt lat="46.89866" lon="4.72194">
        <ele>378</ele>
        <time>2012-03-24T15:09:39Z</time>
      </trkpt>
      <trkpt lat="46.89866" lon="4.72194">
        <ele>378</ele>
        <time>2012-03-24T15:10:01Z</time>
      </trkpt>
      <trkpt lat="46.89866" lon="4.72194">
        <ele>378</ele>
        <time>2012-03-24T15:10:19Z</time>
      </trkpt>
      <trkpt lat="46.89866" lon="4.72194">
        <ele>378</ele>
        <time>2012-03-24T15:10:37Z</time>
      </trkpt>
      <trkpt lat="46.89866" lon="4.72194">
        <ele>378</ele>
        <time>2012-03-24T15:10:55Z</time>
      </trkpt>
      <trkpt lat="46.89866" lon="4.72194">
        <ele>378</ele>
        <time>2012-03-24T15:11:13Z</time>
      </trkpt>
      <trkpt lat="46.89866" lon="4.72194">
        <ele>378</ele>
        <time>2012-03-24T15:11:31Z</time>
      </trkpt>
      <trkpt lat="46.89866" lon="4.72194">
        <ele>378</ele>
        <time>2012-03-24T15:11:49Z</time>
      </trkpt>
      <trkpt lat="46.89866" lon="4.72194">
        <ele>378</ele>
        <time>2012-03-24T15:12:07Z</time>
      </trkpt>
      <trkpt lat="46.89866" lon="4.72194">
        <ele>378</ele>
        <time>2012-03-24T15:12:25Z</time>
      </trkpt>
      <trkpt lat="46.89866" lon="4.72194">
        <ele>378</ele>
        <time>2012-03-24T15:12:43Z</time>
      </trkpt>
      <trkpt lat="46.89866" lon="4.72194">
        <ele>378</ele>
        <time>2012-03-24T15:13:01Z</time>
      </trkpt>
      <trkpt lat="46.89866" lon="4.72194">
        <ele>378</ele>
        <time>2012-03-24T15:13:19Z</time>
      </trkpt>
      <trkpt lat="46.89866" lon="4.72194">
        <ele>378</ele>
        <time>2012-03-24T15:13:41Z</time>
      </trkpt>
      <trkpt lat="46.89866" lon="4.72194">
        <ele>378</ele>
        <time>2012-03-24T15:13:59Z</time>
      </trkpt>
      <trkpt lat="46.89866" lon="4.72194">
        <ele>378</ele>
        <time>2012-03-24T15:14:15Z</time>
      </trkpt>
      <trkpt lat="46.89866" lon="4.72194">
        <ele>378</ele>
        <time>2012-03-24T15:14:31Z</time>
      </trkpt>
      <trkpt lat="46.89866" lon="4.72194">
        <ele>378</ele>
        <time>2012-03-24T15:14:53Z</time>
      </trkpt>
      <trkpt lat="46.89866" lon="4.72194">
        <ele>378</ele>
        <time>2012-03-24T15:15:09Z</time>
      </trkpt>
      <trkpt lat="46.89863" lon="4.72186">
        <ele>382.5</ele>
        <time>2012-03-24T15:15:25Z</time>
      </trkpt>
      <trkpt lat="46.89856" lon="4.72175">
        <ele>382.5</ele>
        <time>2012-03-24T15:15:29Z</time>
      </trkpt>
      <trkpt lat="46.89848" lon="4.72164">
        <ele>382.5</ele>
        <time>2012-03-24T15:15:33Z</time>
      </trkpt>
      <trkpt lat="46.89843" lon="4.72159">
        <ele>382.5</ele>
        <time>2012-03-24T15:15:35Z</time>
      </trkpt>
      <trkpt lat="46.89839" lon="4.72155">
        <ele>383</ele>
        <time>2012-03-24T15:15:37Z</time>
      </trkpt>
      <trkpt lat="46.89829" lon="4.72146">
        <ele>383</ele>
        <time>2012-03-24T15:15:41Z</time>
      </trkpt>
      <trkpt lat="46.89823" lon="4.72142">
        <ele>382.5</ele>
        <time>2012-03-24T15:15:43Z</time>
      </trkpt>
      <trkpt lat="46.89814" lon="4.72134">
        <ele>383</ele>
        <time>2012-03-24T15:15:47Z</time>
      </trkpt>
      <trkpt lat="46.89809" lon="4.7213">
        <ele>383</ele>
        <time>2012-03-24T15:15:49Z</time>
      </trkpt>
      <trkpt lat="46.89804" lon="4.72127">
        <ele>383.5</ele>
        <time>2012-03-24T15:15:51Z</time>
      </trkpt>
      <trkpt lat="46.89795" lon="4.72112">
        <ele>383</ele>
        <time>2012-03-24T15:15:55Z</time>
      </trkpt>
      <trkpt lat="46.89789" lon="4.72107">
        <ele>383</ele>
        <time>2012-03-24T15:15:57Z</time>
      </trkpt>
      <trkpt lat="46.89774" lon="4.72098">
        <ele>384</ele>
        <time>2012-03-24T15:16:03Z</time>
      </trkpt>
      <trkpt lat="46.89765" lon="4.72095">
        <ele>384.5</ele>
        <time>2012-03-24T15:16:07Z</time>
      </trkpt>
      <trkpt lat="46.89754" lon="4.72086">
        <ele>386</ele>
        <time>2012-03-24T15:16:13Z</time>
      </trkpt>
      <trkpt lat="46.89751" lon="4.72085">
        <ele>386.5</ele>
        <time>2012-03-24T15:16:15Z</time>
      </trkpt>
      <trkpt lat="46.89741" lon="4.72083">
        <ele>388.5</ele>
        <time>2012-03-24T15:16:21Z</time>
      </trkpt>
      <trkpt lat="46.89733" lon="4.72081">
        <ele>389.5</ele>
        <time>2012-03-24T15:16:25Z</time>
      </trkpt>
      <trkpt lat="46.89723" lon="4.72073">
        <ele>390.5</ele>
        <time>2012-03-24T15:16:31Z</time>
      </trkpt>
      <trkpt lat="46.89719" lon="4.72071">
        <ele>391</ele>
        <time>2012-03-24T15:16:33Z</time>
      </trkpt>
      <trkpt lat="46.89715" lon="4.72068">
        <ele>391</ele>
        <time>2012-03-24T15:16:35Z</time>
      </trkpt>
      <trkpt lat="46.89708" lon="4.72061">
        <ele>391.5</ele>
        <time>2012-03-24T15:16:39Z</time>
      </trkpt>
      <trkpt lat="46.89702" lon="4.72053">
        <ele>392</ele>
        <time>2012-03-24T15:16:43Z</time>
      </trkpt>
      <trkpt lat="46.89696" lon="4.72038">
        <ele>392.5</ele>
        <time>2012-03-24T15:16:49Z</time>
      </trkpt>
      <trkpt lat="46.89687" lon="4.72027">
        <ele>392.5</ele>
        <time>2012-03-24T15:16:55Z</time>
      </trkpt>
      <trkpt lat="46.89677" lon="4.72022">
        <ele>393.5</ele>
        <time>2012-03-24T15:17:01Z</time>
      </trkpt>
      <trkpt lat="46.89674" lon="4.7202">
        <ele>393.5</ele>
        <time>2012-03-24T15:17:03Z</time>
      </trkpt>
      <trkpt lat="46.89656" lon="4.72013">
        <ele>395</ele>
        <time>2012-03-24T15:17:13Z</time>
      </trkpt>
      <trkpt lat="46.89646" lon="4.72007">
        <ele>396</ele>
        <time>2012-03-24T15:17:19Z</time>
      </trkpt>
      <trkpt lat="46.89639" lon="4.72003">
        <ele>396.5</ele>
        <time>2012-03-24T15:17:23Z</time>
      </trkpt>
      <trkpt lat="46.89629" lon="4.72">
        <ele>397</ele>
        <time>2012-03-24T15:17:29Z</time>
      </trkpt>
      <trkpt lat="46.89622" lon="4.72001">
        <ele>397.5</ele>
        <time>2012-03-24T15:17:33Z</time>
      </trkpt>
      <trkpt lat="46.89612" lon="4.72005">
        <ele>398</ele>
        <time>2012-03-24T15:17:39Z</time>
      </trkpt>
      <trkpt lat="46.89605" lon="4.72007">
        <ele>398</ele>
        <time>2012-03-24T15:17:43Z</time>
      </trkpt>
      <trkpt lat="46.89601" lon="4.72007">
        <ele>398</ele>
        <time>2012-03-24T15:17:45Z</time>
      </trkpt>
      <trkpt lat="46.89591" lon="4.72012">
        <ele>397.5</ele>
        <time>2012-03-24T15:17:51Z</time>
      </trkpt>
      <trkpt lat="46.89591" lon="4.72012">
        <ele>397.5</ele>
        <time>2012-03-24T15:18:07Z</time>
      </trkpt>
      <trkpt lat="46.89591" lon="4.72018">
        <ele>397.5</ele>
        <time>2012-03-24T15:18:11Z</time>
      </trkpt>
      <trkpt lat="46.8959" lon="4.72026">
        <ele>397</ele>
        <time>2012-03-24T15:18:15Z</time>
      </trkpt>
      <trkpt lat="46.89586" lon="4.72043">
        <ele>395.5</ele>
        <time>2012-03-24T15:18:19Z</time>
      </trkpt>
      <trkpt lat="46.89581" lon="4.72057">
        <ele>395</ele>
        <time>2012-03-24T15:18:27Z</time>
      </trkpt>
      <trkpt lat="46.89571" lon="4.72092">
        <ele>390.5</ele>
        <time>2012-03-24T15:18:35Z</time>
      </trkpt>
      <trkpt lat="46.89567" lon="4.72103">
        <ele>389</ele>
        <time>2012-03-24T15:18:37Z</time>
      </trkpt>
      <trkpt lat="46.89562" lon="4.72135">
        <ele>384.5</ele>
        <time>2012-03-24T15:18:43Z</time>
      </trkpt>
      <trkpt lat="46.89564" lon="4.72156">
        <ele>382.5</ele>
        <time>2012-03-24T15:18:47Z</time>
      </trkpt>
      <trkpt lat="46.89569" lon="4.72176">
        <ele>381.5</ele>
        <time>2012-03-24T15:18:51Z</time>
      </trkpt>
      <trkpt lat="46.89572" lon="4.72189">
        <ele>379.5</ele>
        <time>2012-03-24T15:18:53Z</time>
      </trkpt>
      <trkpt lat="46.89564" lon="4.72213">
        <ele>374.5</ele>
        <time>2012-03-24T15:18:57Z</time>
      </trkpt>
      <trkpt lat="46.89558" lon="4.72231">
        <ele>372.5</ele>
        <time>2012-03-24T15:19:01Z</time>
      </trkpt>
      <trkpt lat="46.89552" lon="4.72234">
        <ele>371.5</ele>
        <time>2012-03-24T15:19:03Z</time>
      </trkpt>
      <trkpt lat="46.89537" lon="4.72228">
        <ele>365.5</ele>
        <time>2012-03-24T15:19:07Z</time>
      </trkpt>
      <trkpt lat="46.89529" lon="4.7223">
        <ele>363.5</ele>
        <time>2012-03-24T15:19:09Z</time>
      </trkpt>
      <trkpt lat="46.89519" lon="4.72232">
        <ele>362.5</ele>
        <time>2012-03-24T15:19:13Z</time>
      </trkpt>
      <trkpt lat="46.8951" lon="4.72232">
        <ele>361</ele>
        <time>2012-03-24T15:19:15Z</time>
      </trkpt>
      <trkpt lat="46.89491" lon="4.72225">
        <ele>358.5</ele>
        <time>2012-03-24T15:19:19Z</time>
      </trkpt>
      <trkpt lat="46.8948" lon="4.72224">
        <ele>357</ele>
        <time>2012-03-24T15:19:21Z</time>
      </trkpt>
      <trkpt lat="46.8946" lon="4.72227">
        <ele>352.5</ele>
        <time>2012-03-24T15:19:25Z</time>
      </trkpt>
      <trkpt lat="46.89443" lon="4.72224">
        <ele>351.5</ele>
        <time>2012-03-24T15:19:29Z</time>
      </trkpt>
      <trkpt lat="46.89426" lon="4.72221">
        <ele>350.5</ele>
        <time>2012-03-24T15:19:33Z</time>
      </trkpt>
      <trkpt lat="46.89426" lon="4.72221">
        <ele>350.5</ele>
        <time>2012-03-24T15:19:49Z</time>
      </trkpt>
      <trkpt lat="46.89422" lon="4.72218">
        <ele>349</ele>
        <time>2012-03-24T15:20:01Z</time>
      </trkpt>
      <trkpt lat="46.89417" lon="4.72222">
        <ele>348.5</ele>
        <time>2012-03-24T15:20:05Z</time>
      </trkpt>
      <trkpt lat="46.89413" lon="4.72225">
        <ele>347.5</ele>
        <time>2012-03-24T15:20:07Z</time>
      </trkpt>
      <trkpt lat="46.89406" lon="4.72229">
        <ele>345</ele>
        <time>2012-03-24T15:20:11Z</time>
      </trkpt>
      <trkpt lat="46.89401" lon="4.72231">
        <ele>344</ele>
        <time>2012-03-24T15:20:13Z</time>
      </trkpt>
      <trkpt lat="46.89396" lon="4.72232">
        <ele>343</ele>
        <time>2012-03-24T15:20:15Z</time>
      </trkpt>
      <trkpt lat="46.8939" lon="4.72232">
        <ele>342</ele>
        <time>2012-03-24T15:20:17Z</time>
      </trkpt>
      <trkpt lat="46.89384" lon="4.72232">
        <ele>341</ele>
        <time>2012-03-24T15:20:19Z</time>
      </trkpt>
      <trkpt lat="46.89379" lon="4.72231">
        <ele>339.5</ele>
        <time>2012-03-24T15:20:21Z</time>
      </trkpt>
      <trkpt lat="46.89372" lon="4.7223">
        <ele>339</ele>
        <time>2012-03-24T15:20:23Z</time>
      </trkpt>
      <trkpt lat="46.8936" lon="4.72227">
        <ele>335.5</ele>
        <time>2012-03-24T15:20:27Z</time>
      </trkpt>
      <trkpt lat="46.8935" lon="4.72226">
        <ele>333.5</ele>
        <time>2012-03-24T15:20:31Z</time>
      </trkpt>
      <trkpt lat="46.89337" lon="4.72225">
        <ele>331.5</ele>
        <time>2012-03-24T15:20:35Z</time>
      </trkpt>
      <trkpt lat="46.8933" lon="4.72225">
        <ele>330</ele>
        <time>2012-03-24T15:20:37Z</time>
      </trkpt>
      <trkpt lat="46.89315" lon="4.7222">
        <ele>327.5</ele>
        <time>2012-03-24T15:20:41Z</time>
      </trkpt>
      <trkpt lat="46.89309" lon="4.72216">
        <ele>327</ele>
        <time>2012-03-24T15:20:43Z</time>
      </trkpt>
      <trkpt lat="46.89299" lon="4.72213">
        <ele>324.5</ele>
        <time>2012-03-24T15:20:47Z</time>
      </trkpt>
      <trkpt lat="46.89294" lon="4.72211">
        <ele>323</ele>
        <time>2012-03-24T15:20:49Z</time>
      </trkpt>
      <trkpt lat="46.89282" lon="4.72207">
        <ele>320</ele>
        <time>2012-03-24T15:20:53Z</time>
      </trkpt>
      <trkpt lat="46.89266" lon="4.72198">
        <ele>318</ele>
        <time>2012-03-24T15:20:57Z</time>
      </trkpt>
      <trkpt lat="46.89251" lon="4.72191">
        <ele>315</ele>
        <time>2012-03-24T15:21:01Z</time>
      </trkpt>
      <trkpt lat="46.89243" lon="4.7219">
        <ele>313.5</ele>
        <time>2012-03-24T15:21:03Z</time>
      </trkpt>
      <trkpt lat="46.89227" lon="4.72189">
        <ele>311</ele>
        <time>2012-03-24T15:21:07Z</time>
      </trkpt>
      <trkpt lat="46.89212" lon="4.72199">
        <ele>309.5</ele>
        <time>2012-03-24T15:21:11Z</time>
      </trkpt>
      <trkpt lat="46.89209" lon="4.72214">
        <ele>308</ele>
        <time>2012-03-24T15:21:15Z</time>
      </trkpt>
      <trkpt lat="46.8921" lon="4.72221">
        <ele>309.5</ele>
        <time>2012-03-24T15:21:27Z</time>
      </trkpt>
      <trkpt lat="46.89204" lon="4.72231">
        <ele>309</ele>
        <time>2012-03-24T15:21:31Z</time>
      </trkpt>
      <trkpt lat="46.89194" lon="4.72259">
        <ele>306</ele>
        <time>2012-03-24T15:21:35Z</time>
      </trkpt>
      <trkpt lat="46.89187" lon="4.72278">
        <ele>304.5</ele>
        <time>2012-03-24T15:21:37Z</time>
      </trkpt>
      <trkpt lat="46.89179" lon="4.72301">
        <ele>302.5</ele>
        <time>2012-03-24T15:21:39Z</time>
      </trkpt>
      <trkpt lat="46.8917" lon="4.72324">
        <ele>300.5</ele>
        <time>2012-03-24T15:21:41Z</time>
      </trkpt>
      <trkpt lat="46.8916" lon="4.72349">
        <ele>299.5</ele>
        <time>2012-03-24T15:21:43Z</time>
      </trkpt>
      <trkpt lat="46.89151" lon="4.72372">
        <ele>299</ele>
        <time>2012-03-24T15:21:45Z</time>
      </trkpt>
      <trkpt lat="46.89136" lon="4.72412">
        <ele>299.5</ele>
        <time>2012-03-24T15:21:49Z</time>
      </trkpt>
      <trkpt lat="46.89128" lon="4.72426">
        <ele>299.5</ele>
        <time>2012-03-24T15:21:51Z</time>
      </trkpt>
      <trkpt lat="46.89124" lon="4.7243">
        <ele>300</ele>
        <time>2012-03-24T15:21:52Z</time>
      </trkpt>
      <trkpt lat="46.8912" lon="4.72433">
        <ele>300.5</ele>
        <time>2012-03-24T15:21:53Z</time>
      </trkpt>
      <trkpt lat="46.89107" lon="4.7244">
        <ele>302</ele>
        <time>2012-03-24T15:21:58Z</time>
      </trkpt>
      <trkpt lat="46.89097" lon="4.72436">
        <ele>303.5</ele>
        <time>2012-03-24T15:22:02Z</time>
      </trkpt>
      <trkpt lat="46.89092" lon="4.72436">
        <ele>304</ele>
        <time>2012-03-24T15:22:04Z</time>
      </trkpt>
      <trkpt lat="46.89087" lon="4.72437">
        <ele>304</ele>
        <time>2012-03-24T15:22:06Z</time>
      </trkpt>
      <trkpt lat="46.89077" lon="4.72439">
        <ele>305</ele>
        <time>2012-03-24T15:22:10Z</time>
      </trkpt>
      <trkpt lat="46.89071" lon="4.72441">
        <ele>305.5</ele>
        <time>2012-03-24T15:22:12Z</time>
      </trkpt>
      <trkpt lat="46.89067" lon="4.72443">
        <ele>306</ele>
        <time>2012-03-24T15:22:14Z</time>
      </trkpt>
      <trkpt lat="46.89058" lon="4.72448">
        <ele>307</ele>
        <time>2012-03-24T15:22:18Z</time>
      </trkpt>
      <trkpt lat="46.89054" lon="4.72452">
        <ele>307.5</ele>
        <time>2012-03-24T15:22:20Z</time>
      </trkpt>
      <trkpt lat="46.89051" lon="4.72457">
        <ele>308</ele>
        <time>2012-03-24T15:22:22Z</time>
      </trkpt>
      <trkpt lat="46.89045" lon="4.7247">
        <ele>308.5</ele>
        <time>2012-03-24T15:22:26Z</time>
      </trkpt>
      <trkpt lat="46.89043" lon="4.72477">
        <ele>307.5</ele>
        <time>2012-03-24T15:22:28Z</time>
      </trkpt>
      <trkpt lat="46.89041" lon="4.72484">
        <ele>307.5</ele>
        <time>2012-03-24T15:22:30Z</time>
      </trkpt>
      <trkpt lat="46.89036" lon="4.72499">
        <ele>308.5</ele>
        <time>2012-03-24T15:22:34Z</time>
      </trkpt>
      <trkpt lat="46.89033" lon="4.72506">
        <ele>308.5</ele>
        <time>2012-03-24T15:22:36Z</time>
      </trkpt>
      <trkpt lat="46.8903" lon="4.72513">
        <ele>309</ele>
        <time>2012-03-24T15:22:38Z</time>
      </trkpt>
      <trkpt lat="46.89025" lon="4.72528">
        <ele>310</ele>
        <time>2012-03-24T15:22:42Z</time>
      </trkpt>
      <trkpt lat="46.89023" lon="4.72535">
        <ele>311</ele>
        <time>2012-03-24T15:22:44Z</time>
      </trkpt>
      <trkpt lat="46.89019" lon="4.72552">
        <ele>312.5</ele>
        <time>2012-03-24T15:22:48Z</time>
      </trkpt>
      <trkpt lat="46.89018" lon="4.72559">
        <ele>312.5</ele>
        <time>2012-03-24T15:22:50Z</time>
      </trkpt>
      <trkpt lat="46.89016" lon="4.72574">
        <ele>312.5</ele>
        <time>2012-03-24T15:22:54Z</time>
      </trkpt>
      <trkpt lat="46.89011" lon="4.72581">
        <ele>312</ele>
        <time>2012-03-24T15:22:56Z</time>
      </trkpt>
      <trkpt lat="46.89008" lon="4.72589">
        <ele>312.5</ele>
        <time>2012-03-24T15:22:58Z</time>
      </trkpt>
      <trkpt lat="46.89004" lon="4.72611">
        <ele>311.5</ele>
        <time>2012-03-24T15:23:04Z</time>
      </trkpt>
      <trkpt lat="46.89001" lon="4.72625">
        <ele>311</ele>
        <time>2012-03-24T15:23:08Z</time>
      </trkpt>
      <trkpt lat="46.88995" lon="4.7264">
        <ele>309</ele>
        <time>2012-03-24T15:23:12Z</time>
      </trkpt>
      <trkpt lat="46.88987" lon="4.72665">
        <ele>310</ele>
        <time>2012-03-24T15:23:20Z</time>
      </trkpt>
      <trkpt lat="46.88979" lon="4.72683">
        <ele>308</ele>
        <time>2012-03-24T15:23:26Z</time>
      </trkpt>
      <trkpt lat="46.88975" lon="4.72689">
        <ele>309</ele>
        <time>2012-03-24T15:23:28Z</time>
      </trkpt>
      <trkpt lat="46.88968" lon="4.72706">
        <ele>311.5</ele>
        <time>2012-03-24T15:23:34Z</time>
      </trkpt>
      <trkpt lat="46.88961" lon="4.7272">
        <ele>313</ele>
        <time>2012-03-24T15:23:40Z</time>
      </trkpt>
      <trkpt lat="46.88959" lon="4.72727">
        <ele>313</ele>
        <time>2012-03-24T15:23:42Z</time>
      </trkpt>
      <trkpt lat="46.88965" lon="4.72747">
        <ele>314.5</ele>
        <time>2012-03-24T15:23:48Z</time>
      </trkpt>
      <trkpt lat="46.88967" lon="4.72766">
        <ele>314.5</ele>
        <time>2012-03-24T15:23:54Z</time>
      </trkpt>
      <trkpt lat="46.88968" lon="4.72774">
        <ele>315</ele>
        <time>2012-03-24T15:23:56Z</time>
      </trkpt>
      <trkpt lat="46.88969" lon="4.7279">
        <ele>316</ele>
        <time>2012-03-24T15:24:00Z</time>
      </trkpt>
      <trkpt lat="46.88971" lon="4.72797">
        <ele>316</ele>
        <time>2012-03-24T15:24:02Z</time>
      </trkpt>
      <trkpt lat="46.88972" lon="4.72806">
        <ele>316.5</ele>
        <time>2012-03-24T15:24:04Z</time>
      </trkpt>
      <trkpt lat="46.88975" lon="4.72824">
        <ele>317.5</ele>
        <time>2012-03-24T15:24:08Z</time>
      </trkpt>
      <trkpt lat="46.88977" lon="4.72833">
        <ele>318</ele>
        <time>2012-03-24T15:24:10Z</time>
      </trkpt>
      <trkpt lat="46.88979" lon="4.72853">
        <ele>319</ele>
        <time>2012-03-24T15:24:14Z</time>
      </trkpt>
      <trkpt lat="46.88979" lon="4.72864">
        <ele>319.5</ele>
        <time>2012-03-24T15:24:16Z</time>
      </trkpt>
      <trkpt lat="46.88979" lon="4.72881">
        <ele>319.5</ele>
        <time>2012-03-24T15:24:20Z</time>
      </trkpt>
      <trkpt lat="46.88978" lon="4.7289">
        <ele>320</ele>
        <time>2012-03-24T15:24:22Z</time>
      </trkpt>
      <trkpt lat="46.8897" lon="4.72895">
        <ele>322.5</ele>
        <time>2012-03-24T15:24:26Z</time>
      </trkpt>
      <trkpt lat="46.88963" lon="4.72893">
        <ele>323.5</ele>
        <time>2012-03-24T15:24:30Z</time>
      </trkpt>
      <trkpt lat="46.88956" lon="4.72892">
        <ele>324</ele>
        <time>2012-03-24T15:24:34Z</time>
      </trkpt>
      <trkpt lat="46.88949" lon="4.72888">
        <ele>325.5</ele>
        <time>2012-03-24T15:24:38Z</time>
      </trkpt>
      <trkpt lat="46.88941" lon="4.72877">
        <ele>326</ele>
        <time>2012-03-24T15:24:44Z</time>
      </trkpt>
      <trkpt lat="46.88937" lon="4.72866">
        <ele>326.5</ele>
        <time>2012-03-24T15:24:48Z</time>
      </trkpt>
      <trkpt lat="46.88934" lon="4.72849">
        <ele>328</ele>
        <time>2012-03-24T15:24:54Z</time>
      </trkpt>
      <trkpt lat="46.88929" lon="4.72835">
        <ele>330</ele>
        <time>2012-03-24T15:25:00Z</time>
      </trkpt>
      <trkpt lat="46.88924" lon="4.72829">
        <ele>331</ele>
        <time>2012-03-24T15:25:04Z</time>
      </trkpt>
      <trkpt lat="46.88917" lon="4.7282">
        <ele>332</ele>
        <time>2012-03-24T15:25:10Z</time>
      </trkpt>
      <trkpt lat="46.88909" lon="4.72812">
        <ele>332.5</ele>
        <time>2012-03-24T15:25:18Z</time>
      </trkpt>
      <trkpt lat="46.88906" lon="4.72809">
        <ele>332.5</ele>
        <time>2012-03-24T15:25:22Z</time>
      </trkpt>
      <trkpt lat="46.88904" lon="4.72807">
        <ele>332.5</ele>
        <time>2012-03-24T15:25:24Z</time>
      </trkpt>
      <trkpt lat="46.88899" lon="4.72801">
        <ele>332.5</ele>
        <time>2012-03-24T15:25:30Z</time>
      </trkpt>
      <trkpt lat="46.88895" lon="4.72795">
        <ele>332.5</ele>
        <time>2012-03-24T15:25:36Z</time>
      </trkpt>
      <trkpt lat="46.88887" lon="4.72789">
        <ele>332.5</ele>
        <time>2012-03-24T15:25:42Z</time>
      </trkpt>
      <trkpt lat="46.88885" lon="4.72788">
        <ele>333</ele>
        <time>2012-03-24T15:25:44Z</time>
      </trkpt>
      <trkpt lat="46.88883" lon="4.72787">
        <ele>333</ele>
        <time>2012-03-24T15:25:46Z</time>
      </trkpt>
      <trkpt lat="46.88879" lon="4.72782">
        <ele>334</ele>
        <time>2012-03-24T15:25:50Z</time>
      </trkpt>
      <trkpt lat="46.88869" lon="4.72771">
        <ele>336</ele>
        <time>2012-03-24T15:26:02Z</time>
      </trkpt>
      <trkpt lat="46.88859" lon="4.72759">
        <ele>338.5</ele>
        <time>2012-03-24T15:26:14Z</time>
      </trkpt>
      <trkpt lat="46.88853" lon="4.72752">
        <ele>338.5</ele>
        <time>2012-03-24T15:26:22Z</time>
      </trkpt>
      <trkpt lat="46.88846" lon="4.7275">
        <ele>339</ele>
        <time>2012-03-24T15:26:28Z</time>
      </trkpt>
      <trkpt lat="46.8884" lon="4.72749">
        <ele>340</ele>
        <time>2012-03-24T15:26:34Z</time>
      </trkpt>
      <trkpt lat="46.88835" lon="4.72747">
        <ele>340.5</ele>
        <time>2012-03-24T15:26:38Z</time>
      </trkpt>
      <trkpt lat="46.88833" lon="4.72745">
        <ele>341</ele>
        <time>2012-03-24T15:26:40Z</time>
      </trkpt>
      <trkpt lat="46.88826" lon="4.72739">
        <ele>347.5</ele>
        <time>2012-03-24T15:26:48Z</time>
      </trkpt>
      <trkpt lat="46.88821" lon="4.72736">
        <ele>348.5</ele>
        <time>2012-03-24T15:26:52Z</time>
      </trkpt>
      <trkpt lat="46.88814" lon="4.72736">
        <ele>350</ele>
        <time>2012-03-24T15:26:58Z</time>
      </trkpt>
      <trkpt lat="46.88811" lon="4.72735">
        <ele>351</ele>
        <time>2012-03-24T15:27:00Z</time>
      </trkpt>
      <trkpt lat="46.88805" lon="4.7273">
        <ele>353</ele>
        <time>2012-03-24T15:27:06Z</time>
      </trkpt>
      <trkpt lat="46.88796" lon="4.72731">
        <ele>356</ele>
        <time>2012-03-24T15:27:14Z</time>
      </trkpt>
      <trkpt lat="46.88788" lon="4.7273">
        <ele>358.5</ele>
        <time>2012-03-24T15:27:22Z</time>
      </trkpt>
      <trkpt lat="46.88779" lon="4.72731">
        <ele>361</ele>
        <time>2012-03-24T15:27:30Z</time>
      </trkpt>
      <trkpt lat="46.88773" lon="4.72732">
        <ele>363</ele>
        <time>2012-03-24T15:27:36Z</time>
      </trkpt>
      <trkpt lat="46.8877" lon="4.72733">
        <ele>363.5</ele>
        <time>2012-03-24T15:27:38Z</time>
      </trkpt>
      <trkpt lat="46.88762" lon="4.7273">
        <ele>364</ele>
        <time>2012-03-24T15:27:44Z</time>
      </trkpt>
      <trkpt lat="46.8876" lon="4.7273">
        <ele>364.5</ele>
        <time>2012-03-24T15:27:46Z</time>
      </trkpt>
      <trkpt lat="46.88754" lon="4.72733">
        <ele>365</ele>
        <time>2012-03-24T15:27:50Z</time>
      </trkpt>
      <trkpt lat="46.88752" lon="4.72735">
        <ele>365.5</ele>
        <time>2012-03-24T15:27:52Z</time>
      </trkpt>
      <trkpt lat="46.88749" lon="4.72737">
        <ele>366</ele>
        <time>2012-03-24T15:27:54Z</time>
      </trkpt>
      <trkpt lat="46.88742" lon="4.72742">
        <ele>366.5</ele>
        <time>2012-03-24T15:27:58Z</time>
      </trkpt>
      <trkpt lat="46.88731" lon="4.72752">
        <ele>368</ele>
        <time>2012-03-24T15:28:04Z</time>
      </trkpt>
      <trkpt lat="46.88727" lon="4.72757">
        <ele>368.5</ele>
        <time>2012-03-24T15:28:06Z</time>
      </trkpt>
      <trkpt lat="46.88719" lon="4.72771">
        <ele>370</ele>
        <time>2012-03-24T15:28:12Z</time>
      </trkpt>
      <trkpt lat="46.8871" lon="4.72781">
        <ele>371.5</ele>
        <time>2012-03-24T15:28:18Z</time>
      </trkpt>
      <trkpt lat="46.88706" lon="4.72786">
        <ele>372.5</ele>
        <time>2012-03-24T15:28:20Z</time>
      </trkpt>
      <trkpt lat="46.88702" lon="4.72799">
        <ele>374</ele>
        <time>2012-03-24T15:28:26Z</time>
      </trkpt>
      <trkpt lat="46.88699" lon="4.72808">
        <ele>375</ele>
        <time>2012-03-24T15:28:30Z</time>
      </trkpt>
      <trkpt lat="46.88693" lon="4.72825">
        <ele>377.5</ele>
        <time>2012-03-24T15:28:40Z</time>
      </trkpt>
      <trkpt lat="46.88692" lon="4.72829">
        <ele>377</ele>
        <time>2012-03-24T15:28:42Z</time>
      </trkpt>
      <trkpt lat="46.88694" lon="4.72845">
        <ele>376</ele>
        <time>2012-03-24T15:28:48Z</time>
      </trkpt>
      <trkpt lat="46.88694" lon="4.72851">
        <ele>375.5</ele>
        <time>2012-03-24T15:28:50Z</time>
      </trkpt>
      <trkpt lat="46.88695" lon="4.72858">
        <ele>374.5</ele>
        <time>2012-03-24T15:28:52Z</time>
      </trkpt>
      <trkpt lat="46.88693" lon="4.72869">
        <ele>375</ele>
        <time>2012-03-24T15:28:56Z</time>
      </trkpt>
      <trkpt lat="46.88689" lon="4.72887">
        <ele>375</ele>
        <time>2012-03-24T15:29:02Z</time>
      </trkpt>
      <trkpt lat="46.88687" lon="4.72895">
        <ele>375</ele>
        <time>2012-03-24T15:29:04Z</time>
      </trkpt>
      <trkpt lat="46.88686" lon="4.72904">
        <ele>374.5</ele>
        <time>2012-03-24T15:29:06Z</time>
      </trkpt>
      <trkpt lat="46.88682" lon="4.72918">
        <ele>375</ele>
        <time>2012-03-24T15:29:10Z</time>
      </trkpt>
      <trkpt lat="46.88679" lon="4.72932">
        <ele>373.5</ele>
        <time>2012-03-24T15:29:14Z</time>
      </trkpt>
      <trkpt lat="46.88673" lon="4.72956">
        <ele>373.5</ele>
        <time>2012-03-24T15:29:22Z</time>
      </trkpt>
      <trkpt lat="46.8867" lon="4.72963">
        <ele>374.5</ele>
        <time>2012-03-24T15:29:28Z</time>
      </trkpt>
      <trkpt lat="46.88665" lon="4.72968">
        <ele>374</ele>
        <time>2012-03-24T15:29:36Z</time>
      </trkpt>
      <trkpt lat="46.88662" lon="4.7297">
        <ele>374</ele>
        <time>2012-03-24T15:29:42Z</time>
      </trkpt>
      <trkpt lat="46.88662" lon="4.72979">
        <ele>374.5</ele>
        <time>2012-03-24T15:29:50Z</time>
      </trkpt>
      <trkpt lat="46.88663" lon="4.72984">
        <ele>374.5</ele>
        <time>2012-03-24T15:29:52Z</time>
      </trkpt>
      <trkpt lat="46.88659" lon="4.72995">
        <ele>375</ele>
        <time>2012-03-24T15:29:58Z</time>
      </trkpt>
      <trkpt lat="46.88657" lon="4.73002">
        <ele>375.5</ele>
        <time>2012-03-24T15:30:00Z</time>
      </trkpt>
      <trkpt lat="46.88656" lon="4.73012">
        <ele>376</ele>
        <time>2012-03-24T15:30:04Z</time>
      </trkpt>
      <trkpt lat="46.88651" lon="4.73037">
        <ele>377.5</ele>
        <time>2012-03-24T15:30:12Z</time>
      </trkpt>
      <trkpt lat="46.8865" lon="4.73043">
        <ele>378</ele>
        <time>2012-03-24T15:30:14Z</time>
      </trkpt>
      <trkpt lat="46.88643" lon="4.7307">
        <ele>379</ele>
        <time>2012-03-24T15:30:24Z</time>
      </trkpt>
      <trkpt lat="46.88639" lon="4.73086">
        <ele>380</ele>
        <time>2012-03-24T15:30:30Z</time>
      </trkpt>
      <trkpt lat="46.88636" lon="4.73093">
        <ele>380.5</ele>
        <time>2012-03-24T15:30:32Z</time>
      </trkpt>
      <trkpt lat="46.88634" lon="4.73099">
        <ele>381</ele>
        <time>2012-03-24T15:30:34Z</time>
      </trkpt>
      <trkpt lat="46.8863" lon="4.73115">
        <ele>381.5</ele>
        <time>2012-03-24T15:30:40Z</time>
      </trkpt>
      <trkpt lat="46.88629" lon="4.73122">
        <ele>381.5</ele>
        <time>2012-03-24T15:30:42Z</time>
      </trkpt>
      <trkpt lat="46.88626" lon="4.73136">
        <ele>381.5</ele>
        <time>2012-03-24T15:30:46Z</time>
      </trkpt>
      <trkpt lat="46.88623" lon="4.73142">
        <ele>382</ele>
        <time>2012-03-24T15:30:48Z</time>
      </trkpt>
      <trkpt lat="46.88619" lon="4.73148">
        <ele>382.5</ele>
        <time>2012-03-24T15:30:50Z</time>
      </trkpt>
      <trkpt lat="46.88613" lon="4.73161">
        <ele>383.5</ele>
        <time>2012-03-24T15:30:54Z</time>
      </trkpt>
      <trkpt lat="46.8861" lon="4.73167">
        <ele>384</ele>
        <time>2012-03-24T15:30:56Z</time>
      </trkpt>
      <trkpt lat="46.88601" lon="4.73184">
        <ele>384</ele>
        <time>2012-03-24T15:31:02Z</time>
      </trkpt>
      <trkpt lat="46.8859" lon="4.73203">
        <ele>384.5</ele>
        <time>2012-03-24T15:31:08Z</time>
      </trkpt>
      <trkpt lat="46.88587" lon="4.73212">
        <ele>384.5</ele>
        <time>2012-03-24T15:31:10Z</time>
      </trkpt>
      <trkpt lat="46.88578" lon="4.73225">
        <ele>384.5</ele>
        <time>2012-03-24T15:31:14Z</time>
      </trkpt>
      <trkpt lat="46.88572" lon="4.73229">
        <ele>384.5</ele>
        <time>2012-03-24T15:31:16Z</time>
      </trkpt>
      <trkpt lat="46.88566" lon="4.73234">
        <ele>384.5</ele>
        <time>2012-03-24T15:31:18Z</time>
      </trkpt>
      <trkpt lat="46.88555" lon="4.73246">
        <ele>384.5</ele>
        <time>2012-03-24T15:31:22Z</time>
      </trkpt>
      <trkpt lat="46.8855" lon="4.73252">
        <ele>384.5</ele>
        <time>2012-03-24T15:31:24Z</time>
      </trkpt>
      <trkpt lat="46.88539" lon="4.73264">
        <ele>384.5</ele>
        <time>2012-03-24T15:31:28Z</time>
      </trkpt>
      <trkpt lat="46.88533" lon="4.73268">
        <ele>384.5</ele>
        <time>2012-03-24T15:31:30Z</time>
      </trkpt>
      <trkpt lat="46.8852" lon="4.73276">
        <ele>384</ele>
        <time>2012-03-24T15:31:34Z</time>
      </trkpt>
      <trkpt lat="46.88513" lon="4.7328">
        <ele>384</ele>
        <time>2012-03-24T15:31:36Z</time>
      </trkpt>
      <trkpt lat="46.88502" lon="4.7329">
        <ele>384</ele>
        <time>2012-03-24T15:31:40Z</time>
      </trkpt>
      <trkpt lat="46.88496" lon="4.73296">
        <ele>384</ele>
        <time>2012-03-24T15:31:42Z</time>
      </trkpt>
      <trkpt lat="46.88482" lon="4.73305">
        <ele>384</ele>
        <time>2012-03-24T15:31:46Z</time>
      </trkpt>
      <trkpt lat="46.88474" lon="4.73309">
        <ele>384</ele>
        <time>2012-03-24T15:31:48Z</time>
      </trkpt>
      <trkpt lat="46.88459" lon="4.73314">
        <ele>383.5</ele>
        <time>2012-03-24T15:31:52Z</time>
      </trkpt>
      <trkpt lat="46.88443" lon="4.73325">
        <ele>383</ele>
        <time>2012-03-24T15:31:56Z</time>
      </trkpt>
      <trkpt lat="46.88427" lon="4.73337">
        <ele>382</ele>
        <time>2012-03-24T15:32:00Z</time>
      </trkpt>
      <trkpt lat="46.88413" lon="4.73355">
        <ele>380.5</ele>
        <time>2012-03-24T15:32:04Z</time>
      </trkpt>
      <trkpt lat="46.88399" lon="4.73383">
        <ele>377</ele>
        <time>2012-03-24T15:32:08Z</time>
      </trkpt>
      <trkpt lat="46.88378" lon="4.73407">
        <ele>374.5</ele>
        <time>2012-03-24T15:32:12Z</time>
      </trkpt>
      <trkpt lat="46.88355" lon="4.73421">
        <ele>372</ele>
        <time>2012-03-24T15:32:16Z</time>
      </trkpt>
      <trkpt lat="46.88329" lon="4.73426">
        <ele>368.5</ele>
        <time>2012-03-24T15:32:20Z</time>
      </trkpt>
      <trkpt lat="46.88311" lon="4.73434">
        <ele>366.5</ele>
        <time>2012-03-24T15:32:24Z</time>
      </trkpt>
      <trkpt lat="46.88295" lon="4.73444">
        <ele>363</ele>
        <time>2012-03-24T15:32:28Z</time>
      </trkpt>
      <trkpt lat="46.88279" lon="4.73456">
        <ele>360</ele>
        <time>2012-03-24T15:32:34Z</time>
      </trkpt>
      <trkpt lat="46.88272" lon="4.73455">
        <ele>359</ele>
        <time>2012-03-24T15:32:40Z</time>
      </trkpt>
      <trkpt lat="46.88267" lon="4.73442">
        <ele>359</ele>
        <time>2012-03-24T15:32:46Z</time>
      </trkpt>
      <trkpt lat="46.88263" lon="4.73434">
        <ele>359.5</ele>
        <time>2012-03-24T15:32:50Z</time>
      </trkpt>
      <trkpt lat="46.88261" lon="4.7343">
        <ele>359.5</ele>
        <time>2012-03-24T15:32:52Z</time>
      </trkpt>
      <trkpt lat="46.8826" lon="4.73426">
        <ele>360</ele>
        <time>2012-03-24T15:32:54Z</time>
      </trkpt>
      <trkpt lat="46.88251" lon="4.73406">
        <ele>361.5</ele>
        <time>2012-03-24T15:33:04Z</time>
      </trkpt>
      <trkpt lat="46.88244" lon="4.73394">
        <ele>364.5</ele>
        <time>2012-03-24T15:33:12Z</time>
      </trkpt>
      <trkpt lat="46.88239" lon="4.73385">
        <ele>366</ele>
        <time>2012-03-24T15:33:16Z</time>
      </trkpt>
      <trkpt lat="46.88235" lon="4.73379">
        <ele>367</ele>
        <time>2012-03-24T15:33:20Z</time>
      </trkpt>
      <trkpt lat="46.88233" lon="4.73373">
        <ele>367</ele>
        <time>2012-03-24T15:33:24Z</time>
      </trkpt>
      <trkpt lat="46.8823" lon="4.73366">
        <ele>368</ele>
        <time>2012-03-24T15:33:28Z</time>
      </trkpt>
      <trkpt lat="46.88225" lon="4.73356">
        <ele>368</ele>
        <time>2012-03-24T15:33:34Z</time>
      </trkpt>
      <trkpt lat="46.88221" lon="4.73348">
        <ele>368</ele>
        <time>2012-03-24T15:33:38Z</time>
      </trkpt>
      <trkpt lat="46.88218" lon="4.73341">
        <ele>368.5</ele>
        <time>2012-03-24T15:33:42Z</time>
      </trkpt>
      <trkpt lat="46.88216" lon="4.73331">
        <ele>369.5</ele>
        <time>2012-03-24T15:33:46Z</time>
      </trkpt>
      <trkpt lat="46.88212" lon="4.73324">
        <ele>369.5</ele>
        <time>2012-03-24T15:33:50Z</time>
      </trkpt>
      <trkpt lat="46.88206" lon="4.7332">
        <ele>369.5</ele>
        <time>2012-03-24T15:33:54Z</time>
      </trkpt>
      <trkpt lat="46.88199" lon="4.73314">
        <ele>368.5</ele>
        <time>2012-03-24T15:33:58Z</time>
      </trkpt>
      <trkpt lat="46.88195" lon="4.73307">
        <ele>369</ele>
        <time>2012-03-24T15:34:02Z</time>
      </trkpt>
      <trkpt lat="46.88191" lon="4.73293">
        <ele>370.5</ele>
        <time>2012-03-24T15:34:08Z</time>
      </trkpt>
      <trkpt lat="46.88191" lon="4.73282">
        <ele>370</ele>
        <time>2012-03-24T15:34:12Z</time>
      </trkpt>
      <trkpt lat="46.88187" lon="4.73263">
        <ele>369.5</ele>
        <time>2012-03-24T15:34:20Z</time>
      </trkpt>
      <trkpt lat="46.88186" lon="4.73258">
        <ele>369.5</ele>
        <time>2012-03-24T15:34:22Z</time>
      </trkpt>
      <trkpt lat="46.88182" lon="4.73249">
        <ele>371</ele>
        <time>2012-03-24T15:34:28Z</time>
      </trkpt>
      <trkpt lat="46.8818" lon="4.73241">
        <ele>372</ele>
        <time>2012-03-24T15:34:32Z</time>
      </trkpt>
      <trkpt lat="46.8818" lon="4.73238">
        <ele>372.5</ele>
        <time>2012-03-24T15:34:34Z</time>
      </trkpt>
      <trkpt lat="46.88178" lon="4.73223">
        <ele>373</ele>
        <time>2012-03-24T15:34:40Z</time>
      </trkpt>
      <trkpt lat="46.88179" lon="4.73214">
        <ele>373.5</ele>
        <time>2012-03-24T15:34:44Z</time>
      </trkpt>
      <trkpt lat="46.88174" lon="4.73195">
        <ele>377</ele>
        <time>2012-03-24T15:34:56Z</time>
      </trkpt>
      <trkpt lat="46.8817" lon="4.73174">
        <ele>378</ele>
        <time>2012-03-24T15:35:06Z</time>
      </trkpt>
      <trkpt lat="46.88169" lon="4.73164">
        <ele>378.5</ele>
        <time>2012-03-24T15:35:10Z</time>
      </trkpt>
      <trkpt lat="46.8816" lon="4.73142">
        <ele>380.5</ele>
        <time>2012-03-24T15:35:20Z</time>
      </trkpt>
      <trkpt lat="46.88155" lon="4.73127">
        <ele>381.5</ele>
        <time>2012-03-24T15:35:26Z</time>
      </trkpt>
      <trkpt lat="46.88154" lon="4.73122">
        <ele>381.5</ele>
        <time>2012-03-24T15:35:28Z</time>
      </trkpt>
      <trkpt lat="46.8815" lon="4.73113">
        <ele>381.5</ele>
        <time>2012-03-24T15:35:32Z</time>
      </trkpt>
      <trkpt lat="46.88139" lon="4.7309">
        <ele>386.5</ele>
        <time>2012-03-24T15:35:42Z</time>
      </trkpt>
      <trkpt lat="46.88132" lon="4.73078">
        <ele>385.5</ele>
        <time>2012-03-24T15:35:46Z</time>
      </trkpt>
      <trkpt lat="46.88129" lon="4.73072">
        <ele>385</ele>
        <time>2012-03-24T15:35:48Z</time>
      </trkpt>
      <trkpt lat="46.88126" lon="4.73067">
        <ele>385</ele>
        <time>2012-03-24T15:35:50Z</time>
      </trkpt>
      <trkpt lat="46.88121" lon="4.73056">
        <ele>386</ele>
        <time>2012-03-24T15:35:54Z</time>
      </trkpt>
      <trkpt lat="46.88118" lon="4.73051">
        <ele>386.5</ele>
        <time>2012-03-24T15:35:56Z</time>
      </trkpt>
      <trkpt lat="46.88114" lon="4.73046">
        <ele>386.5</ele>
        <time>2012-03-24T15:35:58Z</time>
      </trkpt>
      <trkpt lat="46.88107" lon="4.73035">
        <ele>387</ele>
        <time>2012-03-24T15:36:02Z</time>
      </trkpt>
      <trkpt lat="46.88104" lon="4.73028">
        <ele>388</ele>
        <time>2012-03-24T15:36:04Z</time>
      </trkpt>
      <trkpt lat="46.881" lon="4.73021">
        <ele>386.5</ele>
        <time>2012-03-24T15:36:06Z</time>
      </trkpt>
      <trkpt lat="46.88091" lon="4.73007">
        <ele>386</ele>
        <time>2012-03-24T15:36:10Z</time>
      </trkpt>
      <trkpt lat="46.88086" lon="4.73">
        <ele>385.5</ele>
        <time>2012-03-24T15:36:12Z</time>
      </trkpt>
      <trkpt lat="46.8808" lon="4.72984">
        <ele>385</ele>
        <time>2012-03-24T15:36:16Z</time>
      </trkpt>
      <trkpt lat="46.88076" lon="4.72978">
        <ele>384.5</ele>
        <time>2012-03-24T15:36:18Z</time>
      </trkpt>
      <trkpt lat="46.88068" lon="4.72965">
        <ele>385</ele>
        <time>2012-03-24T15:36:22Z</time>
      </trkpt>
      <trkpt lat="46.88063" lon="4.72958">
        <ele>385</ele>
        <time>2012-03-24T15:36:24Z</time>
      </trkpt>
      <trkpt lat="46.88054" lon="4.72946">
        <ele>385.5</ele>
        <time>2012-03-24T15:36:28Z</time>
      </trkpt>
      <trkpt lat="46.88041" lon="4.7293">
        <ele>385</ele>
        <time>2012-03-24T15:36:34Z</time>
      </trkpt>
      <trkpt lat="46.88024" lon="4.72925">
        <ele>385</ele>
        <time>2012-03-24T15:36:40Z</time>
      </trkpt>
      <trkpt lat="46.8801" lon="4.72924">
        <ele>384.5</ele>
        <time>2012-03-24T15:36:44Z</time>
      </trkpt>
      <trkpt lat="46.88002" lon="4.72922">
        <ele>385</ele>
        <time>2012-03-24T15:36:46Z</time>
      </trkpt>
      <trkpt lat="46.87986" lon="4.72913">
        <ele>386.5</ele>
        <time>2012-03-24T15:36:52Z</time>
      </trkpt>
      <trkpt lat="46.87977" lon="4.72903">
        <ele>387</ele>
        <time>2012-03-24T15:36:56Z</time>
      </trkpt>
      <trkpt lat="46.87973" lon="4.72899">
        <ele>387</ele>
        <time>2012-03-24T15:36:58Z</time>
      </trkpt>
      <trkpt lat="46.87969" lon="4.72894">
        <ele>387.5</ele>
        <time>2012-03-24T15:37:00Z</time>
      </trkpt>
      <trkpt lat="46.8796" lon="4.72889">
        <ele>386</ele>
        <time>2012-03-24T15:37:04Z</time>
      </trkpt>
      <trkpt lat="46.8795" lon="4.72885">
        <ele>385</ele>
        <time>2012-03-24T15:37:08Z</time>
      </trkpt>
      <trkpt lat="46.8794" lon="4.72883">
        <ele>383.5</ele>
        <time>2012-03-24T15:37:12Z</time>
      </trkpt>
      <trkpt lat="46.87934" lon="4.72883">
        <ele>383.5</ele>
        <time>2012-03-24T15:37:14Z</time>
      </trkpt>
      <trkpt lat="46.8793" lon="4.72883">
        <ele>383</ele>
        <time>2012-03-24T15:37:16Z</time>
      </trkpt>
      <trkpt lat="46.87912" lon="4.72883">
        <ele>380</ele>
        <time>2012-03-24T15:37:22Z</time>
      </trkpt>
      <trkpt lat="46.87903" lon="4.7288">
        <ele>379</ele>
        <time>2012-03-24T15:37:24Z</time>
      </trkpt>
      <trkpt lat="46.87888" lon="4.72872">
        <ele>378.5</ele>
        <time>2012-03-24T15:37:28Z</time>
      </trkpt>
      <trkpt lat="46.87863" lon="4.72849">
        <ele>380.5</ele>
        <time>2012-03-24T15:37:36Z</time>
      </trkpt>
      <trkpt lat="46.87855" lon="4.72835">
        <ele>381.5</ele>
        <time>2012-03-24T15:37:40Z</time>
      </trkpt>
      <trkpt lat="46.87854" lon="4.72828">
        <ele>381.5</ele>
        <time>2012-03-24T15:37:42Z</time>
      </trkpt>
      <trkpt lat="46.8785" lon="4.7281">
        <ele>383.5</ele>
        <time>2012-03-24T15:37:48Z</time>
      </trkpt>
      <trkpt lat="46.87845" lon="4.72796">
        <ele>387</ele>
        <time>2012-03-24T15:37:54Z</time>
      </trkpt>
      <trkpt lat="46.87839" lon="4.72785">
        <ele>387.5</ele>
        <time>2012-03-24T15:37:58Z</time>
      </trkpt>
      <trkpt lat="46.87828" lon="4.7277">
        <ele>389.5</ele>
        <time>2012-03-24T15:38:04Z</time>
      </trkpt>
      <trkpt lat="46.87824" lon="4.72765">
        <ele>389</ele>
        <time>2012-03-24T15:38:06Z</time>
      </trkpt>
      <trkpt lat="46.87816" lon="4.72755">
        <ele>388</ele>
        <time>2012-03-24T15:38:10Z</time>
      </trkpt>
      <trkpt lat="46.87803" lon="4.72743">
        <ele>387</ele>
        <time>2012-03-24T15:38:16Z</time>
      </trkpt>
      <trkpt lat="46.87798" lon="4.72739">
        <ele>387.5</ele>
        <time>2012-03-24T15:38:18Z</time>
      </trkpt>
      <trkpt lat="46.87786" lon="4.72733">
        <ele>388</ele>
        <time>2012-03-24T15:38:22Z</time>
      </trkpt>
      <trkpt lat="46.8778" lon="4.72731">
        <ele>388.5</ele>
        <time>2012-03-24T15:38:24Z</time>
      </trkpt>
      <trkpt lat="46.8777" lon="4.72726">
        <ele>389.5</ele>
        <time>2012-03-24T15:38:28Z</time>
      </trkpt>
      <trkpt lat="46.87765" lon="4.72725">
        <ele>389.5</ele>
        <time>2012-03-24T15:38:30Z</time>
      </trkpt>
      <trkpt lat="46.87756" lon="4.72721">
        <ele>390</ele>
        <time>2012-03-24T15:38:34Z</time>
      </trkpt>
      <trkpt lat="46.87745" lon="4.72715">
        <ele>390</ele>
        <time>2012-03-24T15:38:38Z</time>
      </trkpt>
      <trkpt lat="46.87735" lon="4.72708">
        <ele>390</ele>
        <time>2012-03-24T15:38:42Z</time>
      </trkpt>
      <trkpt lat="46.87731" lon="4.72705">
        <ele>390.5</ele>
        <time>2012-03-24T15:38:44Z</time>
      </trkpt>
      <trkpt lat="46.87721" lon="4.72701">
        <ele>392.5</ele>
        <time>2012-03-24T15:38:48Z</time>
      </trkpt>
      <trkpt lat="46.87717" lon="4.72697">
        <ele>394</ele>
        <time>2012-03-24T15:38:50Z</time>
      </trkpt>
      <trkpt lat="46.8771" lon="4.72691">
        <ele>394</ele>
        <time>2012-03-24T15:38:54Z</time>
      </trkpt>
      <trkpt lat="46.87703" lon="4.72684">
        <ele>396.5</ele>
        <time>2012-03-24T15:38:58Z</time>
      </trkpt>
      <trkpt lat="46.87693" lon="4.72677">
        <ele>398</ele>
        <time>2012-03-24T15:39:04Z</time>
      </trkpt>
      <trkpt lat="46.87681" lon="4.72672">
        <ele>400</ele>
        <time>2012-03-24T15:39:10Z</time>
      </trkpt>
      <trkpt lat="46.8767" lon="4.7267">
        <ele>400.5</ele>
        <time>2012-03-24T15:39:14Z</time>
      </trkpt>
      <trkpt lat="46.87661" lon="4.72667">
        <ele>400</ele>
        <time>2012-03-24T15:39:18Z</time>
      </trkpt>
      <trkpt lat="46.87656" lon="4.72667">
        <ele>399.5</ele>
        <time>2012-03-24T15:39:20Z</time>
      </trkpt>
      <trkpt lat="46.87651" lon="4.72667">
        <ele>400</ele>
        <time>2012-03-24T15:39:22Z</time>
      </trkpt>
      <trkpt lat="46.87641" lon="4.72664">
        <ele>401</ele>
        <time>2012-03-24T15:39:26Z</time>
      </trkpt>
      <trkpt lat="46.87635" lon="4.72663">
        <ele>401.5</ele>
        <time>2012-03-24T15:39:28Z</time>
      </trkpt>
      <trkpt lat="46.87628" lon="4.72661">
        <ele>400.5</ele>
        <time>2012-03-24T15:39:30Z</time>
      </trkpt>
      <trkpt lat="46.87617" lon="4.72656">
        <ele>401</ele>
        <time>2012-03-24T15:39:34Z</time>
      </trkpt>
      <trkpt lat="46.87612" lon="4.72654">
        <ele>401</ele>
        <time>2012-03-24T15:39:36Z</time>
      </trkpt>
      <trkpt lat="46.87598" lon="4.72652">
        <ele>400.5</ele>
        <time>2012-03-24T15:39:40Z</time>
      </trkpt>
      <trkpt lat="46.87591" lon="4.72648">
        <ele>400</ele>
        <time>2012-03-24T15:39:42Z</time>
      </trkpt>
      <trkpt lat="46.87579" lon="4.72642">
        <ele>401.5</ele>
        <time>2012-03-24T15:39:46Z</time>
      </trkpt>
      <trkpt lat="46.87573" lon="4.7264">
        <ele>402</ele>
        <time>2012-03-24T15:39:48Z</time>
      </trkpt>
      <trkpt lat="46.87551" lon="4.72636">
        <ele>401</ele>
        <time>2012-03-24T15:39:54Z</time>
      </trkpt>
      <trkpt lat="46.87539" lon="4.7263">
        <ele>401</ele>
        <time>2012-03-24T15:39:58Z</time>
      </trkpt>
      <trkpt lat="46.87534" lon="4.7262">
        <ele>403</ele>
        <time>2012-03-24T15:40:02Z</time>
      </trkpt>
      <trkpt lat="46.87533" lon="4.72611">
        <ele>403</ele>
        <time>2012-03-24T15:40:04Z</time>
      </trkpt>
      <trkpt lat="46.87528" lon="4.72603">
        <ele>405</ele>
        <time>2012-03-24T15:40:10Z</time>
      </trkpt>
      <trkpt lat="46.87528" lon="4.72603">
        <ele>405</ele>
        <time>2012-03-24T15:40:46Z</time>
      </trkpt>
      <trkpt lat="46.87528" lon="4.72603">
        <ele>405</ele>
        <time>2012-03-24T15:41:04Z</time>
      </trkpt>
      <trkpt lat="46.87528" lon="4.72603">
        <ele>405</ele>
        <time>2012-03-24T15:41:22Z</time>
      </trkpt>
      <trkpt lat="46.87528" lon="4.72603">
        <ele>405</ele>
        <time>2012-03-24T15:41:40Z</time>
      </trkpt>
      <trkpt lat="46.87521" lon="4.72595">
        <ele>403</ele>
        <time>2012-03-24T15:41:42Z</time>
      </trkpt>
      <trkpt lat="46.87518" lon="4.72593">
        <ele>403.5</ele>
        <time>2012-03-24T15:41:50Z</time>
      </trkpt>
      <trkpt lat="46.87501" lon="4.72586">
        <ele>402.5</ele>
        <time>2012-03-24T15:41:56Z</time>
      </trkpt>
      <trkpt lat="46.87489" lon="4.72581">
        <ele>401</ele>
        <time>2012-03-24T15:41:58Z</time>
      </trkpt>
      <trkpt lat="46.87474" lon="4.72575">
        <ele>399.5</ele>
        <time>2012-03-24T15:42:00Z</time>
      </trkpt>
      <trkpt lat="46.87459" lon="4.72567">
        <ele>398.5</ele>
        <time>2012-03-24T15:42:02Z</time>
      </trkpt>
      <trkpt lat="46.87423" lon="4.72557">
        <ele>396.5</ele>
        <time>2012-03-24T15:42:06Z</time>
      </trkpt>
      <trkpt lat="46.87391" lon="4.7253">
        <ele>394.5</ele>
        <time>2012-03-24T15:42:10Z</time>
      </trkpt>
      <trkpt lat="46.87374" lon="4.72522">
        <ele>393.5</ele>
        <time>2012-03-24T15:42:12Z</time>
      </trkpt>
      <trkpt lat="46.87366" lon="4.72517">
        <ele>393</ele>
        <time>2012-03-24T15:42:13Z</time>
      </trkpt>
      <trkpt lat="46.87359" lon="4.72511">
        <ele>392.5</ele>
        <time>2012-03-24T15:42:14Z</time>
      </trkpt>
      <trkpt lat="46.87354" lon="4.72494">
        <ele>392</ele>
        <time>2012-03-24T15:42:16Z</time>
      </trkpt>
      <trkpt lat="46.87354" lon="4.72485">
        <ele>391.5</ele>
        <time>2012-03-24T15:42:17Z</time>
      </trkpt>
      <trkpt lat="46.87352" lon="4.72476">
        <ele>390</ele>
        <time>2012-03-24T15:42:18Z</time>
      </trkpt>
      <trkpt lat="46.87346" lon="4.7247">
        <ele>389</ele>
        <time>2012-03-24T15:42:19Z</time>
      </trkpt>
      <trkpt lat="46.87307" lon="4.72453">
        <ele>385</ele>
        <time>2012-03-24T15:42:24Z</time>
      </trkpt>
      <trkpt lat="46.87273" lon="4.72437">
        <ele>381.5</ele>
        <time>2012-03-24T15:42:28Z</time>
      </trkpt>
      <trkpt lat="46.87263" lon="4.72431">
        <ele>378.5</ele>
        <time>2012-03-24T15:42:30Z</time>
      </trkpt>
      <trkpt lat="46.87259" lon="4.72427">
        <ele>377</ele>
        <time>2012-03-24T15:42:31Z</time>
      </trkpt>
      <trkpt lat="46.87246" lon="4.72386">
        <ele>372.5</ele>
        <time>2012-03-24T15:42:37Z</time>
      </trkpt>
      <trkpt lat="46.87235" lon="4.72355">
        <ele>372.5</ele>
        <time>2012-03-24T15:42:41Z</time>
      </trkpt>
      <trkpt lat="46.87221" lon="4.7232">
        <ele>373</ele>
        <time>2012-03-24T15:42:47Z</time>
      </trkpt>
      <trkpt lat="46.87212" lon="4.72312">
        <ele>374</ele>
        <time>2012-03-24T15:42:51Z</time>
      </trkpt>
      <trkpt lat="46.87211" lon="4.72285">
        <ele>376</ele>
        <time>2012-03-24T15:43:01Z</time>
      </trkpt>
      <trkpt lat="46.87216" lon="4.72261">
        <ele>377</ele>
        <time>2012-03-24T15:43:07Z</time>
      </trkpt>
      <trkpt lat="46.87218" lon="4.72252">
        <ele>377</ele>
        <time>2012-03-24T15:43:09Z</time>
      </trkpt>
      <trkpt lat="46.87221" lon="4.72243">
        <ele>377</ele>
        <time>2012-03-24T15:43:11Z</time>
      </trkpt>
      <trkpt lat="46.87226" lon="4.72228">
        <ele>377.5</ele>
        <time>2012-03-24T15:43:15Z</time>
      </trkpt>
      <trkpt lat="46.87228" lon="4.72221">
        <ele>378</ele>
        <time>2012-03-24T15:43:17Z</time>
      </trkpt>
      <trkpt lat="46.87232" lon="4.72207">
        <ele>378.5</ele>
        <time>2012-03-24T15:43:21Z</time>
      </trkpt>
      <trkpt lat="46.87234" lon="4.722">
        <ele>379</ele>
        <time>2012-03-24T15:43:23Z</time>
      </trkpt>
      <trkpt lat="46.87236" lon="4.72186">
        <ele>380</ele>
        <time>2012-03-24T15:43:27Z</time>
      </trkpt>
      <trkpt lat="46.87236" lon="4.72178">
        <ele>380</ele>
        <time>2012-03-24T15:43:29Z</time>
      </trkpt>
      <trkpt lat="46.87234" lon="4.72171">
        <ele>380.5</ele>
        <time>2012-03-24T15:43:31Z</time>
      </trkpt>
      <trkpt lat="46.8723" lon="4.72158">
        <ele>381</ele>
        <time>2012-03-24T15:43:35Z</time>
      </trkpt>
      <trkpt lat="46.87227" lon="4.72153">
        <ele>381</ele>
        <time>2012-03-24T15:43:37Z</time>
      </trkpt>
      <trkpt lat="46.87223" lon="4.72149">
        <ele>381.5</ele>
        <time>2012-03-24T15:43:39Z</time>
      </trkpt>
      <trkpt lat="46.87216" lon="4.72138">
        <ele>382</ele>
        <time>2012-03-24T15:43:43Z</time>
      </trkpt>
      <trkpt lat="46.87209" lon="4.72126">
        <ele>382.5</ele>
        <time>2012-03-24T15:43:47Z</time>
      </trkpt>
      <trkpt lat="46.87201" lon="4.72114">
        <ele>382.5</ele>
        <time>2012-03-24T15:43:51Z</time>
      </trkpt>
      <trkpt lat="46.87197" lon="4.7211">
        <ele>383</ele>
        <time>2012-03-24T15:43:53Z</time>
      </trkpt>
      <trkpt lat="46.87189" lon="4.72099">
        <ele>383.5</ele>
        <time>2012-03-24T15:43:57Z</time>
      </trkpt>
      <trkpt lat="46.87181" lon="4.72088">
        <ele>384</ele>
        <time>2012-03-24T15:44:01Z</time>
      </trkpt>
      <trkpt lat="46.87165" lon="4.72068">
        <ele>385</ele>
        <time>2012-03-24T15:44:09Z</time>
      </trkpt>
      <trkpt lat="46.87157" lon="4.72058">
        <ele>385</ele>
        <time>2012-03-24T15:44:13Z</time>
      </trkpt>
      <trkpt lat="46.87152" lon="4.72053">
        <ele>385</ele>
        <time>2012-03-24T15:44:15Z</time>
      </trkpt>
      <trkpt lat="46.87144" lon="4.72041">
        <ele>386</ele>
        <time>2012-03-24T15:44:19Z</time>
      </trkpt>
      <trkpt lat="46.8714" lon="4.72036">
        <ele>386.5</ele>
        <time>2012-03-24T15:44:21Z</time>
      </trkpt>
      <trkpt lat="46.87136" lon="4.72032">
        <ele>386.5</ele>
        <time>2012-03-24T15:44:23Z</time>
      </trkpt>
      <trkpt lat="46.87128" lon="4.72021">
        <ele>387</ele>
        <time>2012-03-24T15:44:27Z</time>
      </trkpt>
      <trkpt lat="46.87124" lon="4.72016">
        <ele>387.5</ele>
        <time>2012-03-24T15:44:29Z</time>
      </trkpt>
      <trkpt lat="46.8712" lon="4.72011">
        <ele>388</ele>
        <time>2012-03-24T15:44:31Z</time>
      </trkpt>
      <trkpt lat="46.87112" lon="4.72001">
        <ele>388.5</ele>
        <time>2012-03-24T15:44:35Z</time>
      </trkpt>
      <trkpt lat="46.87108" lon="4.71995">
        <ele>389</ele>
        <time>2012-03-24T15:44:37Z</time>
      </trkpt>
      <trkpt lat="46.87104" lon="4.71989">
        <ele>389</ele>
        <time>2012-03-24T15:44:39Z</time>
      </trkpt>
      <trkpt lat="46.87097" lon="4.71977">
        <ele>389.5</ele>
        <time>2012-03-24T15:44:43Z</time>
      </trkpt>
      <trkpt lat="46.87094" lon="4.71971">
        <ele>389.5</ele>
        <time>2012-03-24T15:44:45Z</time>
      </trkpt>
      <trkpt lat="46.8709" lon="4.71959">
        <ele>390</ele>
        <time>2012-03-24T15:44:49Z</time>
      </trkpt>
      <trkpt lat="46.87087" lon="4.71953">
        <ele>390.5</ele>
        <time>2012-03-24T15:44:51Z</time>
      </trkpt>
      <trkpt lat="46.87085" lon="4.71946">
        <ele>390.5</ele>
        <time>2012-03-24T15:44:53Z</time>
      </trkpt>
      <trkpt lat="46.8708" lon="4.71923">
        <ele>390.5</ele>
        <time>2012-03-24T15:44:59Z</time>
      </trkpt>
      <trkpt lat="46.87079" lon="4.71916">
        <ele>390.5</ele>
        <time>2012-03-24T15:45:01Z</time>
      </trkpt>
      <trkpt lat="46.87076" lon="4.71902">
        <ele>391.5</ele>
        <time>2012-03-24T15:45:05Z</time>
      </trkpt>
      <trkpt lat="46.8707" lon="4.71875">
        <ele>392</ele>
        <time>2012-03-24T15:45:13Z</time>
      </trkpt>
      <trkpt lat="46.87062" lon="4.71856">
        <ele>392.5</ele>
        <time>2012-03-24T15:45:19Z</time>
      </trkpt>
      <trkpt lat="46.8706" lon="4.71849">
        <ele>392.5</ele>
        <time>2012-03-24T15:45:21Z</time>
      </trkpt>
      <trkpt lat="46.87053" lon="4.71832">
        <ele>393.5</ele>
        <time>2012-03-24T15:45:27Z</time>
      </trkpt>
      <trkpt lat="46.87052" lon="4.71826">
        <ele>393.5</ele>
        <time>2012-03-24T15:45:29Z</time>
      </trkpt>
      <trkpt lat="46.87049" lon="4.71814">
        <ele>394.5</ele>
        <time>2012-03-24T15:45:33Z</time>
      </trkpt>
      <trkpt lat="46.87047" lon="4.71808">
        <ele>394.5</ele>
        <time>2012-03-24T15:45:35Z</time>
      </trkpt>
      <trkpt lat="46.87041" lon="4.71792">
        <ele>396</ele>
        <time>2012-03-24T15:45:41Z</time>
      </trkpt>
      <trkpt lat="46.87039" lon="4.71786">
        <ele>396.5</ele>
        <time>2012-03-24T15:45:43Z</time>
      </trkpt>
      <trkpt lat="46.87034" lon="4.71769">
        <ele>397.5</ele>
        <time>2012-03-24T15:45:49Z</time>
      </trkpt>
      <trkpt lat="46.87031" lon="4.7176">
        <ele>398.5</ele>
        <time>2012-03-24T15:45:53Z</time>
      </trkpt>
      <trkpt lat="46.87027" lon="4.71743">
        <ele>399.5</ele>
        <time>2012-03-24T15:45:59Z</time>
      </trkpt>
      <trkpt lat="46.87025" lon="4.71732">
        <ele>400</ele>
        <time>2012-03-24T15:46:03Z</time>
      </trkpt>
      <trkpt lat="46.87024" lon="4.71713">
        <ele>400.5</ele>
        <time>2012-03-24T15:46:09Z</time>
      </trkpt>
      <trkpt lat="46.87023" lon="4.71706">
        <ele>401</ele>
        <time>2012-03-24T15:46:11Z</time>
      </trkpt>
      <trkpt lat="46.87022" lon="4.71682">
        <ele>402</ele>
        <time>2012-03-24T15:46:19Z</time>
      </trkpt>
      <trkpt lat="46.87021" lon="4.71669">
        <ele>402.5</ele>
        <time>2012-03-24T15:46:23Z</time>
      </trkpt>
      <trkpt lat="46.87019" lon="4.71657">
        <ele>403</ele>
        <time>2012-03-24T15:46:27Z</time>
      </trkpt>
      <trkpt lat="46.87017" lon="4.71637">
        <ele>403.5</ele>
        <time>2012-03-24T15:46:33Z</time>
      </trkpt>
      <trkpt lat="46.87016" lon="4.71631">
        <ele>404</ele>
        <time>2012-03-24T15:46:35Z</time>
      </trkpt>
      <trkpt lat="46.87016" lon="4.71623">
        <ele>404</ele>
        <time>2012-03-24T15:46:37Z</time>
      </trkpt>
      <trkpt lat="46.87015" lon="4.71599">
        <ele>405</ele>
        <time>2012-03-24T15:46:43Z</time>
      </trkpt>
      <trkpt lat="46.87016" lon="4.7159">
        <ele>405</ele>
        <time>2012-03-24T15:46:45Z</time>
      </trkpt>
      <trkpt lat="46.87015" lon="4.71566">
        <ele>405</ele>
        <time>2012-03-24T15:46:51Z</time>
      </trkpt>
      <trkpt lat="46.87015" lon="4.71557">
        <ele>405</ele>
        <time>2012-03-24T15:46:53Z</time>
      </trkpt>
      <trkpt lat="46.87013" lon="4.71541">
        <ele>405.5</ele>
        <time>2012-03-24T15:46:57Z</time>
      </trkpt>
      <trkpt lat="46.87012" lon="4.71532">
        <ele>405.5</ele>
        <time>2012-03-24T15:46:59Z</time>
      </trkpt>
      <trkpt lat="46.87011" lon="4.71515">
        <ele>405.5</ele>
        <time>2012-03-24T15:47:03Z</time>
      </trkpt>
      <trkpt lat="46.8701" lon="4.71506">
        <ele>406</ele>
        <time>2012-03-24T15:47:05Z</time>
      </trkpt>
      <trkpt lat="46.87009" lon="4.71497">
        <ele>406</ele>
        <time>2012-03-24T15:47:07Z</time>
      </trkpt>
      <trkpt lat="46.87008" lon="4.71471">
        <ele>406.5</ele>
        <time>2012-03-24T15:47:13Z</time>
      </trkpt>
      <trkpt lat="46.87009" lon="4.71453">
        <ele>407</ele>
        <time>2012-03-24T15:47:17Z</time>
      </trkpt>
      <trkpt lat="46.87009" lon="4.71445">
        <ele>407</ele>
        <time>2012-03-24T15:47:19Z</time>
      </trkpt>
      <trkpt lat="46.8701" lon="4.71425">
        <ele>407</ele>
        <time>2012-03-24T15:47:23Z</time>
      </trkpt>
      <trkpt lat="46.8701" lon="4.71416">
        <ele>407</ele>
        <time>2012-03-24T15:47:25Z</time>
      </trkpt>
      <trkpt lat="46.8701" lon="4.71408">
        <ele>407.5</ele>
        <time>2012-03-24T15:47:27Z</time>
      </trkpt>
      <trkpt lat="46.87011" lon="4.71389">
        <ele>407.5</ele>
        <time>2012-03-24T15:47:31Z</time>
      </trkpt>
      <trkpt lat="46.87011" lon="4.7138">
        <ele>407.5</ele>
        <time>2012-03-24T15:47:33Z</time>
      </trkpt>
      <trkpt lat="46.87011" lon="4.71362">
        <ele>408</ele>
        <time>2012-03-24T15:47:37Z</time>
      </trkpt>
      <trkpt lat="46.87012" lon="4.71353">
        <ele>408</ele>
        <time>2012-03-24T15:47:39Z</time>
      </trkpt>
      <trkpt lat="46.87007" lon="4.71341">
        <ele>412</ele>
        <time>2012-03-24T15:47:43Z</time>
      </trkpt>
      <trkpt lat="46.87005" lon="4.71335">
        <ele>412.5</ele>
        <time>2012-03-24T15:47:45Z</time>
      </trkpt>
      <trkpt lat="46.86998" lon="4.71324">
        <ele>415.5</ele>
        <time>2012-03-24T15:47:49Z</time>
      </trkpt>
      <trkpt lat="46.86994" lon="4.71317">
        <ele>415.5</ele>
        <time>2012-03-24T15:47:51Z</time>
      </trkpt>
      <trkpt lat="46.86991" lon="4.71311">
        <ele>417</ele>
        <time>2012-03-24T15:47:53Z</time>
      </trkpt>
      <trkpt lat="46.86983" lon="4.71296">
        <ele>420.5</ele>
        <time>2012-03-24T15:47:57Z</time>
      </trkpt>
      <trkpt lat="46.86974" lon="4.71277">
        <ele>423</ele>
        <time>2012-03-24T15:48:01Z</time>
      </trkpt>
      <trkpt lat="46.86968" lon="4.71261">
        <ele>425.5</ele>
        <time>2012-03-24T15:48:05Z</time>
      </trkpt>
      <trkpt lat="46.86965" lon="4.71253">
        <ele>425</ele>
        <time>2012-03-24T15:48:07Z</time>
      </trkpt>
      <trkpt lat="46.86964" lon="4.71235">
        <ele>425</ele>
        <time>2012-03-24T15:48:11Z</time>
      </trkpt>
      <trkpt lat="46.86962" lon="4.71226">
        <ele>425.5</ele>
        <time>2012-03-24T15:48:13Z</time>
      </trkpt>
      <trkpt lat="46.86956" lon="4.71209">
        <ele>428</ele>
        <time>2012-03-24T15:48:17Z</time>
      </trkpt>
      <trkpt lat="46.86952" lon="4.71201">
        <ele>428.5</ele>
        <time>2012-03-24T15:48:19Z</time>
      </trkpt>
      <trkpt lat="46.86939" lon="4.71183">
        <ele>429</ele>
        <time>2012-03-24T15:48:23Z</time>
      </trkpt>
      <trkpt lat="46.86928" lon="4.71169">
        <ele>429</ele>
        <time>2012-03-24T15:48:27Z</time>
      </trkpt>
      <trkpt lat="46.86921" lon="4.71152">
        <ele>428</ele>
        <time>2012-03-24T15:48:31Z</time>
      </trkpt>
      <trkpt lat="46.86918" lon="4.71147">
        <ele>428.5</ele>
        <time>2012-03-24T15:48:33Z</time>
      </trkpt>
      <trkpt lat="46.8691" lon="4.71136">
        <ele>428</ele>
        <time>2012-03-24T15:48:37Z</time>
      </trkpt>
      <trkpt lat="46.86895" lon="4.71115">
        <ele>428</ele>
        <time>2012-03-24T15:48:43Z</time>
      </trkpt>
      <trkpt lat="46.86884" lon="4.71097">
        <ele>428.5</ele>
        <time>2012-03-24T15:48:47Z</time>
      </trkpt>
      <trkpt lat="46.86861" lon="4.7109">
        <ele>428.5</ele>
        <time>2012-03-24T15:48:51Z</time>
      </trkpt>
      <trkpt lat="46.86833" lon="4.71051">
        <ele>422</ele>
        <time>2012-03-24T15:48:57Z</time>
      </trkpt>
      <trkpt lat="46.86828" lon="4.70996">
        <ele>418.5</ele>
        <time>2012-03-24T15:49:01Z</time>
      </trkpt>
      <trkpt lat="46.86824" lon="4.70962">
        <ele>416.5</ele>
        <time>2012-03-24T15:49:05Z</time>
      </trkpt>
      <trkpt lat="46.86813" lon="4.7092">
        <ele>413.5</ele>
        <time>2012-03-24T15:49:11Z</time>
      </trkpt>
      <trkpt lat="46.86789" lon="4.70886">
        <ele>412</ele>
        <time>2012-03-24T15:49:19Z</time>
      </trkpt>
      <trkpt lat="46.86774" lon="4.70884">
        <ele>411.5</ele>
        <time>2012-03-24T15:49:23Z</time>
      </trkpt>
      <trkpt lat="46.86763" lon="4.70846">
        <ele>409</ele>
        <time>2012-03-24T15:49:31Z</time>
      </trkpt>
      <trkpt lat="46.86761" lon="4.70817">
        <ele>409</ele>
        <time>2012-03-24T15:49:35Z</time>
      </trkpt>
      <trkpt lat="46.8675" lon="4.70805">
        <ele>410.5</ele>
        <time>2012-03-24T15:49:39Z</time>
      </trkpt>
      <trkpt lat="46.86738" lon="4.70792">
        <ele>416.5</ele>
        <time>2012-03-24T15:49:45Z</time>
      </trkpt>
      <trkpt lat="46.86726" lon="4.70776">
        <ele>417.5</ele>
        <time>2012-03-24T15:49:49Z</time>
      </trkpt>
      <trkpt lat="46.86718" lon="4.70751">
        <ele>416.5</ele>
        <time>2012-03-24T15:49:53Z</time>
      </trkpt>
      <trkpt lat="46.86715" lon="4.70725">
        <ele>415.5</ele>
        <time>2012-03-24T15:49:57Z</time>
      </trkpt>
      <trkpt lat="46.86716" lon="4.707">
        <ele>414</ele>
        <time>2012-03-24T15:50:01Z</time>
      </trkpt>
      <trkpt lat="46.86713" lon="4.7067">
        <ele>412.5</ele>
        <time>2012-03-24T15:50:05Z</time>
      </trkpt>
      <trkpt lat="46.86705" lon="4.70642">
        <ele>411</ele>
        <time>2012-03-24T15:50:09Z</time>
      </trkpt>
      <trkpt lat="46.867" lon="4.70614">
        <ele>409.5</ele>
        <time>2012-03-24T15:50:13Z</time>
      </trkpt>
      <trkpt lat="46.86696" lon="4.70588">
        <ele>409.5</ele>
        <time>2012-03-24T15:50:17Z</time>
      </trkpt>
      <trkpt lat="46.86692" lon="4.7056">
        <ele>409.5</ele>
        <time>2012-03-24T15:50:21Z</time>
      </trkpt>
      <trkpt lat="46.86686" lon="4.70507">
        <ele>409</ele>
        <time>2012-03-24T15:50:29Z</time>
      </trkpt>
      <trkpt lat="46.86683" lon="4.70483">
        <ele>408.5</ele>
        <time>2012-03-24T15:50:33Z</time>
      </trkpt>
      <trkpt lat="46.86676" lon="4.7046">
        <ele>409</ele>
        <time>2012-03-24T15:50:37Z</time>
      </trkpt>
      <trkpt lat="46.8667" lon="4.70439">
        <ele>410</ele>
        <time>2012-03-24T15:50:41Z</time>
      </trkpt>
      <trkpt lat="46.86662" lon="4.70417">
        <ele>410.5</ele>
        <time>2012-03-24T15:50:45Z</time>
      </trkpt>
      <trkpt lat="46.8665" lon="4.7039">
        <ele>411.5</ele>
        <time>2012-03-24T15:50:51Z</time>
      </trkpt>
      <trkpt lat="46.86641" lon="4.70374">
        <ele>412</ele>
        <time>2012-03-24T15:50:55Z</time>
      </trkpt>
      <trkpt lat="46.86636" lon="4.70365">
        <ele>413.5</ele>
        <time>2012-03-24T15:50:57Z</time>
      </trkpt>
      <trkpt lat="46.86628" lon="4.70349">
        <ele>415</ele>
        <time>2012-03-24T15:51:01Z</time>
      </trkpt>
      <trkpt lat="46.86624" lon="4.70342">
        <ele>415</ele>
        <time>2012-03-24T15:51:03Z</time>
      </trkpt>
      <trkpt lat="46.86619" lon="4.70325">
        <ele>416</ele>
        <time>2012-03-24T15:51:07Z</time>
      </trkpt>
      <trkpt lat="46.86616" lon="4.70315">
        <ele>415.5</ele>
        <time>2012-03-24T15:51:09Z</time>
      </trkpt>
      <trkpt lat="46.86612" lon="4.70298">
        <ele>415.5</ele>
        <time>2012-03-24T15:51:13Z</time>
      </trkpt>
      <trkpt lat="46.8661" lon="4.70289">
        <ele>416</ele>
        <time>2012-03-24T15:51:15Z</time>
      </trkpt>
      <trkpt lat="46.86602" lon="4.70265">
        <ele>418</ele>
        <time>2012-03-24T15:51:21Z</time>
      </trkpt>
      <trkpt lat="46.86597" lon="4.70248">
        <ele>418.5</ele>
        <time>2012-03-24T15:51:25Z</time>
      </trkpt>
      <trkpt lat="46.86588" lon="4.70211">
        <ele>418</ele>
        <time>2012-03-24T15:51:33Z</time>
      </trkpt>
      <trkpt lat="46.86585" lon="4.70196">
        <ele>417.5</ele>
        <time>2012-03-24T15:51:37Z</time>
      </trkpt>
      <trkpt lat="46.86584" lon="4.70188">
        <ele>418</ele>
        <time>2012-03-24T15:51:39Z</time>
      </trkpt>
      <trkpt lat="46.86581" lon="4.70171">
        <ele>418.5</ele>
        <time>2012-03-24T15:51:43Z</time>
      </trkpt>
      <trkpt lat="46.86579" lon="4.70163">
        <ele>418</ele>
        <time>2012-03-24T15:51:45Z</time>
      </trkpt>
      <trkpt lat="46.86573" lon="4.70154">
        <ele>419.5</ele>
        <time>2012-03-24T15:51:49Z</time>
      </trkpt>
      <trkpt lat="46.8657" lon="4.70148">
        <ele>420</ele>
        <time>2012-03-24T15:51:51Z</time>
      </trkpt>
      <trkpt lat="46.86565" lon="4.70129">
        <ele>425.5</ele>
        <time>2012-03-24T15:51:59Z</time>
      </trkpt>
      <trkpt lat="46.86559" lon="4.70118">
        <ele>428</ele>
        <time>2012-03-24T15:52:05Z</time>
      </trkpt>
      <trkpt lat="46.86554" lon="4.70114">
        <ele>430.5</ele>
        <time>2012-03-24T15:52:09Z</time>
      </trkpt>
      <trkpt lat="46.86546" lon="4.70106">
        <ele>436.5</ele>
        <time>2012-03-24T15:52:15Z</time>
      </trkpt>
      <trkpt lat="46.8654" lon="4.70103">
        <ele>440</ele>
        <time>2012-03-24T15:52:19Z</time>
      </trkpt>
      <trkpt lat="46.86532" lon="4.70092">
        <ele>444.5</ele>
        <time>2012-03-24T15:52:25Z</time>
      </trkpt>
      <trkpt lat="46.8652" lon="4.70068">
        <ele>445.5</ele>
        <time>2012-03-24T15:52:29Z</time>
      </trkpt>
      <trkpt lat="46.86514" lon="4.70056">
        <ele>445.5</ele>
        <time>2012-03-24T15:52:31Z</time>
      </trkpt>
      <trkpt lat="46.86506" lon="4.70039">
        <ele>446</ele>
        <time>2012-03-24T15:52:35Z</time>
      </trkpt>
      <trkpt lat="46.86503" lon="4.70029">
        <ele>447</ele>
        <time>2012-03-24T15:52:37Z</time>
      </trkpt>
      <trkpt lat="46.86498" lon="4.70014">
        <ele>448</ele>
        <time>2012-03-24T15:52:41Z</time>
      </trkpt>
      <trkpt lat="46.8649" lon="4.69996">
        <ele>449</ele>
        <time>2012-03-24T15:52:47Z</time>
      </trkpt>
      <trkpt lat="46.86488" lon="4.6999">
        <ele>449.5</ele>
        <time>2012-03-24T15:52:49Z</time>
      </trkpt>
      <trkpt lat="46.86478" lon="4.69972">
        <ele>450</ele>
        <time>2012-03-24T15:52:55Z</time>
      </trkpt>
      <trkpt lat="46.86476" lon="4.69965">
        <ele>449</ele>
        <time>2012-03-24T15:52:57Z</time>
      </trkpt>
      <trkpt lat="46.86471" lon="4.69953">
        <ele>449</ele>
        <time>2012-03-24T15:53:01Z</time>
      </trkpt>
      <trkpt lat="46.86468" lon="4.69947">
        <ele>448.5</ele>
        <time>2012-03-24T15:53:03Z</time>
      </trkpt>
      <trkpt lat="46.86465" lon="4.69941">
        <ele>448.5</ele>
        <time>2012-03-24T15:53:05Z</time>
      </trkpt>
      <trkpt lat="46.86456" lon="4.69927">
        <ele>449</ele>
        <time>2012-03-24T15:53:11Z</time>
      </trkpt>
      <trkpt lat="46.86451" lon="4.69923">
        <ele>449.5</ele>
        <time>2012-03-24T15:53:13Z</time>
      </trkpt>
      <trkpt lat="46.86437" lon="4.69905">
        <ele>450</ele>
        <time>2012-03-24T15:53:19Z</time>
      </trkpt>
      <trkpt lat="46.86436" lon="4.69897">
        <ele>449</ele>
        <time>2012-03-24T15:53:21Z</time>
      </trkpt>
      <trkpt lat="46.86433" lon="4.6988">
        <ele>450.5</ele>
        <time>2012-03-24T15:53:25Z</time>
      </trkpt>
      <trkpt lat="46.86433" lon="4.69871">
        <ele>451</ele>
        <time>2012-03-24T15:53:27Z</time>
      </trkpt>
      <trkpt lat="46.86427" lon="4.69861">
        <ele>452</ele>
        <time>2012-03-24T15:53:31Z</time>
      </trkpt>
      <trkpt lat="46.86425" lon="4.69857">
        <ele>451</ele>
        <time>2012-03-24T15:53:33Z</time>
      </trkpt>
      <trkpt lat="46.86423" lon="4.69851">
        <ele>451</ele>
        <time>2012-03-24T15:53:35Z</time>
      </trkpt>
      <trkpt lat="46.86415" lon="4.69826">
        <ele>450</ele>
        <time>2012-03-24T15:53:43Z</time>
      </trkpt>
      <trkpt lat="46.86411" lon="4.69816">
        <ele>450.5</ele>
        <time>2012-03-24T15:53:47Z</time>
      </trkpt>
      <trkpt lat="46.86405" lon="4.69811">
        <ele>448.5</ele>
        <time>2012-03-24T15:53:51Z</time>
      </trkpt>
      <trkpt lat="46.864" lon="4.69794">
        <ele>451.5</ele>
        <time>2012-03-24T15:53:57Z</time>
      </trkpt>
      <trkpt lat="46.86396" lon="4.69786">
        <ele>453.5</ele>
        <time>2012-03-24T15:54:01Z</time>
      </trkpt>
      <trkpt lat="46.86393" lon="4.69776">
        <ele>455.5</ele>
        <time>2012-03-24T15:54:05Z</time>
      </trkpt>
      <trkpt lat="46.8639" lon="4.69765">
        <ele>456</ele>
        <time>2012-03-24T15:54:09Z</time>
      </trkpt>
      <trkpt lat="46.86383" lon="4.69747">
        <ele>456</ele>
        <time>2012-03-24T15:54:17Z</time>
      </trkpt>
      <trkpt lat="46.86381" lon="4.6974">
        <ele>455.5</ele>
        <time>2012-03-24T15:54:19Z</time>
      </trkpt>
      <trkpt lat="46.86373" lon="4.69726">
        <ele>455.5</ele>
        <time>2012-03-24T15:54:25Z</time>
      </trkpt>
      <trkpt lat="46.86371" lon="4.69721">
        <ele>455.5</ele>
        <time>2012-03-24T15:54:27Z</time>
      </trkpt>
      <trkpt lat="46.86369" lon="4.69715">
        <ele>455.5</ele>
        <time>2012-03-24T15:54:29Z</time>
      </trkpt>
      <trkpt lat="46.86361" lon="4.69701">
        <ele>457</ele>
        <time>2012-03-24T15:54:35Z</time>
      </trkpt>
      <trkpt lat="46.86355" lon="4.69685">
        <ele>459.5</ele>
        <time>2012-03-24T15:54:41Z</time>
      </trkpt>
      <trkpt lat="46.86354" lon="4.69679">
        <ele>461.5</ele>
        <time>2012-03-24T15:54:43Z</time>
      </trkpt>
      <trkpt lat="46.86349" lon="4.6967">
        <ele>463</ele>
        <time>2012-03-24T15:54:47Z</time>
      </trkpt>
      <trkpt lat="46.86346" lon="4.69664">
        <ele>464.5</ele>
        <time>2012-03-24T15:54:49Z</time>
      </trkpt>
      <trkpt lat="46.86337" lon="4.69645">
        <ele>467.5</ele>
        <time>2012-03-24T15:54:57Z</time>
      </trkpt>
      <trkpt lat="46.86335" lon="4.69625">
        <ele>466.5</ele>
        <time>2012-03-24T15:55:01Z</time>
      </trkpt>
      <trkpt lat="46.86336" lon="4.69616">
        <ele>465</ele>
        <time>2012-03-24T15:55:03Z</time>
      </trkpt>
      <trkpt lat="46.86336" lon="4.69608">
        <ele>464.5</ele>
        <time>2012-03-24T15:55:05Z</time>
      </trkpt>
      <trkpt lat="46.86334" lon="4.69592">
        <ele>463</ele>
        <time>2012-03-24T15:55:09Z</time>
      </trkpt>
      <trkpt lat="46.86334" lon="4.69584">
        <ele>462.5</ele>
        <time>2012-03-24T15:55:11Z</time>
      </trkpt>
      <trkpt lat="46.86335" lon="4.69575">
        <ele>461</ele>
        <time>2012-03-24T15:55:15Z</time>
      </trkpt>
      <trkpt lat="46.86327" lon="4.69568">
        <ele>459</ele>
        <time>2012-03-24T15:55:23Z</time>
      </trkpt>
      <trkpt lat="46.86318" lon="4.69566">
        <ele>460</ele>
        <time>2012-03-24T15:55:29Z</time>
      </trkpt>
      <trkpt lat="46.86313" lon="4.69569">
        <ele>463.5</ele>
        <time>2012-03-24T15:55:35Z</time>
      </trkpt>
      <trkpt lat="46.86308" lon="4.69568">
        <ele>463</ele>
        <time>2012-03-24T15:55:37Z</time>
      </trkpt>
      <trkpt lat="46.86301" lon="4.69567">
        <ele>462.5</ele>
        <time>2012-03-24T15:55:39Z</time>
      </trkpt>
      <trkpt lat="46.86294" lon="4.69567">
        <ele>463.5</ele>
        <time>2012-03-24T15:55:41Z</time>
      </trkpt>
      <trkpt lat="46.86288" lon="4.69566">
        <ele>463</ele>
        <time>2012-03-24T15:55:43Z</time>
      </trkpt>
      <trkpt lat="46.86281" lon="4.69565">
        <ele>462.5</ele>
        <time>2012-03-24T15:55:45Z</time>
      </trkpt>
      <trkpt lat="46.86267" lon="4.69564">
        <ele>463.5</ele>
        <time>2012-03-24T15:55:49Z</time>
      </trkpt>
      <trkpt lat="46.86259" lon="4.69563">
        <ele>463.5</ele>
        <time>2012-03-24T15:55:51Z</time>
      </trkpt>
      <trkpt lat="46.86253" lon="4.69561">
        <ele>464</ele>
        <time>2012-03-24T15:55:53Z</time>
      </trkpt>
      <trkpt lat="46.86238" lon="4.69552">
        <ele>464</ele>
        <time>2012-03-24T15:55:57Z</time>
      </trkpt>
      <trkpt lat="46.86212" lon="4.69533">
        <ele>466.5</ele>
        <time>2012-03-24T15:56:03Z</time>
      </trkpt>
      <trkpt lat="46.86196" lon="4.69521">
        <ele>467</ele>
        <time>2012-03-24T15:56:07Z</time>
      </trkpt>
      <trkpt lat="46.86166" lon="4.69503">
        <ele>466</ele>
        <time>2012-03-24T15:56:13Z</time>
      </trkpt>
      <trkpt lat="46.86145" lon="4.69487">
        <ele>463.5</ele>
        <time>2012-03-24T15:56:17Z</time>
      </trkpt>
      <trkpt lat="46.86123" lon="4.69465">
        <ele>458.5</ele>
        <time>2012-03-24T15:56:21Z</time>
      </trkpt>
      <trkpt lat="46.86076" lon="4.69426">
        <ele>451.5</ele>
        <time>2012-03-24T15:56:25Z</time>
      </trkpt>
      <trkpt lat="46.86063" lon="4.69403">
        <ele>448.5</ele>
        <time>2012-03-24T15:56:27Z</time>
      </trkpt>
      <trkpt lat="46.86009" lon="4.69341">
        <ele>442</ele>
        <time>2012-03-24T15:56:34Z</time>
      </trkpt>
      <trkpt lat="46.85996" lon="4.69329">
        <ele>441.5</ele>
        <time>2012-03-24T15:56:36Z</time>
      </trkpt>
      <trkpt lat="46.85992" lon="4.69326">
        <ele>441.5</ele>
        <time>2012-03-24T15:56:38Z</time>
      </trkpt>
      <trkpt lat="46.85986" lon="4.69325">
        <ele>439.5</ele>
        <time>2012-03-24T15:56:44Z</time>
      </trkpt>
      <trkpt lat="46.85981" lon="4.69342">
        <ele>442.5</ele>
        <time>2012-03-24T15:57:00Z</time>
      </trkpt>
      <trkpt lat="46.85974" lon="4.69347">
        <ele>442.5</ele>
        <time>2012-03-24T15:57:02Z</time>
      </trkpt>
      <trkpt lat="46.85959" lon="4.6936">
        <ele>440.5</ele>
        <time>2012-03-24T15:57:06Z</time>
      </trkpt>
      <trkpt lat="46.8595" lon="4.69368">
        <ele>439</ele>
        <time>2012-03-24T15:57:08Z</time>
      </trkpt>
      <trkpt lat="46.85939" lon="4.69378">
        <ele>437.5</ele>
        <time>2012-03-24T15:57:10Z</time>
      </trkpt>
      <trkpt lat="46.85927" lon="4.6939">
        <ele>436</ele>
        <time>2012-03-24T15:57:12Z</time>
      </trkpt>
      <trkpt lat="46.85917" lon="4.69401">
        <ele>434</ele>
        <time>2012-03-24T15:57:14Z</time>
      </trkpt>
      <trkpt lat="46.8591" lon="4.69411">
        <ele>431</ele>
        <time>2012-03-24T15:57:16Z</time>
      </trkpt>
      <trkpt lat="46.85893" lon="4.69441">
        <ele>425</ele>
        <time>2012-03-24T15:57:20Z</time>
      </trkpt>
      <trkpt lat="46.85877" lon="4.69477">
        <ele>423</ele>
        <time>2012-03-24T15:57:24Z</time>
      </trkpt>
      <trkpt lat="46.85866" lon="4.69503">
        <ele>420.5</ele>
        <time>2012-03-24T15:57:28Z</time>
      </trkpt>
      <trkpt lat="46.85873" lon="4.69523">
        <ele>420</ele>
        <time>2012-03-24T15:57:34Z</time>
      </trkpt>
      <trkpt lat="46.85887" lon="4.69552">
        <ele>415</ele>
        <time>2012-03-24T15:57:38Z</time>
      </trkpt>
      <trkpt lat="46.85893" lon="4.69567">
        <ele>412</ele>
        <time>2012-03-24T15:57:40Z</time>
      </trkpt>
      <trkpt lat="46.85885" lon="4.6961">
        <ele>406.5</ele>
        <time>2012-03-24T15:57:44Z</time>
      </trkpt>
      <trkpt lat="46.85869" lon="4.69666">
        <ele>401</ele>
        <time>2012-03-24T15:57:48Z</time>
      </trkpt>
      <trkpt lat="46.85865" lon="4.6968">
        <ele>399.5</ele>
        <time>2012-03-24T15:57:49Z</time>
      </trkpt>
      <trkpt lat="46.85857" lon="4.69708">
        <ele>397</ele>
        <time>2012-03-24T15:57:51Z</time>
      </trkpt>
      <trkpt lat="46.85854" lon="4.69718">
        <ele>397</ele>
        <time>2012-03-24T15:57:52Z</time>
      </trkpt>
      <trkpt lat="46.85852" lon="4.69723">
        <ele>397</ele>
        <time>2012-03-24T15:57:53Z</time>
      </trkpt>
      <trkpt lat="46.85852" lon="4.69723">
        <ele>397</ele>
        <time>2012-03-24T15:58:09Z</time>
      </trkpt>
      <trkpt lat="46.85852" lon="4.69723">
        <ele>397</ele>
        <time>2012-03-24T15:58:39Z</time>
      </trkpt>
      <trkpt lat="46.85852" lon="4.69723">
        <ele>397</ele>
        <time>2012-03-24T15:59:01Z</time>
      </trkpt>
      <trkpt lat="46.85852" lon="4.69723">
        <ele>397</ele>
        <time>2012-03-24T15:59:17Z</time>
      </trkpt>
      <trkpt lat="46.85852" lon="4.69723">
        <ele>397</ele>
        <time>2012-03-24T15:59:39Z</time>
      </trkpt>
      <trkpt lat="46.85852" lon="4.69723">
        <ele>397</ele>
        <time>2012-03-24T15:59:57Z</time>
      </trkpt>
      <trkpt lat="46.85852" lon="4.69723">
        <ele>397</ele>
        <time>2012-03-24T16:00:15Z</time>
      </trkpt>
      <trkpt lat="46.85852" lon="4.69723">
        <ele>397</ele>
        <time>2012-03-24T16:00:33Z</time>
      </trkpt>
      <trkpt lat="46.85852" lon="4.69723">
        <ele>397</ele>
        <time>2012-03-24T16:00:51Z</time>
      </trkpt>
      <trkpt lat="46.85852" lon="4.69723">
        <ele>397</ele>
        <time>2012-03-24T16:01:09Z</time>
      </trkpt>
      <trkpt lat="46.85852" lon="4.69723">
        <ele>397</ele>
        <time>2012-03-24T16:01:25Z</time>
      </trkpt>
      <trkpt lat="46.85852" lon="4.69723">
        <ele>397</ele>
        <time>2012-03-24T16:01:41Z</time>
      </trkpt>
      <trkpt lat="46.85852" lon="4.69723">
        <ele>397</ele>
        <time>2012-03-24T16:01:57Z</time>
      </trkpt>
      <trkpt lat="46.85853" lon="4.69717">
        <ele>393</ele>
        <time>2012-03-24T16:01:59Z</time>
      </trkpt>
      <trkpt lat="46.85842" lon="4.69714">
        <ele>391.5</ele>
        <time>2012-03-24T16:02:05Z</time>
      </trkpt>
      <trkpt lat="46.85824" lon="4.69707">
        <ele>389.5</ele>
        <time>2012-03-24T16:02:09Z</time>
      </trkpt>
      <trkpt lat="46.85815" lon="4.69703">
        <ele>389</ele>
        <time>2012-03-24T16:02:11Z</time>
      </trkpt>
      <trkpt lat="46.85804" lon="4.69697">
        <ele>388</ele>
        <time>2012-03-24T16:02:13Z</time>
      </trkpt>
      <trkpt lat="46.85783" lon="4.69688">
        <ele>386.5</ele>
        <time>2012-03-24T16:02:17Z</time>
      </trkpt>
      <trkpt lat="46.85763" lon="4.69678">
        <ele>386</ele>
        <time>2012-03-24T16:02:21Z</time>
      </trkpt>
      <trkpt lat="46.85743" lon="4.69668">
        <ele>385</ele>
        <time>2012-03-24T16:02:25Z</time>
      </trkpt>
      <trkpt lat="46.85723" lon="4.69658">
        <ele>384.5</ele>
        <time>2012-03-24T16:02:29Z</time>
      </trkpt>
      <trkpt lat="46.85706" lon="4.69648">
        <ele>385</ele>
        <time>2012-03-24T16:02:33Z</time>
      </trkpt>
      <trkpt lat="46.85693" lon="4.69643">
        <ele>385.5</ele>
        <time>2012-03-24T16:02:37Z</time>
      </trkpt>
      <trkpt lat="46.85686" lon="4.69646">
        <ele>385</ele>
        <time>2012-03-24T16:02:39Z</time>
      </trkpt>
      <trkpt lat="46.85674" lon="4.69662">
        <ele>384</ele>
        <time>2012-03-24T16:02:43Z</time>
      </trkpt>
      <trkpt lat="46.85663" lon="4.69685">
        <ele>383</ele>
        <time>2012-03-24T16:02:47Z</time>
      </trkpt>
      <trkpt lat="46.85657" lon="4.69699">
        <ele>382.5</ele>
        <time>2012-03-24T16:02:49Z</time>
      </trkpt>
      <trkpt lat="46.85642" lon="4.69727">
        <ele>381.5</ele>
        <time>2012-03-24T16:02:53Z</time>
      </trkpt>
      <trkpt lat="46.85624" lon="4.69756">
        <ele>380</ele>
        <time>2012-03-24T16:02:57Z</time>
      </trkpt>
      <trkpt lat="46.85602" lon="4.69781">
        <ele>379</ele>
        <time>2012-03-24T16:03:01Z</time>
      </trkpt>
      <trkpt lat="46.85579" lon="4.69805">
        <ele>378</ele>
        <time>2012-03-24T16:03:05Z</time>
      </trkpt>
      <trkpt lat="46.85554" lon="4.6981">
        <ele>379.5</ele>
        <time>2012-03-24T16:03:09Z</time>
      </trkpt>
      <trkpt lat="46.85533" lon="4.69793">
        <ele>378.5</ele>
        <time>2012-03-24T16:03:13Z</time>
      </trkpt>
      <trkpt lat="46.85511" lon="4.69775">
        <ele>378.5</ele>
        <time>2012-03-24T16:03:17Z</time>
      </trkpt>
      <trkpt lat="46.85491" lon="4.69759">
        <ele>379</ele>
        <time>2012-03-24T16:03:21Z</time>
      </trkpt>
      <trkpt lat="46.85473" lon="4.69742">
        <ele>379</ele>
        <time>2012-03-24T16:03:25Z</time>
      </trkpt>
      <trkpt lat="46.85456" lon="4.69727">
        <ele>379.5</ele>
        <time>2012-03-24T16:03:29Z</time>
      </trkpt>
      <trkpt lat="46.85419" lon="4.69696">
        <ele>379</ele>
        <time>2012-03-24T16:03:37Z</time>
      </trkpt>
      <trkpt lat="46.85399" lon="4.69678">
        <ele>378.5</ele>
        <time>2012-03-24T16:03:41Z</time>
      </trkpt>
      <trkpt lat="46.85379" lon="4.69659">
        <ele>378</ele>
        <time>2012-03-24T16:03:45Z</time>
      </trkpt>
      <trkpt lat="46.85359" lon="4.69638">
        <ele>377.5</ele>
        <time>2012-03-24T16:03:49Z</time>
      </trkpt>
      <trkpt lat="46.85338" lon="4.69615">
        <ele>377</ele>
        <time>2012-03-24T16:03:53Z</time>
      </trkpt>
      <trkpt lat="46.85318" lon="4.6959">
        <ele>375.5</ele>
        <time>2012-03-24T16:03:57Z</time>
      </trkpt>
      <trkpt lat="46.85295" lon="4.69565">
        <ele>375</ele>
        <time>2012-03-24T16:04:01Z</time>
      </trkpt>
      <trkpt lat="46.85273" lon="4.69539">
        <ele>374.5</ele>
        <time>2012-03-24T16:04:05Z</time>
      </trkpt>
      <trkpt lat="46.8525" lon="4.69517">
        <ele>374.5</ele>
        <time>2012-03-24T16:04:09Z</time>
      </trkpt>
      <trkpt lat="46.85228" lon="4.69501">
        <ele>375</ele>
        <time>2012-03-24T16:04:13Z</time>
      </trkpt>
      <trkpt lat="46.85209" lon="4.69484">
        <ele>375.5</ele>
        <time>2012-03-24T16:04:17Z</time>
      </trkpt>
      <trkpt lat="46.85196" lon="4.69465">
        <ele>377</ele>
        <time>2012-03-24T16:04:21Z</time>
      </trkpt>
      <trkpt lat="46.85185" lon="4.6944">
        <ele>378</ele>
        <time>2012-03-24T16:04:27Z</time>
      </trkpt>
      <trkpt lat="46.85175" lon="4.69415">
        <ele>380</ele>
        <time>2012-03-24T16:04:33Z</time>
      </trkpt>
      <trkpt lat="46.85162" lon="4.69385">
        <ele>381.5</ele>
        <time>2012-03-24T16:04:41Z</time>
      </trkpt>
      <trkpt lat="46.85156" lon="4.6937">
        <ele>382</ele>
        <time>2012-03-24T16:04:45Z</time>
      </trkpt>
      <trkpt lat="46.85153" lon="4.69364">
        <ele>382</ele>
        <time>2012-03-24T16:04:47Z</time>
      </trkpt>
      <trkpt lat="46.85146" lon="4.69353">
        <ele>384.5</ele>
        <time>2012-03-24T16:04:51Z</time>
      </trkpt>
      <trkpt lat="46.85142" lon="4.69349">
        <ele>386</ele>
        <time>2012-03-24T16:04:53Z</time>
      </trkpt>
      <trkpt lat="46.85135" lon="4.69334">
        <ele>387.5</ele>
        <time>2012-03-24T16:04:57Z</time>
      </trkpt>
      <trkpt lat="46.85131" lon="4.69322">
        <ele>388</ele>
        <time>2012-03-24T16:05:01Z</time>
      </trkpt>
      <trkpt lat="46.85123" lon="4.69306">
        <ele>388.5</ele>
        <time>2012-03-24T16:05:07Z</time>
      </trkpt>
      <trkpt lat="46.8512" lon="4.693">
        <ele>388.5</ele>
        <time>2012-03-24T16:05:09Z</time>
      </trkpt>
      <trkpt lat="46.85114" lon="4.69288">
        <ele>389</ele>
        <time>2012-03-24T16:05:13Z</time>
      </trkpt>
      <trkpt lat="46.8511" lon="4.69284">
        <ele>389</ele>
        <time>2012-03-24T16:05:15Z</time>
      </trkpt>
      <trkpt lat="46.85105" lon="4.69279">
        <ele>389</ele>
        <time>2012-03-24T16:05:17Z</time>
      </trkpt>
      <trkpt lat="46.85096" lon="4.69271">
        <ele>389</ele>
        <time>2012-03-24T16:05:21Z</time>
      </trkpt>
      <trkpt lat="46.85092" lon="4.69266">
        <ele>389.5</ele>
        <time>2012-03-24T16:05:23Z</time>
      </trkpt>
      <trkpt lat="46.85088" lon="4.69261">
        <ele>389.5</ele>
        <time>2012-03-24T16:05:25Z</time>
      </trkpt>
      <trkpt lat="46.8508" lon="4.69249">
        <ele>389.5</ele>
        <time>2012-03-24T16:05:29Z</time>
      </trkpt>
      <trkpt lat="46.85076" lon="4.69244">
        <ele>389.5</ele>
        <time>2012-03-24T16:05:31Z</time>
      </trkpt>
      <trkpt lat="46.85069" lon="4.69232">
        <ele>391</ele>
        <time>2012-03-24T16:05:35Z</time>
      </trkpt>
      <trkpt lat="46.85066" lon="4.69225">
        <ele>390.5</ele>
        <time>2012-03-24T16:05:37Z</time>
      </trkpt>
      <trkpt lat="46.85061" lon="4.6921">
        <ele>390.5</ele>
        <time>2012-03-24T16:05:41Z</time>
      </trkpt>
      <trkpt lat="46.85058" lon="4.69203">
        <ele>390.5</ele>
        <time>2012-03-24T16:05:43Z</time>
      </trkpt>
      <trkpt lat="46.85052" lon="4.69186">
        <ele>390.5</ele>
        <time>2012-03-24T16:05:47Z</time>
      </trkpt>
      <trkpt lat="46.85048" lon="4.69176">
        <ele>389.5</ele>
        <time>2012-03-24T16:05:49Z</time>
      </trkpt>
      <trkpt lat="46.85035" lon="4.69158">
        <ele>388</ele>
        <time>2012-03-24T16:05:53Z</time>
      </trkpt>
      <trkpt lat="46.85026" lon="4.69149">
        <ele>387.5</ele>
        <time>2012-03-24T16:05:55Z</time>
      </trkpt>
      <trkpt lat="46.85006" lon="4.69126">
        <ele>385.5</ele>
        <time>2012-03-24T16:05:59Z</time>
      </trkpt>
      <trkpt lat="46.84988" lon="4.69095">
        <ele>385</ele>
        <time>2012-03-24T16:06:03Z</time>
      </trkpt>
      <trkpt lat="46.84978" lon="4.69074">
        <ele>386.5</ele>
        <time>2012-03-24T16:06:07Z</time>
      </trkpt>
      <trkpt lat="46.84971" lon="4.69057">
        <ele>387.5</ele>
        <time>2012-03-24T16:06:11Z</time>
      </trkpt>
      <trkpt lat="46.84967" lon="4.69052">
        <ele>388</ele>
        <time>2012-03-24T16:06:13Z</time>
      </trkpt>
      <trkpt lat="46.8496" lon="4.69042">
        <ele>389</ele>
        <time>2012-03-24T16:06:17Z</time>
      </trkpt>
      <trkpt lat="46.84955" lon="4.69038">
        <ele>390</ele>
        <time>2012-03-24T16:06:19Z</time>
      </trkpt>
      <trkpt lat="46.84946" lon="4.69026">
        <ele>392</ele>
        <time>2012-03-24T16:06:25Z</time>
      </trkpt>
      <trkpt lat="46.8494" lon="4.69014">
        <ele>394</ele>
        <time>2012-03-24T16:06:31Z</time>
      </trkpt>
      <trkpt lat="46.84938" lon="4.69009">
        <ele>393.5</ele>
        <time>2012-03-24T16:06:33Z</time>
      </trkpt>
      <trkpt lat="46.84936" lon="4.69005">
        <ele>394</ele>
        <time>2012-03-24T16:06:35Z</time>
      </trkpt>
      <trkpt lat="46.84932" lon="4.6899">
        <ele>393.5</ele>
        <time>2012-03-24T16:06:41Z</time>
      </trkpt>
      <trkpt lat="46.84929" lon="4.68981">
        <ele>394</ele>
        <time>2012-03-24T16:06:45Z</time>
      </trkpt>
      <trkpt lat="46.84928" lon="4.68977">
        <ele>394.5</ele>
        <time>2012-03-24T16:06:47Z</time>
      </trkpt>
      <trkpt lat="46.84925" lon="4.68967">
        <ele>394.5</ele>
        <time>2012-03-24T16:06:53Z</time>
      </trkpt>
      <trkpt lat="46.84923" lon="4.6896">
        <ele>395.5</ele>
        <time>2012-03-24T16:06:57Z</time>
      </trkpt>
      <trkpt lat="46.84921" lon="4.68957">
        <ele>395.5</ele>
        <time>2012-03-24T16:06:59Z</time>
      </trkpt>
      <trkpt lat="46.84916" lon="4.68947">
        <ele>396.5</ele>
        <time>2012-03-24T16:07:05Z</time>
      </trkpt>
      <trkpt lat="46.84914" lon="4.68942">
        <ele>397</ele>
        <time>2012-03-24T16:07:09Z</time>
      </trkpt>
      <trkpt lat="46.84913" lon="4.68938">
        <ele>397.5</ele>
        <time>2012-03-24T16:07:11Z</time>
      </trkpt>
      <trkpt lat="46.84907" lon="4.68931">
        <ele>399</ele>
        <time>2012-03-24T16:07:17Z</time>
      </trkpt>
      <trkpt lat="46.84905" lon="4.68928">
        <ele>399.5</ele>
        <time>2012-03-24T16:07:19Z</time>
      </trkpt>
      <trkpt lat="46.84902" lon="4.68922">
        <ele>400</ele>
        <time>2012-03-24T16:07:23Z</time>
      </trkpt>
      <trkpt lat="46.84897" lon="4.68914">
        <ele>401</ele>
        <time>2012-03-24T16:07:29Z</time>
      </trkpt>
      <trkpt lat="46.84893" lon="4.68908">
        <ele>401.5</ele>
        <time>2012-03-24T16:07:33Z</time>
      </trkpt>
      <trkpt lat="46.84891" lon="4.68906">
        <ele>401.5</ele>
        <time>2012-03-24T16:07:35Z</time>
      </trkpt>
      <trkpt lat="46.84884" lon="4.68899">
        <ele>402</ele>
        <time>2012-03-24T16:07:41Z</time>
      </trkpt>
      <trkpt lat="46.84881" lon="4.68897">
        <ele>402.5</ele>
        <time>2012-03-24T16:07:43Z</time>
      </trkpt>
      <trkpt lat="46.84876" lon="4.68893">
        <ele>402.5</ele>
        <time>2012-03-24T16:07:47Z</time>
      </trkpt>
      <trkpt lat="46.84867" lon="4.68888">
        <ele>403</ele>
        <time>2012-03-24T16:07:53Z</time>
      </trkpt>
      <trkpt lat="46.84862" lon="4.68883">
        <ele>404</ele>
        <time>2012-03-24T16:07:57Z</time>
      </trkpt>
      <trkpt lat="46.84849" lon="4.68871">
        <ele>405</ele>
        <time>2012-03-24T16:08:07Z</time>
      </trkpt>
      <trkpt lat="46.84841" lon="4.68867">
        <ele>406</ele>
        <time>2012-03-24T16:08:13Z</time>
      </trkpt>
      <trkpt lat="46.84836" lon="4.68865">
        <ele>406.5</ele>
        <time>2012-03-24T16:08:17Z</time>
      </trkpt>
      <trkpt lat="46.84829" lon="4.68863">
        <ele>408</ele>
        <time>2012-03-24T16:08:23Z</time>
      </trkpt>
      <trkpt lat="46.84824" lon="4.68859">
        <ele>409</ele>
        <time>2012-03-24T16:08:27Z</time>
      </trkpt>
      <trkpt lat="46.8482" lon="4.68855">
        <ele>410</ele>
        <time>2012-03-24T16:08:31Z</time>
      </trkpt>
      <trkpt lat="46.84813" lon="4.68849">
        <ele>411.5</ele>
        <time>2012-03-24T16:08:37Z</time>
      </trkpt>
      <trkpt lat="46.84811" lon="4.68847">
        <ele>412</ele>
        <time>2012-03-24T16:08:39Z</time>
      </trkpt>
      <trkpt lat="46.84808" lon="4.68841">
        <ele>413.5</ele>
        <time>2012-03-24T16:08:43Z</time>
      </trkpt>
      <trkpt lat="46.84803" lon="4.68835">
        <ele>415</ele>
        <time>2012-03-24T16:08:49Z</time>
      </trkpt>
      <trkpt lat="46.84796" lon="4.68827">
        <ele>418</ele>
        <time>2012-03-24T16:08:57Z</time>
      </trkpt>
      <trkpt lat="46.84789" lon="4.68821">
        <ele>419</ele>
        <time>2012-03-24T16:09:03Z</time>
      </trkpt>
      <trkpt lat="46.84784" lon="4.68817">
        <ele>419.5</ele>
        <time>2012-03-24T16:09:07Z</time>
      </trkpt>
      <trkpt lat="46.84778" lon="4.68813">
        <ele>420.5</ele>
        <time>2012-03-24T16:09:11Z</time>
      </trkpt>
      <trkpt lat="46.84774" lon="4.68805">
        <ele>421</ele>
        <time>2012-03-24T16:09:17Z</time>
      </trkpt>
      <trkpt lat="46.8477" lon="4.68801">
        <ele>421.5</ele>
        <time>2012-03-24T16:09:21Z</time>
      </trkpt>
      <trkpt lat="46.84764" lon="4.68798">
        <ele>422</ele>
        <time>2012-03-24T16:09:25Z</time>
      </trkpt>
      <trkpt lat="46.84759" lon="4.68789">
        <ele>423</ele>
        <time>2012-03-24T16:09:31Z</time>
      </trkpt>
      <trkpt lat="46.84754" lon="4.68784">
        <ele>423</ele>
        <time>2012-03-24T16:09:35Z</time>
      </trkpt>
      <trkpt lat="46.84749" lon="4.68781">
        <ele>422.5</ele>
        <time>2012-03-24T16:09:37Z</time>
      </trkpt>
      <trkpt lat="46.84742" lon="4.6878">
        <ele>421.5</ele>
        <time>2012-03-24T16:09:39Z</time>
      </trkpt>
      <trkpt lat="46.84718" lon="4.68778">
        <ele>419</ele>
        <time>2012-03-24T16:09:43Z</time>
      </trkpt>
      <trkpt lat="46.84705" lon="4.68776">
        <ele>418.5</ele>
        <time>2012-03-24T16:09:45Z</time>
      </trkpt>
      <trkpt lat="46.84694" lon="4.68772">
        <ele>418</ele>
        <time>2012-03-24T16:09:47Z</time>
      </trkpt>
      <trkpt lat="46.84685" lon="4.68774">
        <ele>418</ele>
        <time>2012-03-24T16:09:51Z</time>
      </trkpt>
      <trkpt lat="46.84672" lon="4.68777">
        <ele>416</ele>
        <time>2012-03-24T16:09:55Z</time>
      </trkpt>
      <trkpt lat="46.84662" lon="4.68787">
        <ele>414</ele>
        <time>2012-03-24T16:09:57Z</time>
      </trkpt>
      <trkpt lat="46.84654" lon="4.68804">
        <ele>413</ele>
        <time>2012-03-24T16:09:59Z</time>
      </trkpt>
      <trkpt lat="46.8463" lon="4.68854">
        <ele>412.5</ele>
        <time>2012-03-24T16:10:03Z</time>
      </trkpt>
      <trkpt lat="46.84607" lon="4.68903">
        <ele>408.5</ele>
        <time>2012-03-24T16:10:07Z</time>
      </trkpt>
      <trkpt lat="46.84603" lon="4.6891">
        <ele>407</ele>
        <time>2012-03-24T16:10:08Z</time>
      </trkpt>
      <trkpt lat="46.84596" lon="4.6892">
        <ele>404.5</ele>
        <time>2012-03-24T16:10:10Z</time>
      </trkpt>
      <trkpt lat="46.84594" lon="4.68931">
        <ele>402</ele>
        <time>2012-03-24T16:10:12Z</time>
      </trkpt>
      <trkpt lat="46.84609" lon="4.68975">
        <ele>394</ele>
        <time>2012-03-24T16:10:17Z</time>
      </trkpt>
      <trkpt lat="46.84621" lon="4.69044">
        <ele>386</ele>
        <time>2012-03-24T16:10:23Z</time>
      </trkpt>
      <trkpt lat="46.84614" lon="4.69064">
        <ele>384</ele>
        <time>2012-03-24T16:10:25Z</time>
      </trkpt>
      <trkpt lat="46.84608" lon="4.69072">
        <ele>382.5</ele>
        <time>2012-03-24T16:10:26Z</time>
      </trkpt>
      <trkpt lat="46.846" lon="4.69079">
        <ele>381.5</ele>
        <time>2012-03-24T16:10:27Z</time>
      </trkpt>
      <trkpt lat="46.84575" lon="4.69097">
        <ele>378</ele>
        <time>2012-03-24T16:10:30Z</time>
      </trkpt>
      <trkpt lat="46.84566" lon="4.69104">
        <ele>376.5</ele>
        <time>2012-03-24T16:10:31Z</time>
      </trkpt>
      <trkpt lat="46.84558" lon="4.6911">
        <ele>375</ele>
        <time>2012-03-24T16:10:32Z</time>
      </trkpt>
      <trkpt lat="46.84533" lon="4.69119">
        <ele>371.5</ele>
        <time>2012-03-24T16:10:35Z</time>
      </trkpt>
      <trkpt lat="46.84525" lon="4.69119">
        <ele>370.5</ele>
        <time>2012-03-24T16:10:36Z</time>
      </trkpt>
      <trkpt lat="46.84516" lon="4.69117">
        <ele>369</ele>
        <time>2012-03-24T16:10:37Z</time>
      </trkpt>
      <trkpt lat="46.84488" lon="4.69104">
        <ele>366.5</ele>
        <time>2012-03-24T16:10:40Z</time>
      </trkpt>
      <trkpt lat="46.84478" lon="4.691">
        <ele>365.5</ele>
        <time>2012-03-24T16:10:41Z</time>
      </trkpt>
      <trkpt lat="46.84457" lon="4.69097">
        <ele>363.5</ele>
        <time>2012-03-24T16:10:43Z</time>
      </trkpt>
      <trkpt lat="46.84447" lon="4.69097">
        <ele>362.5</ele>
        <time>2012-03-24T16:10:44Z</time>
      </trkpt>
      <trkpt lat="46.84437" lon="4.69098">
        <ele>362</ele>
        <time>2012-03-24T16:10:45Z</time>
      </trkpt>
      <trkpt lat="46.84417" lon="4.69104">
        <ele>359.5</ele>
        <time>2012-03-24T16:10:47Z</time>
      </trkpt>
      <trkpt lat="46.84407" lon="4.69108">
        <ele>358.5</ele>
        <time>2012-03-24T16:10:48Z</time>
      </trkpt>
      <trkpt lat="46.84398" lon="4.69112">
        <ele>357</ele>
        <time>2012-03-24T16:10:49Z</time>
      </trkpt>
      <trkpt lat="46.8439" lon="4.69117">
        <ele>356.5</ele>
        <time>2012-03-24T16:10:50Z</time>
      </trkpt>
      <trkpt lat="46.84376" lon="4.69132">
        <ele>355</ele>
        <time>2012-03-24T16:10:52Z</time>
      </trkpt>
      <trkpt lat="46.84369" lon="4.69139">
        <ele>354</ele>
        <time>2012-03-24T16:10:53Z</time>
      </trkpt>
      <trkpt lat="46.84361" lon="4.69144">
        <ele>353</ele>
        <time>2012-03-24T16:10:54Z</time>
      </trkpt>
      <trkpt lat="46.84345" lon="4.69157">
        <ele>351</ele>
        <time>2012-03-24T16:10:56Z</time>
      </trkpt>
      <trkpt lat="46.8433" lon="4.69171">
        <ele>348</ele>
        <time>2012-03-24T16:10:58Z</time>
      </trkpt>
      <trkpt lat="46.84324" lon="4.69177">
        <ele>346.5</ele>
        <time>2012-03-24T16:10:59Z</time>
      </trkpt>
      <trkpt lat="46.84319" lon="4.69193">
        <ele>347</ele>
        <time>2012-03-24T16:11:01Z</time>
      </trkpt>
      <trkpt lat="46.84318" lon="4.69204">
        <ele>346</ele>
        <time>2012-03-24T16:11:02Z</time>
      </trkpt>
      <trkpt lat="46.84318" lon="4.69216">
        <ele>344.5</ele>
        <time>2012-03-24T16:11:03Z</time>
      </trkpt>
      <trkpt lat="46.84316" lon="4.69228">
        <ele>344</ele>
        <time>2012-03-24T16:11:04Z</time>
      </trkpt>
      <trkpt lat="46.84312" lon="4.69251">
        <ele>341.5</ele>
        <time>2012-03-24T16:11:06Z</time>
      </trkpt>
      <trkpt lat="46.84308" lon="4.69257">
        <ele>341</ele>
        <time>2012-03-24T16:11:07Z</time>
      </trkpt>
      <trkpt lat="46.84303" lon="4.69262">
        <ele>343</ele>
        <time>2012-03-24T16:11:08Z</time>
      </trkpt>
      <trkpt lat="46.84277" lon="4.69271">
        <ele>342</ele>
        <time>2012-03-24T16:11:13Z</time>
      </trkpt>
      <trkpt lat="46.84258" lon="4.69273">
        <ele>345.5</ele>
        <time>2012-03-24T16:11:19Z</time>
      </trkpt>
      <trkpt lat="46.84248" lon="4.69271">
        <ele>346</ele>
        <time>2012-03-24T16:11:23Z</time>
      </trkpt>
      <trkpt lat="46.84244" lon="4.69269">
        <ele>346.5</ele>
        <time>2012-03-24T16:11:25Z</time>
      </trkpt>
      <trkpt lat="46.84233" lon="4.69266">
        <ele>346.5</ele>
        <time>2012-03-24T16:11:29Z</time>
      </trkpt>
      <trkpt lat="46.84226" lon="4.69262">
        <ele>346.5</ele>
        <time>2012-03-24T16:11:33Z</time>
      </trkpt>
      <trkpt lat="46.84219" lon="4.6926">
        <ele>347</ele>
        <time>2012-03-24T16:11:37Z</time>
      </trkpt>
      <trkpt lat="46.84212" lon="4.69258">
        <ele>347</ele>
        <time>2012-03-24T16:11:41Z</time>
      </trkpt>
      <trkpt lat="46.84203" lon="4.69257">
        <ele>347.5</ele>
        <time>2012-03-24T16:11:45Z</time>
      </trkpt>
      <trkpt lat="46.84201" lon="4.69256">
        <ele>348</ele>
        <time>2012-03-24T16:11:47Z</time>
      </trkpt>
      <trkpt lat="46.84193" lon="4.69259">
        <ele>348</ele>
        <time>2012-03-24T16:11:51Z</time>
      </trkpt>
      <trkpt lat="46.84174" lon="4.69253">
        <ele>347.5</ele>
        <time>2012-03-24T16:11:59Z</time>
      </trkpt>
      <trkpt lat="46.84169" lon="4.69251">
        <ele>347.5</ele>
        <time>2012-03-24T16:12:01Z</time>
      </trkpt>
      <trkpt lat="46.84154" lon="4.69245">
        <ele>348.5</ele>
        <time>2012-03-24T16:12:07Z</time>
      </trkpt>
      <trkpt lat="46.84142" lon="4.69241">
        <ele>348.5</ele>
        <time>2012-03-24T16:12:13Z</time>
      </trkpt>
      <trkpt lat="46.84131" lon="4.69239">
        <ele>350.5</ele>
        <time>2012-03-24T16:12:19Z</time>
      </trkpt>
      <trkpt lat="46.84122" lon="4.69241">
        <ele>353</ele>
        <time>2012-03-24T16:12:25Z</time>
      </trkpt>
      <trkpt lat="46.84118" lon="4.69242">
        <ele>353</ele>
        <time>2012-03-24T16:12:27Z</time>
      </trkpt>
      <trkpt lat="46.84114" lon="4.69242">
        <ele>353.5</ele>
        <time>2012-03-24T16:12:29Z</time>
      </trkpt>
      <trkpt lat="46.84103" lon="4.69246">
        <ele>355</ele>
        <time>2012-03-24T16:12:35Z</time>
      </trkpt>
      <trkpt lat="46.84096" lon="4.6925">
        <ele>356</ele>
        <time>2012-03-24T16:12:39Z</time>
      </trkpt>
      <trkpt lat="46.84093" lon="4.69251">
        <ele>356</ele>
        <time>2012-03-24T16:12:41Z</time>
      </trkpt>
      <trkpt lat="46.84086" lon="4.69255">
        <ele>357.5</ele>
        <time>2012-03-24T16:12:45Z</time>
      </trkpt>
      <trkpt lat="46.84079" lon="4.69256">
        <ele>357.5</ele>
        <time>2012-03-24T16:12:47Z</time>
      </trkpt>
      <trkpt lat="46.84074" lon="4.69257">
        <ele>357</ele>
        <time>2012-03-24T16:12:49Z</time>
      </trkpt>
      <trkpt lat="46.8407" lon="4.69257">
        <ele>357.5</ele>
        <time>2012-03-24T16:12:51Z</time>
      </trkpt>
      <trkpt lat="46.84059" lon="4.69259">
        <ele>357.5</ele>
        <time>2012-03-24T16:12:59Z</time>
      </trkpt>
      <trkpt lat="46.84056" lon="4.69259">
        <ele>357.5</ele>
        <time>2012-03-24T16:13:01Z</time>
      </trkpt>
      <trkpt lat="46.84039" lon="4.69258">
        <ele>358.5</ele>
        <time>2012-03-24T16:13:11Z</time>
      </trkpt>
      <trkpt lat="46.84025" lon="4.69258">
        <ele>361</ele>
        <time>2012-03-24T16:13:21Z</time>
      </trkpt>
      <trkpt lat="46.84013" lon="4.69261">
        <ele>362.5</ele>
        <time>2012-03-24T16:13:29Z</time>
      </trkpt>
      <trkpt lat="46.84008" lon="4.69263">
        <ele>363</ele>
        <time>2012-03-24T16:13:33Z</time>
      </trkpt>
      <trkpt lat="46.84003" lon="4.69265">
        <ele>364</ele>
        <time>2012-03-24T16:13:37Z</time>
      </trkpt>
      <trkpt lat="46.83991" lon="4.69267">
        <ele>365.5</ele>
        <time>2012-03-24T16:13:45Z</time>
      </trkpt>
      <trkpt lat="46.83985" lon="4.69269">
        <ele>366.5</ele>
        <time>2012-03-24T16:13:49Z</time>
      </trkpt>
      <trkpt lat="46.83975" lon="4.69272">
        <ele>366.5</ele>
        <time>2012-03-24T16:13:55Z</time>
      </trkpt>
      <trkpt lat="46.83961" lon="4.69278">
        <ele>366</ele>
        <time>2012-03-24T16:14:03Z</time>
      </trkpt>
      <trkpt lat="46.83954" lon="4.69281">
        <ele>366.5</ele>
        <time>2012-03-24T16:14:07Z</time>
      </trkpt>
      <trkpt lat="46.83945" lon="4.69284">
        <ele>367.5</ele>
        <time>2012-03-24T16:14:13Z</time>
      </trkpt>
      <trkpt lat="46.83938" lon="4.69288">
        <ele>367.5</ele>
        <time>2012-03-24T16:14:17Z</time>
      </trkpt>
      <trkpt lat="46.83923" lon="4.69302">
        <ele>368</ele>
        <time>2012-03-24T16:14:25Z</time>
      </trkpt>
      <trkpt lat="46.83919" lon="4.69306">
        <ele>368</ele>
        <time>2012-03-24T16:14:27Z</time>
      </trkpt>
      <trkpt lat="46.83912" lon="4.69313">
        <ele>368.5</ele>
        <time>2012-03-24T16:14:31Z</time>
      </trkpt>
      <trkpt lat="46.83908" lon="4.69317">
        <ele>368.5</ele>
        <time>2012-03-24T16:14:33Z</time>
      </trkpt>
      <trkpt lat="46.83905" lon="4.69321">
        <ele>369</ele>
        <time>2012-03-24T16:14:35Z</time>
      </trkpt>
      <trkpt lat="46.83894" lon="4.69332">
        <ele>369.5</ele>
        <time>2012-03-24T16:14:41Z</time>
      </trkpt>
      <trkpt lat="46.8389" lon="4.69335">
        <ele>370</ele>
        <time>2012-03-24T16:14:43Z</time>
      </trkpt>
      <trkpt lat="46.83887" lon="4.69351">
        <ele>370.5</ele>
        <time>2012-03-24T16:14:49Z</time>
      </trkpt>
      <trkpt lat="46.83888" lon="4.69359">
        <ele>370.5</ele>
        <time>2012-03-24T16:14:51Z</time>
      </trkpt>
      <trkpt lat="46.83893" lon="4.69374">
        <ele>370</ele>
        <time>2012-03-24T16:14:55Z</time>
      </trkpt>
      <trkpt lat="46.83895" lon="4.69382">
        <ele>370</ele>
        <time>2012-03-24T16:14:57Z</time>
      </trkpt>
      <trkpt lat="46.83896" lon="4.6939">
        <ele>370</ele>
        <time>2012-03-24T16:14:59Z</time>
      </trkpt>
      <trkpt lat="46.83898" lon="4.69404">
        <ele>370.5</ele>
        <time>2012-03-24T16:15:03Z</time>
      </trkpt>
      <trkpt lat="46.839" lon="4.69411">
        <ele>371</ele>
        <time>2012-03-24T16:15:05Z</time>
      </trkpt>
      <trkpt lat="46.83903" lon="4.69432">
        <ele>372.5</ele>
        <time>2012-03-24T16:15:13Z</time>
      </trkpt>
      <trkpt lat="46.83904" lon="4.69441">
        <ele>373</ele>
        <time>2012-03-24T16:15:17Z</time>
      </trkpt>
      <trkpt lat="46.83905" lon="4.6945">
        <ele>374</ele>
        <time>2012-03-24T16:15:21Z</time>
      </trkpt>
      <trkpt lat="46.83909" lon="4.69461">
        <ele>376</ele>
        <time>2012-03-24T16:15:27Z</time>
      </trkpt>
      <trkpt lat="46.83913" lon="4.69467">
        <ele>377</ele>
        <time>2012-03-24T16:15:31Z</time>
      </trkpt>
      <trkpt lat="46.83918" lon="4.69477">
        <ele>378.5</ele>
        <time>2012-03-24T16:15:37Z</time>
      </trkpt>
      <trkpt lat="46.83918" lon="4.69486">
        <ele>380</ele>
        <time>2012-03-24T16:15:41Z</time>
      </trkpt>
      <trkpt lat="46.83912" lon="4.69491">
        <ele>381</ele>
        <time>2012-03-24T16:15:45Z</time>
      </trkpt>
      <trkpt lat="46.83902" lon="4.69498">
        <ele>381</ele>
        <time>2012-03-24T16:15:51Z</time>
      </trkpt>
      <trkpt lat="46.83895" lon="4.69506">
        <ele>380.5</ele>
        <time>2012-03-24T16:15:55Z</time>
      </trkpt>
      <trkpt lat="46.83891" lon="4.69512">
        <ele>380.5</ele>
        <time>2012-03-24T16:15:57Z</time>
      </trkpt>
      <trkpt lat="46.83884" lon="4.69522">
        <ele>380</ele>
        <time>2012-03-24T16:16:01Z</time>
      </trkpt>
      <trkpt lat="46.8388" lon="4.69527">
        <ele>379.5</ele>
        <time>2012-03-24T16:16:03Z</time>
      </trkpt>
      <trkpt lat="46.83875" lon="4.69534">
        <ele>379.5</ele>
        <time>2012-03-24T16:16:05Z</time>
      </trkpt>
      <trkpt lat="46.83869" lon="4.69542">
        <ele>379</ele>
        <time>2012-03-24T16:16:07Z</time>
      </trkpt>
      <trkpt lat="46.83856" lon="4.69559">
        <ele>378</ele>
        <time>2012-03-24T16:16:11Z</time>
      </trkpt>
      <trkpt lat="46.83849" lon="4.69568">
        <ele>377</ele>
        <time>2012-03-24T16:16:13Z</time>
      </trkpt>
      <trkpt lat="46.83838" lon="4.69586">
        <ele>376</ele>
        <time>2012-03-24T16:16:17Z</time>
      </trkpt>
      <trkpt lat="46.83833" lon="4.69604">
        <ele>375.5</ele>
        <time>2012-03-24T16:16:21Z</time>
      </trkpt>
      <trkpt lat="46.8383" lon="4.69618">
        <ele>378</ele>
        <time>2012-03-24T16:16:27Z</time>
      </trkpt>
      <trkpt lat="46.83834" lon="4.69631">
        <ele>381</ele>
        <time>2012-03-24T16:16:33Z</time>
      </trkpt>
      <trkpt lat="46.83839" lon="4.69631">
        <ele>382.5</ele>
        <time>2012-03-24T16:16:37Z</time>
      </trkpt>
      <trkpt lat="46.83852" lon="4.69627">
        <ele>385</ele>
        <time>2012-03-24T16:16:49Z</time>
      </trkpt>
      <trkpt lat="46.83859" lon="4.69619">
        <ele>385.5</ele>
        <time>2012-03-24T16:16:55Z</time>
      </trkpt>
      <trkpt lat="46.83864" lon="4.69614">
        <ele>386</ele>
        <time>2012-03-24T16:16:59Z</time>
      </trkpt>
      <trkpt lat="46.8387" lon="4.69614">
        <ele>387</ele>
        <time>2012-03-24T16:17:03Z</time>
      </trkpt>
      <trkpt lat="46.83876" lon="4.69615">
        <ele>388.5</ele>
        <time>2012-03-24T16:17:07Z</time>
      </trkpt>
      <trkpt lat="46.8388" lon="4.69619">
        <ele>389</ele>
        <time>2012-03-24T16:17:11Z</time>
      </trkpt>
      <trkpt lat="46.83885" lon="4.69628">
        <ele>389</ele>
        <time>2012-03-24T16:17:15Z</time>
      </trkpt>
      <trkpt lat="46.8389" lon="4.6964">
        <ele>389</ele>
        <time>2012-03-24T16:17:19Z</time>
      </trkpt>
      <trkpt lat="46.83894" lon="4.69645">
        <ele>389</ele>
        <time>2012-03-24T16:17:21Z</time>
      </trkpt>
      <trkpt lat="46.83898" lon="4.69649">
        <ele>389</ele>
        <time>2012-03-24T16:17:23Z</time>
      </trkpt>
      <trkpt lat="46.83902" lon="4.69653">
        <ele>389</ele>
        <time>2012-03-24T16:17:25Z</time>
      </trkpt>
      <trkpt lat="46.83913" lon="4.6967">
        <ele>390</ele>
        <time>2012-03-24T16:17:31Z</time>
      </trkpt>
      <trkpt lat="46.83919" lon="4.69677">
        <ele>389.5</ele>
        <time>2012-03-24T16:17:33Z</time>
      </trkpt>
      <trkpt lat="46.8393" lon="4.69689">
        <ele>389</ele>
        <time>2012-03-24T16:17:37Z</time>
      </trkpt>
      <trkpt lat="46.83936" lon="4.69696">
        <ele>388.5</ele>
        <time>2012-03-24T16:17:39Z</time>
      </trkpt>
      <trkpt lat="46.83951" lon="4.69705">
        <ele>387.5</ele>
        <time>2012-03-24T16:17:43Z</time>
      </trkpt>
      <trkpt lat="46.83968" lon="4.69715">
        <ele>388</ele>
        <time>2012-03-24T16:17:47Z</time>
      </trkpt>
      <trkpt lat="46.83984" lon="4.69722">
        <ele>387.5</ele>
        <time>2012-03-24T16:17:51Z</time>
      </trkpt>
      <trkpt lat="46.83999" lon="4.69728">
        <ele>387</ele>
        <time>2012-03-24T16:17:55Z</time>
      </trkpt>
      <trkpt lat="46.84012" lon="4.69734">
        <ele>388.5</ele>
        <time>2012-03-24T16:17:59Z</time>
      </trkpt>
      <trkpt lat="46.84028" lon="4.69749">
        <ele>387.5</ele>
        <time>2012-03-24T16:18:03Z</time>
      </trkpt>
      <trkpt lat="46.84044" lon="4.6977">
        <ele>385.5</ele>
        <time>2012-03-24T16:18:07Z</time>
      </trkpt>
      <trkpt lat="46.84061" lon="4.69788">
        <ele>385</ele>
        <time>2012-03-24T16:18:11Z</time>
      </trkpt>
      <trkpt lat="46.84077" lon="4.69803">
        <ele>383.5</ele>
        <time>2012-03-24T16:18:15Z</time>
      </trkpt>
      <trkpt lat="46.84093" lon="4.69824">
        <ele>382</ele>
        <time>2012-03-24T16:18:19Z</time>
      </trkpt>
      <trkpt lat="46.84107" lon="4.69848">
        <ele>381</ele>
        <time>2012-03-24T16:18:23Z</time>
      </trkpt>
      <trkpt lat="46.84122" lon="4.6987">
        <ele>381</ele>
        <time>2012-03-24T16:18:27Z</time>
      </trkpt>
      <trkpt lat="46.84136" lon="4.69893">
        <ele>380.5</ele>
        <time>2012-03-24T16:18:31Z</time>
      </trkpt>
      <trkpt lat="46.84143" lon="4.69917">
        <ele>378</ele>
        <time>2012-03-24T16:18:35Z</time>
      </trkpt>
      <trkpt lat="46.84133" lon="4.69941">
        <ele>376</ele>
        <time>2012-03-24T16:18:39Z</time>
      </trkpt>
      <trkpt lat="46.84114" lon="4.69972">
        <ele>372</ele>
        <time>2012-03-24T16:18:43Z</time>
      </trkpt>
      <trkpt lat="46.84089" lon="4.70015">
        <ele>366.5</ele>
        <time>2012-03-24T16:18:47Z</time>
      </trkpt>
      <trkpt lat="46.84077" lon="4.7004">
        <ele>364.5</ele>
        <time>2012-03-24T16:18:49Z</time>
      </trkpt>
      <trkpt lat="46.84071" lon="4.70053">
        <ele>363</ele>
        <time>2012-03-24T16:18:50Z</time>
      </trkpt>
      <trkpt lat="46.84066" lon="4.70067">
        <ele>361</ele>
        <time>2012-03-24T16:18:51Z</time>
      </trkpt>
      <trkpt lat="46.84054" lon="4.70093">
        <ele>357</ele>
        <time>2012-03-24T16:18:53Z</time>
      </trkpt>
      <trkpt lat="46.84048" lon="4.70103">
        <ele>356</ele>
        <time>2012-03-24T16:18:54Z</time>
      </trkpt>
      <trkpt lat="46.84044" lon="4.70112">
        <ele>355</ele>
        <time>2012-03-24T16:18:55Z</time>
      </trkpt>
      <trkpt lat="46.84034" lon="4.70126">
        <ele>354</ele>
        <time>2012-03-24T16:18:57Z</time>
      </trkpt>
      <trkpt lat="46.84029" lon="4.70128">
        <ele>354</ele>
        <time>2012-03-24T16:18:58Z</time>
      </trkpt>
      <trkpt lat="46.84024" lon="4.70129">
        <ele>354.5</ele>
        <time>2012-03-24T16:18:59Z</time>
      </trkpt>
      <trkpt lat="46.8402" lon="4.70129">
        <ele>354.5</ele>
        <time>2012-03-24T16:19:00Z</time>
      </trkpt>
      <trkpt lat="46.84006" lon="4.70157">
        <ele>352</ele>
        <time>2012-03-24T16:19:05Z</time>
      </trkpt>
      <trkpt lat="46.83996" lon="4.70203">
        <ele>345.5</ele>
        <time>2012-03-24T16:19:09Z</time>
      </trkpt>
      <trkpt lat="46.83984" lon="4.70261">
        <ele>339</ele>
        <time>2012-03-24T16:19:13Z</time>
      </trkpt>
      <trkpt lat="46.83979" lon="4.70288">
        <ele>336.5</ele>
        <time>2012-03-24T16:19:16Z</time>
      </trkpt>
      <trkpt lat="46.83981" lon="4.70294">
        <ele>336.5</ele>
        <time>2012-03-24T16:19:17Z</time>
      </trkpt>
      <trkpt lat="46.84006" lon="4.70311">
        <ele>335.5</ele>
        <time>2012-03-24T16:19:23Z</time>
      </trkpt>
      <trkpt lat="46.8403" lon="4.70328">
        <ele>332.5</ele>
        <time>2012-03-24T16:19:27Z</time>
      </trkpt>
      <trkpt lat="46.84056" lon="4.70349">
        <ele>330.5</ele>
        <time>2012-03-24T16:19:31Z</time>
      </trkpt>
      <trkpt lat="46.84075" lon="4.7037">
        <ele>333</ele>
        <time>2012-03-24T16:19:35Z</time>
      </trkpt>
      <trkpt lat="46.84083" lon="4.70404">
        <ele>331.5</ele>
        <time>2012-03-24T16:19:40Z</time>
      </trkpt>
      <trkpt lat="46.84081" lon="4.70445">
        <ele>329</ele>
        <time>2012-03-24T16:19:44Z</time>
      </trkpt>
      <trkpt lat="46.84074" lon="4.70488">
        <ele>327.5</ele>
        <time>2012-03-24T16:19:48Z</time>
      </trkpt>
      <trkpt lat="46.84065" lon="4.70528">
        <ele>326.5</ele>
        <time>2012-03-24T16:19:52Z</time>
      </trkpt>
      <trkpt lat="46.84062" lon="4.70538">
        <ele>326</ele>
        <time>2012-03-24T16:19:53Z</time>
      </trkpt>
      <trkpt lat="46.84057" lon="4.70558">
        <ele>325.5</ele>
        <time>2012-03-24T16:19:55Z</time>
      </trkpt>
      <trkpt lat="46.84055" lon="4.70568">
        <ele>325.5</ele>
        <time>2012-03-24T16:19:56Z</time>
      </trkpt>
      <trkpt lat="46.84053" lon="4.70578">
        <ele>325</ele>
        <time>2012-03-24T16:19:57Z</time>
      </trkpt>
      <trkpt lat="46.8405" lon="4.70598">
        <ele>324.5</ele>
        <time>2012-03-24T16:19:59Z</time>
      </trkpt>
      <trkpt lat="46.84049" lon="4.70609">
        <ele>324</ele>
        <time>2012-03-24T16:20:00Z</time>
      </trkpt>
      <trkpt lat="46.84048" lon="4.7062">
        <ele>324</ele>
        <time>2012-03-24T16:20:01Z</time>
      </trkpt>
      <trkpt lat="46.84043" lon="4.70642">
        <ele>323</ele>
        <time>2012-03-24T16:20:03Z</time>
      </trkpt>
      <trkpt lat="46.84037" lon="4.70665">
        <ele>322</ele>
        <time>2012-03-24T16:20:05Z</time>
      </trkpt>
      <trkpt lat="46.84035" lon="4.70677">
        <ele>321.5</ele>
        <time>2012-03-24T16:20:06Z</time>
      </trkpt>
      <trkpt lat="46.8403" lon="4.70702">
        <ele>319.5</ele>
        <time>2012-03-24T16:20:08Z</time>
      </trkpt>
      <trkpt lat="46.84025" lon="4.70728">
        <ele>318.5</ele>
        <time>2012-03-24T16:20:10Z</time>
      </trkpt>
      <trkpt lat="46.8402" lon="4.70754">
        <ele>316.5</ele>
        <time>2012-03-24T16:20:12Z</time>
      </trkpt>
      <trkpt lat="46.84017" lon="4.70768">
        <ele>315.5</ele>
        <time>2012-03-24T16:20:13Z</time>
      </trkpt>
      <trkpt lat="46.84015" lon="4.70782">
        <ele>315</ele>
        <time>2012-03-24T16:20:14Z</time>
      </trkpt>
      <trkpt lat="46.84011" lon="4.70811">
        <ele>313</ele>
        <time>2012-03-24T16:20:16Z</time>
      </trkpt>
      <trkpt lat="46.84009" lon="4.70826">
        <ele>312</ele>
        <time>2012-03-24T16:20:17Z</time>
      </trkpt>
      <trkpt lat="46.84008" lon="4.70841">
        <ele>311.5</ele>
        <time>2012-03-24T16:20:18Z</time>
      </trkpt>
      <trkpt lat="46.84007" lon="4.70857">
        <ele>310.5</ele>
        <time>2012-03-24T16:20:19Z</time>
      </trkpt>
      <trkpt lat="46.84005" lon="4.70887">
        <ele>308.5</ele>
        <time>2012-03-24T16:20:21Z</time>
      </trkpt>
      <trkpt lat="46.84005" lon="4.70902">
        <ele>308</ele>
        <time>2012-03-24T16:20:22Z</time>
      </trkpt>
      <trkpt lat="46.84005" lon="4.70918">
        <ele>307</ele>
        <time>2012-03-24T16:20:23Z</time>
      </trkpt>
      <trkpt lat="46.84005" lon="4.70933">
        <ele>306.5</ele>
        <time>2012-03-24T16:20:24Z</time>
      </trkpt>
      <trkpt lat="46.84003" lon="4.70961">
        <ele>305</ele>
        <time>2012-03-24T16:20:26Z</time>
      </trkpt>
      <trkpt lat="46.84001" lon="4.70974">
        <ele>305</ele>
        <time>2012-03-24T16:20:27Z</time>
      </trkpt>
      <trkpt lat="46.83998" lon="4.70986">
        <ele>304</ele>
        <time>2012-03-24T16:20:28Z</time>
      </trkpt>
      <trkpt lat="46.83995" lon="4.71011">
        <ele>302.5</ele>
        <time>2012-03-24T16:20:30Z</time>
      </trkpt>
      <trkpt lat="46.83994" lon="4.71024">
        <ele>301.5</ele>
        <time>2012-03-24T16:20:31Z</time>
      </trkpt>
      <trkpt lat="46.83994" lon="4.71037">
        <ele>301</ele>
        <time>2012-03-24T16:20:32Z</time>
      </trkpt>
      <trkpt lat="46.83992" lon="4.71063">
        <ele>300</ele>
        <time>2012-03-24T16:20:34Z</time>
      </trkpt>
      <trkpt lat="46.83991" lon="4.71075">
        <ele>299</ele>
        <time>2012-03-24T16:20:35Z</time>
      </trkpt>
      <trkpt lat="46.8399" lon="4.71088">
        <ele>298</ele>
        <time>2012-03-24T16:20:36Z</time>
      </trkpt>
      <trkpt lat="46.8399" lon="4.71114">
        <ele>297.5</ele>
        <time>2012-03-24T16:20:38Z</time>
      </trkpt>
      <trkpt lat="46.83988" lon="4.71138">
        <ele>297.5</ele>
        <time>2012-03-24T16:20:40Z</time>
      </trkpt>
      <trkpt lat="46.83987" lon="4.7115">
        <ele>297.5</ele>
        <time>2012-03-24T16:20:41Z</time>
      </trkpt>
      <trkpt lat="46.83986" lon="4.71173">
        <ele>297.5</ele>
        <time>2012-03-24T16:20:43Z</time>
      </trkpt>
      <trkpt lat="46.83985" lon="4.71195">
        <ele>297</ele>
        <time>2012-03-24T16:20:45Z</time>
      </trkpt>
      <trkpt lat="46.83984" lon="4.71206">
        <ele>297.5</ele>
        <time>2012-03-24T16:20:46Z</time>
      </trkpt>
      <trkpt lat="46.83984" lon="4.71226">
        <ele>297.5</ele>
        <time>2012-03-24T16:20:48Z</time>
      </trkpt>
      <trkpt lat="46.83983" lon="4.71237">
        <ele>297.5</ele>
        <time>2012-03-24T16:20:49Z</time>
      </trkpt>
      <trkpt lat="46.83983" lon="4.71246">
        <ele>297.5</ele>
        <time>2012-03-24T16:20:50Z</time>
      </trkpt>
      <trkpt lat="46.83983" lon="4.71294">
        <ele>297.5</ele>
        <time>2012-03-24T16:20:55Z</time>
      </trkpt>
      <trkpt lat="46.83982" lon="4.71327">
        <ele>298</ele>
        <time>2012-03-24T16:20:59Z</time>
      </trkpt>
      <trkpt lat="46.83984" lon="4.71358">
        <ele>298.5</ele>
        <time>2012-03-24T16:21:03Z</time>
      </trkpt>
      <trkpt lat="46.83986" lon="4.71385">
        <ele>299</ele>
        <time>2012-03-24T16:21:07Z</time>
      </trkpt>
      <trkpt lat="46.83989" lon="4.71407">
        <ele>299.5</ele>
        <time>2012-03-24T16:21:11Z</time>
      </trkpt>
      <trkpt lat="46.83992" lon="4.71427">
        <ele>300</ele>
        <time>2012-03-24T16:21:15Z</time>
      </trkpt>
      <trkpt lat="46.83997" lon="4.71454">
        <ele>301</ele>
        <time>2012-03-24T16:21:21Z</time>
      </trkpt>
      <trkpt lat="46.83998" lon="4.71471">
        <ele>302</ele>
        <time>2012-03-24T16:21:25Z</time>
      </trkpt>
      <trkpt lat="46.83999" lon="4.71479">
        <ele>303</ele>
        <time>2012-03-24T16:21:27Z</time>
      </trkpt>
      <trkpt lat="46.83999" lon="4.71494">
        <ele>303.5</ele>
        <time>2012-03-24T16:21:31Z</time>
      </trkpt>
      <trkpt lat="46.83999" lon="4.71501">
        <ele>304</ele>
        <time>2012-03-24T16:21:33Z</time>
      </trkpt>
      <trkpt lat="46.83999" lon="4.71515">
        <ele>305</ele>
        <time>2012-03-24T16:21:37Z</time>
      </trkpt>
      <trkpt lat="46.83998" lon="4.71522">
        <ele>305.5</ele>
        <time>2012-03-24T16:21:39Z</time>
      </trkpt>
      <trkpt lat="46.83996" lon="4.71536">
        <ele>306</ele>
        <time>2012-03-24T16:21:43Z</time>
      </trkpt>
      <trkpt lat="46.83994" lon="4.71543">
        <ele>306.5</ele>
        <time>2012-03-24T16:21:45Z</time>
      </trkpt>
      <trkpt lat="46.83992" lon="4.71549">
        <ele>307</ele>
        <time>2012-03-24T16:21:47Z</time>
      </trkpt>
      <trkpt lat="46.83988" lon="4.71563">
        <ele>307.5</ele>
        <time>2012-03-24T16:21:51Z</time>
      </trkpt>
      <trkpt lat="46.83987" lon="4.7157">
        <ele>308</ele>
        <time>2012-03-24T16:21:53Z</time>
      </trkpt>
      <trkpt lat="46.83985" lon="4.71577">
        <ele>308</ele>
        <time>2012-03-24T16:21:55Z</time>
      </trkpt>
      <trkpt lat="46.83982" lon="4.71592">
        <ele>308</ele>
        <time>2012-03-24T16:21:59Z</time>
      </trkpt>
      <trkpt lat="46.83981" lon="4.71599">
        <ele>307.5</ele>
        <time>2012-03-24T16:22:01Z</time>
      </trkpt>
      <trkpt lat="46.83977" lon="4.71612">
        <ele>307</ele>
        <time>2012-03-24T16:22:05Z</time>
      </trkpt>
      <trkpt lat="46.83969" lon="4.71615">
        <ele>305.5</ele>
        <time>2012-03-24T16:22:07Z</time>
      </trkpt>
      <trkpt lat="46.83961" lon="4.71612">
        <ele>303.5</ele>
        <time>2012-03-24T16:22:09Z</time>
      </trkpt>
      <trkpt lat="46.83941" lon="4.71607">
        <ele>304</ele>
        <time>2012-03-24T16:22:13Z</time>
      </trkpt>
      <trkpt lat="46.83917" lon="4.71597">
        <ele>302.5</ele>
        <time>2012-03-24T16:22:17Z</time>
      </trkpt>
      <trkpt lat="46.83893" lon="4.71594">
        <ele>302</ele>
        <time>2012-03-24T16:22:21Z</time>
      </trkpt>
      <trkpt lat="46.83875" lon="4.7161">
        <ele>301.5</ele>
        <time>2012-03-24T16:22:25Z</time>
      </trkpt>
      <trkpt lat="46.83869" lon="4.71641">
        <ele>301.5</ele>
        <time>2012-03-24T16:22:29Z</time>
      </trkpt>
      <trkpt lat="46.83863" lon="4.71675">
        <ele>301</ele>
        <time>2012-03-24T16:22:33Z</time>
      </trkpt>
      <trkpt lat="46.83859" lon="4.7171">
        <ele>299.5</ele>
        <time>2012-03-24T16:22:37Z</time>
      </trkpt>
      <trkpt lat="46.83853" lon="4.71747">
        <ele>298.5</ele>
        <time>2012-03-24T16:22:41Z</time>
      </trkpt>
      <trkpt lat="46.83847" lon="4.71786">
        <ele>297</ele>
        <time>2012-03-24T16:22:45Z</time>
      </trkpt>
      <trkpt lat="46.83839" lon="4.71824">
        <ele>295.5</ele>
        <time>2012-03-24T16:22:49Z</time>
      </trkpt>
      <trkpt lat="46.83831" lon="4.71836">
        <ele>296.5</ele>
        <time>2012-03-24T16:22:53Z</time>
      </trkpt>
      <trkpt lat="46.83815" lon="4.71829">
        <ele>295.5</ele>
        <time>2012-03-24T16:22:57Z</time>
      </trkpt>
      <trkpt lat="46.83806" lon="4.71822">
        <ele>295</ele>
        <time>2012-03-24T16:22:59Z</time>
      </trkpt>
      <trkpt lat="46.83785" lon="4.71808">
        <ele>293.5</ele>
        <time>2012-03-24T16:23:03Z</time>
      </trkpt>
      <trkpt lat="46.83762" lon="4.7179">
        <ele>291</ele>
        <time>2012-03-24T16:23:07Z</time>
      </trkpt>
      <trkpt lat="46.83736" lon="4.71771">
        <ele>289.5</ele>
        <time>2012-03-24T16:23:11Z</time>
      </trkpt>
      <trkpt lat="46.83709" lon="4.71755">
        <ele>287</ele>
        <time>2012-03-24T16:23:15Z</time>
      </trkpt>
      <trkpt lat="46.83703" lon="4.71751">
        <ele>286.5</ele>
        <time>2012-03-24T16:23:16Z</time>
      </trkpt>
      <trkpt lat="46.8369" lon="4.71742">
        <ele>286</ele>
        <time>2012-03-24T16:23:18Z</time>
      </trkpt>
      <trkpt lat="46.83676" lon="4.71735">
        <ele>286</ele>
        <time>2012-03-24T16:23:20Z</time>
      </trkpt>
      <trkpt lat="46.83649" lon="4.71718">
        <ele>285.5</ele>
        <time>2012-03-24T16:23:25Z</time>
      </trkpt>
      <trkpt lat="46.83642" lon="4.71714">
        <ele>279.5</ele>
        <time>2012-03-24T16:23:29Z</time>
      </trkpt>
      <trkpt lat="46.83635" lon="4.71716">
        <ele>285</ele>
        <time>2012-03-24T16:23:41Z</time>
      </trkpt>
      <trkpt lat="46.83632" lon="4.71723">
        <ele>285</ele>
        <time>2012-03-24T16:23:43Z</time>
      </trkpt>
      <trkpt lat="46.83623" lon="4.71737">
        <ele>284.5</ele>
        <time>2012-03-24T16:23:47Z</time>
      </trkpt>
      <trkpt lat="46.83619" lon="4.71745">
        <ele>284.5</ele>
        <time>2012-03-24T16:23:49Z</time>
      </trkpt>
      <trkpt lat="46.83615" lon="4.71755">
        <ele>285</ele>
        <time>2012-03-24T16:23:51Z</time>
      </trkpt>
      <trkpt lat="46.8361" lon="4.71765">
        <ele>284.5</ele>
        <time>2012-03-24T16:23:53Z</time>
      </trkpt>
      <trkpt lat="46.83604" lon="4.71774">
        <ele>284</ele>
        <time>2012-03-24T16:23:55Z</time>
      </trkpt>
      <trkpt lat="46.83598" lon="4.71783">
        <ele>285</ele>
        <time>2012-03-24T16:23:57Z</time>
      </trkpt>
      <trkpt lat="46.83579" lon="4.71799">
        <ele>283</ele>
        <time>2012-03-24T16:24:01Z</time>
      </trkpt>
      <trkpt lat="46.83574" lon="4.71813">
        <ele>283.5</ele>
        <time>2012-03-24T16:24:03Z</time>
      </trkpt>
      <trkpt lat="46.83564" lon="4.71844">
        <ele>283</ele>
        <time>2012-03-24T16:24:07Z</time>
      </trkpt>
      <trkpt lat="46.8355" lon="4.71867">
        <ele>282.5</ele>
        <time>2012-03-24T16:24:11Z</time>
      </trkpt>
      <trkpt lat="46.83534" lon="4.71893">
        <ele>282.5</ele>
        <time>2012-03-24T16:24:15Z</time>
      </trkpt>
      <trkpt lat="46.8352" lon="4.7192">
        <ele>282.5</ele>
        <time>2012-03-24T16:24:19Z</time>
      </trkpt>
      <trkpt lat="46.83504" lon="4.71946">
        <ele>282.5</ele>
        <time>2012-03-24T16:24:23Z</time>
      </trkpt>
      <trkpt lat="46.83489" lon="4.71972">
        <ele>282</ele>
        <time>2012-03-24T16:24:27Z</time>
      </trkpt>
      <trkpt lat="46.83471" lon="4.72">
        <ele>281.5</ele>
        <time>2012-03-24T16:24:31Z</time>
      </trkpt>
      <trkpt lat="46.83454" lon="4.72029">
        <ele>281</ele>
        <time>2012-03-24T16:24:35Z</time>
      </trkpt>
      <trkpt lat="46.83438" lon="4.72061">
        <ele>280</ele>
        <time>2012-03-24T16:24:39Z</time>
      </trkpt>
      <trkpt lat="46.83421" lon="4.72091">
        <ele>279.5</ele>
        <time>2012-03-24T16:24:43Z</time>
      </trkpt>
      <trkpt lat="46.83403" lon="4.72119">
        <ele>279</ele>
        <time>2012-03-24T16:24:47Z</time>
      </trkpt>
      <trkpt lat="46.83384" lon="4.72146">
        <ele>279</ele>
        <time>2012-03-24T16:24:51Z</time>
      </trkpt>
      <trkpt lat="46.83365" lon="4.7217">
        <ele>279</ele>
        <time>2012-03-24T16:24:55Z</time>
      </trkpt>
      <trkpt lat="46.83346" lon="4.72192">
        <ele>279</ele>
        <time>2012-03-24T16:24:59Z</time>
      </trkpt>
      <trkpt lat="46.83335" lon="4.72222">
        <ele>279</ele>
        <time>2012-03-24T16:25:03Z</time>
      </trkpt>
      <trkpt lat="46.83321" lon="4.72251">
        <ele>278.5</ele>
        <time>2012-03-24T16:25:07Z</time>
      </trkpt>
      <trkpt lat="46.83305" lon="4.7228">
        <ele>278</ele>
        <time>2012-03-24T16:25:11Z</time>
      </trkpt>
      <trkpt lat="46.83289" lon="4.72307">
        <ele>277.5</ele>
        <time>2012-03-24T16:25:15Z</time>
      </trkpt>
      <trkpt lat="46.83273" lon="4.72336">
        <ele>277.5</ele>
        <time>2012-03-24T16:25:19Z</time>
      </trkpt>
      <trkpt lat="46.83257" lon="4.72365">
        <ele>277</ele>
        <time>2012-03-24T16:25:23Z</time>
      </trkpt>
      <trkpt lat="46.83241" lon="4.72394">
        <ele>276.5</ele>
        <time>2012-03-24T16:25:27Z</time>
      </trkpt>
      <trkpt lat="46.83224" lon="4.72424">
        <ele>276</ele>
        <time>2012-03-24T16:25:31Z</time>
      </trkpt>
      <trkpt lat="46.83208" lon="4.72454">
        <ele>275.5</ele>
        <time>2012-03-24T16:25:35Z</time>
      </trkpt>
      <trkpt lat="46.83192" lon="4.72483">
        <ele>275</ele>
        <time>2012-03-24T16:25:39Z</time>
      </trkpt>
      <trkpt lat="46.83174" lon="4.72511">
        <ele>275</ele>
        <time>2012-03-24T16:25:43Z</time>
      </trkpt>
      <trkpt lat="46.83158" lon="4.72539">
        <ele>275</ele>
        <time>2012-03-24T16:25:47Z</time>
      </trkpt>
      <trkpt lat="46.83142" lon="4.72567">
        <ele>276</ele>
        <time>2012-03-24T16:25:51Z</time>
      </trkpt>
      <trkpt lat="46.83124" lon="4.72594">
        <ele>276</ele>
        <time>2012-03-24T16:25:55Z</time>
      </trkpt>
      <trkpt lat="46.83107" lon="4.72625">
        <ele>276</ele>
        <time>2012-03-24T16:25:59Z</time>
      </trkpt>
      <trkpt lat="46.83091" lon="4.72657">
        <ele>276</ele>
        <time>2012-03-24T16:26:03Z</time>
      </trkpt>
      <trkpt lat="46.83073" lon="4.72686">
        <ele>275.5</ele>
        <time>2012-03-24T16:26:07Z</time>
      </trkpt>
      <trkpt lat="46.83056" lon="4.72714">
        <ele>275</ele>
        <time>2012-03-24T16:26:11Z</time>
      </trkpt>
      <trkpt lat="46.83038" lon="4.72743">
        <ele>275</ele>
        <time>2012-03-24T16:26:15Z</time>
      </trkpt>
      <trkpt lat="46.83021" lon="4.7277">
        <ele>274.5</ele>
        <time>2012-03-24T16:26:19Z</time>
      </trkpt>
      <trkpt lat="46.83006" lon="4.72796">
        <ele>274.5</ele>
        <time>2012-03-24T16:26:23Z</time>
      </trkpt>
      <trkpt lat="46.82992" lon="4.72822">
        <ele>274</ele>
        <time>2012-03-24T16:26:27Z</time>
      </trkpt>
      <trkpt lat="46.82977" lon="4.72848">
        <ele>273.5</ele>
        <time>2012-03-24T16:26:31Z</time>
      </trkpt>
      <trkpt lat="46.82962" lon="4.72873">
        <ele>273.5</ele>
        <time>2012-03-24T16:26:35Z</time>
      </trkpt>
      <trkpt lat="46.82947" lon="4.72897">
        <ele>273.5</ele>
        <time>2012-03-24T16:26:39Z</time>
      </trkpt>
      <trkpt lat="46.82932" lon="4.7292">
        <ele>273.5</ele>
        <time>2012-03-24T16:26:43Z</time>
      </trkpt>
      <trkpt lat="46.82918" lon="4.72943">
        <ele>273.5</ele>
        <time>2012-03-24T16:26:47Z</time>
      </trkpt>
      <trkpt lat="46.82908" lon="4.72965">
        <ele>274</ele>
        <time>2012-03-24T16:26:51Z</time>
      </trkpt>
      <trkpt lat="46.82894" lon="4.72986">
        <ele>274</ele>
        <time>2012-03-24T16:26:55Z</time>
      </trkpt>
      <trkpt lat="46.82882" lon="4.73006">
        <ele>274</ele>
        <time>2012-03-24T16:26:59Z</time>
      </trkpt>
      <trkpt lat="46.8287" lon="4.73024">
        <ele>275</ele>
        <time>2012-03-24T16:27:03Z</time>
      </trkpt>
      <trkpt lat="46.82859" lon="4.73043">
        <ele>275.5</ele>
        <time>2012-03-24T16:27:07Z</time>
      </trkpt>
      <trkpt lat="46.82849" lon="4.73061">
        <ele>276</ele>
        <time>2012-03-24T16:27:11Z</time>
      </trkpt>
      <trkpt lat="46.82839" lon="4.7308">
        <ele>276.5</ele>
        <time>2012-03-24T16:27:15Z</time>
      </trkpt>
      <trkpt lat="46.8286" lon="4.7311">
        <ele>223.6</ele>
        <time>2012-03-24T16:27:15Z</time>
      </trkpt>
      <trkpt lat="46.82852" lon="4.73207">
        <ele>221.9</ele>
        <time>2012-03-24T16:27:15Z</time>
      </trkpt>
      <trkpt lat="46.82878" lon="4.73286">
        <ele>219.5</ele>
        <time>2012-03-24T16:27:15Z</time>
      </trkpt>
    </trkseg>
  </trk>
</gpx>